     2              OBSERVATION DATA    GPS                 RINEX VERSION / TYPE
TRRINEXO-V2.3.1-LH UCLA/SCEC 28-FEB-1994                    PGM / RUN BY / DATE
                                                            COMMENT
Original Marker Name: SAW D-7 ECC6 1978                     COMMENT
Campaign Name: Northridge 1994                              COMMENT
4-Character Station Name: BREN                              COMMENT
6-Character Antenna Code: TRMSST                            COMMENT
Vertical Measurement Point: TGP                             COMMENT
Vertical Offset to Rinex Ref. Point: 0.0629                 COMMENT
Radial Measurement Point: IGP                               COMMENT
Radial Offset to Rinex Ref. Point: 0.2403                   COMMENT
Antenna Height from Field Measurement: 1.0470 m             COMMENT
Set-up off 2mm N90E from eyepiece.                          COMMENT
End: 1mm N90E off by plumb bob.                             COMMENT
Original XYZ: -2522528.1482 -4650485.6450 3550637.7914      COMMENT
New XYZ position is based on association with SCEC monument COMMENT
E1C7Y6D2+0011. Position of that monument is believed to be  COMMENT
valid to within 1 m horizontally; vertical accuracy         COMMENT
should be no worse than 3-times this value.                 COMMENT
                                                            COMMENT
Revised Rinex header created by UCSD GPS archive for        COMMENT
GSAC on 06-Apr-1999 (1999:096) 05:30:51 GMT                 COMMENT
For assistance contact dagnew@ucsd.edu or hjohnson@ucsd.edu COMMENT
                                                            COMMENT
SAW D-7 ECC6 1978                                           MARKER NAME
Z. SHEN UCLA                                                OBSERVER / AGENCY
497 TRIMBLE 4000 SST 4.81                                   REC # / TYPE / VERS
129 TR 4000SST L1/L2 GEO                                    ANT # / TYPE
 -2522527.0000 -4650456.0000  3550595.0000                  APPROX POSITION XYZ
        0.9562        0.0000        0.0000                  ANTENNA: DELTA H/E/N
     1     2     0                                          WAVELENGTH FACT L1/2
     3    C1    L1    L2                                    # / TYPES OF OBSERV
    30                                                      INTERVAL
  1994     2    17     0     1   30.000000                  TIME OF FIRST OBS
  1994     2    17    23    59   30.000000                  TIME OF LAST OBS
     0                                                      # OF SATELLITES
                                                            END OF HEADER
 94  2 17  0  1 30.0000000  0  6  2 27  7 15 19 31
  21025108.320          -0.34017
  20356184.945          -0.55717
  21659190.797          -0.73717
  24357053.484          -0.20915
  21903040.031          -0.99516
  24736263.594          -0.12813
 94  2 17  0  2  0.0000000  0  6  2 27  7 15 26 19
  21018189.922      -36358.963 7        -0.37519
  20355138.656       -5502.299 7        -0.49019
  21639912.508     -101316.349 7        -0.10619
  24343027.195      -73707.447 4
  23535540.367      -96330.550 5
  21909657.734       34772.370 6        -0.47617
 94  2 17  0  2 30.0000000  0  6  2 27  7 15 26 19
  21011312.516      -72499.564 7    -28161.864 9
  20354166.930      -10598.349 7     -3971.431 9
  21620706.219     -202256.535 7    -78654.726 9
  24329074.305     -147078.861 5        -0.43714
  23517279.789     -192273.886 5        -0.20915
  21916326.219       69829.441 6     27316.709 7
 94  2 17  0  3  0.0000000  0  6  2 27  7 15 26 19
  21004481.141     -108400.825 7    -56136.843 9
  20353274.875      -15289.336 7     -7626.746 9
  21601570.750     -302812.855 6   -157010.241 9
  24315171.289     -220108.320 5    -56906.378 2
  23499093.586     -287843.472 5    -74469.936 5
  21923055.438      105179.427 7     54862.118 7
 94  2 17  0  3 30.0000000  0  6  2 27  7 15 26 19
  20997692.430     -144067.564 7    -83929.084 9
  20352460.039      -19588.954 7    -10977.086 9
  21582508.680     -402982.252 7   -235064.259 9
  24301333.352     -292797.425 3   -113547.148 4
  23480978.344     -383067.999 6   -148670.810 5
  21929837.391      140818.487 6     82632.793 7
 94  2 17  0  4  0.0000000  0  6  2 27  7 15 26 19
  20990952.297     -179497.526 7   -111536.838 9
  20351708.125      -23512.688 7    -14034.540 9
  21563519.828     -502755.681 6   -312809.731 9
  24287567.625     -365148.385 5   -169924.477 4
  23462914.133     -477957.372 5   -222610.545 5
  21936674.266      176744.134 6    110626.795 7
 94  2 17  0  4 30.0000000  0  6  2 27  7 15 26 19
  20984250.836     -214698.826 7   -138966.400 9
  20351040.703      -27040.248 7    -16783.304 9
  21544611.375     -602141.504 7   -390253.168 9
  24273869.469     -437151.928 4   -226031.008 4
  23444922.914     -572499.709 5   -296279.863 5
  21943567.750      212967.309 6    138852.630 7
 94  2 17  0  5  0.0000000  0  6  2 27  7 15 26 19
  20977592.102     -249696.207 7   -166237.055 9
  20350442.938      -30179.937 7    -19229.794 9
  21525769.781     -701150.006 7   -467402.591 9
  24260220.953     -508807.219 3   -281866.201 3
  23427003.633     -666698.294 5   -369681.316 5
  21950516.781      249480.669 7    167304.581 7
 94  2 17  0  5 30.0000000  0  6  2 27  7 15 26 19
  20970969.953     -284511.385 7   -193365.744 9
  20349915.438      -32927.414 7    -21370.698 9
  21507000.789     -799776.951 6   -544254.701 9
  24246657.930     -580117.926 5   -337432.896 5
  23409138.563     -760540.427 5   -442805.017 5
  21957511.938      286254.900 6    195959.803 7
 94  2 17  0  6  0.0000000  0  6  2 27  7 15 26 19
  20964378.781     -319133.035 7   -220343.622 9
  20349471.234      -35265.818 7    -23192.835 9
  21488306.023     -898023.070 7   -620810.068 9
  24233158.094     -651078.186 5   -392726.484 5
  23391358.172     -853991.724 5   -515624.167 5
  21964560.391      323283.147 6    224812.980 7
 94  2 17  0  6 30.0000000  0  6  2 27  7 15 26 19
  20957827.563     -353568.516 7   -247176.439 9
  20349107.977      -37179.862 7    -24684.300 9
  21469682.641     -995888.776 6   -697069.009 9
  24219711.852     -721684.259 3   -447744.130 2
  23373655.820     -947037.321 5   -588127.173 5
  21971652.813      360559.826 6    253859.720 7
 94  2 17  0  7  0.0000000  0  6  2 27  7 15 26 19
  20951312.062     -387796.496 7   -273847.565 9
  20348826.539      -38667.517 7    -25843.505 9
  21451137.516    -1093340.275 7   -773005.190 9
  24206355.906     -791927.050 5   -502478.648 4
  23356031.141    -1039670.048 5   -660308.465 5
  21978794.883      398096.756 6    283109.252 7
 94  2 17  0  7 30.0000000  0  6  2 27  7 15 26 19
  20944839.180     -421811.723 7   -300352.902 9
  20348623.508      -39738.311 7    -26677.906 9
  21432667.430    -1190400.665 7   -848636.606 9
  24193061.406     -861814.731 5   -556936.470 4
  23338476.641    -1131901.174 5   -732176.818 5
  21985987.805      435898.824 6    312565.411 7
 94  2 17  0  8 29.9990000  0  6  2 27  7 15 26 19
  20932019.753     -489188.113 7   -352853.960 9
  20348442.378      -40694.471 7
  21395946.729    -1383367.117 7   -998999.974 9
  24166666.628    -1000507.767 5   -665008.872 5
  23303606.440    -1315139.779 5   -874960.012 5
  22000545.831      512391.312 6    372169.908 7
 94  2 17  0  8 59.9990000  0  6  2 27  7 15 26 19
  20925666.784     -522571.894 7   -378867.281 9
  20348462.659      -40600.865 7
  21377699.065    -1479263.000 7  -1073723.998 9
  24153563.448    -1069306.527 3   -718618.220 4
  23286280.644    -1406167.381 5   -945890.535 6
  22007910.175      551096.904 6    402330.087 7
 94  2 17  0  9 29.9990000  0  6  2 27  7 15 26 19
  20919346.628     -555774.255 7   -404739.229 9
  20348548.925      -40136.521 7
  21359522.792    -1574769.160 7  -1148144.324 9
  24140537.831    -1137734.612 3   -771938.822 5
  23269033.565    -1496803.999 5  -1016516.410 6
  22015333.495      590103.612 6    432724.907 7
 94  2 17  0  9 59.9990000  0  6  2 27  7 15 26 19
  20913058.737     -588810.359 7   -430481.638 9
  20348707.222      -39297.705 7    -26334.570 9
  21341427.987    -1669863.751 7  -1222243.958 9
  24127602.487    -1205788.747 5   -824967.918 5
  23251863.237    -1587043.562 5  -1086832.891 6
  22022809.612      629395.640 6    463342.050 7
 94  2 17  0 10 29.9990000  0  6  2 27  7 15 26 19
  20906801.597     -621697.530 7   -456107.999 9
  20348942.128      -38073.414 7    -25380.569 9
  21323409.761    -1764541.101 7  -1296018.467 9
  24114719.854    -1273467.284 3   -877704.346 4
  23234763.253    -1676898.828 5  -1156849.915 6
  22030338.800      668961.952 6    494172.922 7
 94  2 17  0 10 59.9990000  0  6  2 27  7 15 26 19
  20900576.104     -654416.733 7   -481603.467 9
  20349248.183      -36448.357 7    -24114.295 9
  21305473.901    -1858810.952 7  -1369475.434 9
  24101912.495    -1340765.855 3   -930144.769 4
  23217741.745    -1766359.668 6  -1226559.605 6
  22037921.019      708801.791 6    525216.927 7
 94  2 17  0 11 29.9990000  0  6  2 27  7 15 26 19
  20894383.636     -686958.810 7   -506960.908 9
  20349640.198      -34402.687 7    -22520.255 9
  21287608.933    -1952682.507 7  -1442622.053 9
  24089180.136    -1407682.041 4   -982287.156 5
  23200795.394    -1855411.151 6  -1295950.312 5
  22045554.183      748918.338 6    556476.534 7
 94  2 17  0 11 59.9990000  0  6  2 27  7 15 26 19
  20888229.214     -719303.233 7   -532164.329 9
  20350108.284      -31920.353 7    -20585.964 9
  21269821.792    -2046165.791 7  -1515466.115 9
  24076523.784    -1474209.757 4  -1034126.838 5
  23183929.448    -1944044.762 6  -1365015.401 5
  22053241.073      789318.687 6    587957.304 7
 94  2 17  0 12 29.9990000  0  6  2 27  7 15 26 19
  20882112.222     -751449.834 7   -557213.614 9
  20350666.425      -29014.428 7    -18321.619 9
  21252100.386    -2139278.190 7  -1588021.180 9
  24063935.847    -1540355.142 3  -1085668.654 5
  23167137.331    -2032285.239 5  -1433774.159 5
  22060985.229      830002.318 6    619658.810 7
 94  2 17  0 12 59.9990000  0  6  2 27  7 15 26 19
  20876034.745     -783386.780 7   -582099.517 9
  20351300.222      -25672.198 7    -15717.271 9
  21234453.558    -2232014.438 7  -1660283.126 9
  24051422.159    -1606114.113 5  -1136909.329 4
  23150421.128    -2120129.575 6  -1502224.221 5
  22068778.933      870963.752 6    651576.779 7
 94  2 17  0 13 29.9990000  0  6  2 27  7 15 26 19
  20869997.394     -815109.214 7   -606818.265 9
  20352018.901      -21906.914 7    -12783.287 9
  21216884.308    -2324347.779 7  -1732231.135 9
  24038980.081    -1671480.730 4  -1187844.263 5
  23133781.987    -2207584.035 6  -1570370.518 6
  22076627.948      912212.536 6    683718.669 6
 94  2 17  0 13 59.9990000  0  6  2 27  7 15 26 19
  20864002.964     -846623.171 7   -631374.572 9
  20352806.519      -17738.534 7     -9535.202 9
  21199396.097    -2416249.963 7  -1803843.181 9
  24026617.589    -1736453.095 4  -1238472.041 5
  23117208.659    -2294656.051 6  -1638218.791 5
  22084533.261      953739.399 6    716077.240 7
 94  2 17  0 14 29.9990000  0  6  2 27  7 15 26 19
  20858043.933     -877930.860 7   -655770.146 9
  20353678.628      -13162.246 7     -5969.260 9
  21181996.151    -2507697.967 7  -1875101.305 9
  24014331.417    -1801025.964 4  -1288788.413 5
  23100715.409    -2381333.029 6  -1705759.243 5
  22092485.409      995539.813 6    748648.943 7
 94  2 17  0 14 59.9990000  0  6  2 27  7 15 26 19
  20852124.073     -909032.428 7   -680005.113 9
  20354630.909       -8167.918 7     -2077.575 9
  21164677.792    -2598688.730 7  -1946003.151 9
  24002105.339    -1865197.687 3  -1338792.300 5
  23084304.425    -2467588.719 6  -1772971.421 5
  22100491.628     1037606.103 6    781427.843 7
 94  2 17  0 15 29.9990000  0  6  2 27  7 15 26 19
  20846243.081     -939931.925 7   -704082.620 9
  20355655.854       -2768.729 7      2129.593 9
  21147449.276    -2689222.215 7  -2016548.666 9
  23989984.331    -1928967.912 5  -1388483.328 5
  23067969.175    -2553411.311 6  -1839846.128 5
  22108545.683     1079947.400 6    814421.032 7
 94  2 17  0 15 59.9990000  0  6  2 27  7 15 26 19
  20840402.042     -970637.012 7   -728008.630 9
  20356764.839        3054.498 7      6667.176 9
  21130306.026    -2779320.747 7  -2086755.260 9
  23977933.558    -1992330.323 5  -1437856.525 5
  23051724.745    -2638784.348 6  -1906370.521 5
  22116660.683     1122569.241 6    847632.819 7
 94  2 17  0 16 29.9990000  0  6  2 27  7 15 26 19
  20834594.933    -1001149.297 7   -751784.428 9
  20357956.800        9312.829 7     11543.808 9
  21113237.667    -2869006.462 7  -2156640.167 9
  23965944.073    -2055284.099 3  -1486911.332 5
  23035565.409    -2723700.189 6  -1972538.673 5
  22124824.675     1165472.702 6    881064.046 7
 94  2 17  0 16 59.9990000  0  6  2 27  7 15 26 19
  20828824.292    -1031475.801 7   -775415.456 9
  20359227.808       15983.647 7     16741.852 9
  21096252.308    -2958284.253 7  -2226207.226 9
  23954049.167    -2117828.288 5  -1535646.995 5
  23019488.339    -2808167.700 5  -2038357.455 5
  22133041.448     1208664.023 6    914719.601 6
 94  2 17  0 17 29.9990000  0  6  2 27  7 15 26 19
  20823089.667    -1061621.707 7   -798905.750 9
  20360568.854       23040.806 7     22240.957 9
  21079337.792    -3047157.323 7  -2295458.911 9
  23942219.628    -2179965.390 5  -1584065.414 5
  23003498.230    -2892201.660 6  -2103838.393 5
  22141317.214     1252149.154 6    948604.074 7
 94  2 17  0 17 59.9990000  0  6  2 27  7 15 26 19
  20817387.081    -1091578.682 7   -822248.846 9
  20361983.761       30485.598 7     28042.099 9
  21062505.292    -3135619.339 7  -2364390.297 9
  23930475.456    -2241685.494 5  -1632158.937 5
  22987593.050    -2975805.570 6  -2168984.264 5
  22149647.222     1295920.015 6    982711.207 7
 94  2 17  0 18 29.9990000  0  6  2 27  7 15 26 19
  20811719.206    -1121351.005 7   -845448.046 9
  20363475.823       38302.992 7     34133.586 9
  21045747.065    -3223657.345 7  -2432991.286 9
  23918801.409    -2302989.379 4  -1679928.120 5
  22971761.792    -3058983.292 5  -2233798.044 5
  22158026.409     1339959.717 6   1017027.821 6
 94  2 17  0 18 59.9990000  0  6  2 27  7 15 26 19
  20806093.151    -1150937.298 7   -868502.289 9
  20365028.472       46479.807 7     40505.140 9
  21029078.542    -3311270.850 7  -2501261.493 9
  23907223.433    -2363876.993 5  -1727372.956 5
  22956019.120    -3141739.078 6  -2298283.018 5
  22166458.448     1384267.473 6   1051553.324 6
 94  2 17  0 19 29.9990000  0  6  2 27  7 15 26 19
  20800495.612    -1180340.706 7   -891414.030 9
  20366660.472       55050.913 7     47183.933 9
  21012489.206    -3398456.712 7  -2569198.469 9
  23895711.737    -2424342.300 5  -1774488.716 5
  22940347.612    -3224066.282 5  -2362434.050 5
  22174939.870     1428842.346 6   1086286.939 7
 94  2 17  0 19 59.9990000  0  6  2 27  7 15 26 19
  20794935.136    -1209569.071 7   -914189.372 9
  20368370.894       64031.654 7     54181.918 9
  20995977.659    -3485211.461 7  -2636799.525 9
  23884286.956    -2484388.466 4  -1821277.840 5
  22924763.472    -3305961.248 6  -2426248.257 5
  22183471.847     1473668.641 6   1121216.483 6
 94  2 17  0 20 29.9990000  0  6  2 27  7 15 26 19
  20789406.878    -1238629.525 7   -936833.870 9
  20370160.644       73434.072 7     61508.493 9
  20979551.378    -3571527.188 7  -2704058.467 9
  23872940.878    -2544016.054 5  -1867740.887 5
  22909264.620    -3387414.193 6  -2489718.056 5
  22192049.440     1518759.609 6   1156352.272 6
 94  2 17  0 20 59.9990000  0  6  2 27  7 15 26 19
  20783909.128    -1267505.644 7   -959334.724 9
  20372033.675       83285.478 7     69184.897 9
  20963215.237    -3657385.873 7  -2770961.293 9
  23861676.526    -2603210.983 5  -1913866.742 5
  22893850.355    -3468416.707 6  -2552836.854 5
  22200688.276     1564136.011 6   1191710.485 6
 94  2 17  0 21 29.9990000  0  6  2 27  7 15 26 19
  20778449.855    -1296202.576 7   -981695.948 9
  20373992.979       93587.974 7     77212.823 9
  20946964.112    -3742779.685 7  -2837501.878 9
  23850490.683    -2661976.577 5  -1959658.017 5
  22878521.745    -3548981.310 6  -2615614.424 5
  22209374.854     1609795.032 6   1227288.915 6
 94  2 17  0 21 59.9990000  0  6  2 27  7 15 26 19
  20773024.526    -1324697.655 7  -1003899.880 9
  20376039.925      104329.548 7     85582.875 9
  20930801.409    -3827707.739 7  -2903679.516 9
  23839391.698    -2720304.636 5  -2005108.385 5
  22863273.058    -3629100.828 6  -2678045.150 5
  22218118.253     1655745.038 6   1263094.074 6
 94  2 17  0 22 29.9990000  0  6  2 27  7 15 26 19
  20767638.862    -1352999.978 7  -1025953.615 9
  20378164.753      115497.380 7     94285.085 9
  20914727.292    -3912190.457 7  -2969510.159 9
  23828375.995    -2778197.350 5  -2050219.546 5
  22848108.737    -3708790.914 6  -2740141.274 6
  22226917.425     1701984.682 6   1299124.936 6
 94  2 17  0 22 59.9990000  0  6  2 27  7 15 26 19
  20762293.011    -1381106.358 7  -1047854.659 9
  20380366.573      127077.938 7    103308.888 9
  20898732.589    -3996242.678 7  -3035005.339 9
  23817447.480    -2835656.567 5  -2094992.888 5
  22833021.714    -3788062.988 6  -2801911.670 5
  22235772.894     1748504.713 6   1335374.261 6
 94  2 17  0 23 29.9990000  0  6  2 27  7 15 26 19
  20756980.495    -1409013.019 7  -1069600.082 9
  20382645.894      139065.223 7    112649.624 9
  20882819.901    -4079865.381 7  -3100165.836 9
  23806596.253    -2892675.182 5  -2139422.912 5
  22818015.472    -3866906.535 6  -2863348.149 6
  22244675.175     1795307.256 6   1371843.739 6
 94  2 17  0 23 59.9990000  0  6  2 27  7 15 26 19
  20751712.292    -1436722.784 7  -1091192.076 9
  20385003.636      151451.655 7    122301.381 9
  20866986.886    -4163069.224 7  -3164999.942 9
  23795831.573    -2949250.129 5  -2183507.182 5
  22803099.800    -3945302.321 6  -2924435.700 6
  22253635.089     1842393.511 6   1408534.303 6
 94  2 17  0 24 29.9990000  0  6  2 27  7 15 26 19
  20746468.722    -1464257.718 7  -1112647.850 9
  20387435.979      164236.077 7    132263.268 9
  20851232.214    -4245850.634 7  -3229504.899 9
  23785142.495    -3005385.711 5  -2227249.172 5
  22788268.737    -4023252.194 6  -2985175.778 5
  22262648.659     1889753.923 6   1445438.486 6
 94  2 17  0 24 59.9990000  0  6  2 27  7 15 26 19
  20741259.979    -1491625.018 7  -1133972.978 9
  20389948.284      177423.491 7    142539.156 9
  20835564.933    -4328189.362 7  -3293664.892 9
  23774544.940    -3061082.309 5  -2270648.980 5
  22773522.722    -4100746.455 6  -3045560.863 5
  22271714.284     1937379.313 6   1482549.164 6
 94  2 17  0 25 29.9990000  0  6  2 27  7 15 26 19
  20736084.909    -1518830.972 7  -1155172.403 9
  20392533.136      191015.427 7    153130.272 9
  20819978.917    -4410084.726 7  -3357479.414 9
  23764037.534    -3116335.863 5  -2313703.618 5
  22758861.917    -4177774.332 6  -3105582.507 5
  22280825.628     1985267.434 6   1519864.543 6
 94  2 17  0 25 59.9990000  0  6  2 27  7 15 26 19
  20730934.401    -1545881.479 7  -1176250.694 9
  20395199.620      205027.813 7    164049.015 9
  20804479.839    -4491529.904 7  -3420943.133 9
  23753601.604    -3171138.713 5  -2356407.063 5
  22744299.003    -4254328.977 6  -3165235.428 6
  22289984.761     2033418.315 6   1557384.699 6
 94  2 17  0 26 29.9990000  0  6  2 27  7 15 26 19
  20725817.511    -1572779.532 7  -1197210.203 9
  20397951.167      219474.947 7    175306.510 9
  20789069.253    -4572519.679 7  -3484052.004 9
  23743260.729    -3225488.808 5  -2398757.712 4
  22729817.245    -4330415.038 6  -3224523.198 6
  22299198.034     2081820.413 6   1595100.599 6
 94  2 17  0 26 59.9990000  0  6  2 27  7 15 26 19
  20720731.417    -1599511.970 7  -1218040.666 9
  20400781.628      234349.544 7    186897.100 9
  20773745.948    -4653055.646 7  -3546807.259 9
  23733007.956    -3279386.546 5  -2440755.831 5
  22715426.378    -4406026.076 6  -3283440.837 5
  22308456.198     2130472.927 6   1633011.633 6
 94  2 17  0 27 29.9990000  0  6  2 27  7 15 26 19
  20715677.269    -1626068.550 7  -1238734.085 9
  20403691.198      249645.723 7    198816.190 9
  20758506.269    -4733142.140 7  -3609212.268 9
  23722834.480    -3332831.356 5  -2482401.057 5
  22701128.159    -4481162.127 6  -3341988.351 6
  22317764.276     2179381.464 6   1671122.161 6
 94  2 17  0 27 59.9990000  0  6  2 27  7 15 26 19
  20710659.823    -1652449.600 7  -1259290.726 9
  20406682.776      265372.020 7    211070.446 9
  20743352.628    -4812762.252 7  -3671253.872 9
  23712751.261    -3385817.444 5  -2523688.858 5
  22686925.120    -4555822.021 6  -3400164.858 6
  22327122.433     2228550.714 6   1709435.828 6
 94  2 17  0 28 29.9990000  0  6  2 27  7 15 26 19
  20705674.565    -1678629.075 7  -1279690.296 9
  20409759.565      281523.757 7    223656.204 9
  20728296.698    -4891899.918 7  -3732919.534 9
  23702754.800    -3438338.041 5  -2564613.881 5
  22672805.604    -4630002.045 6  -3457967.419 6
  22336529.315     2278001.038 6   1747968.508 6
 94  2 17  0 28 59.9990000  0  6  2 27  7 15 26 19
  20700731.550    -1704603.794 7  -1299930.322 9
  20412905.964      298082.776 7    236559.332 9
  20713326.495    -4970550.216 7  -3794205.429 9
  23692851.058    -3490396.133 5  -2605178.573 5
  22658781.597    -4703711.253 6  -3515403.095 6
  22345994.987     2327735.591 6   1786722.701 6
 94  2 17  0 29 29.9990000  0  6  2 27  7 15 26 19
  20695826.003    -1730389.266 7  -1320022.869 9
  20416139.964      315054.754 7    249784.252 9
  20698450.683    -5048721.881 7  -3855118.370 9
  23683034.276    -3541989.655 5  -2645381.247 5
  22644842.042    -4776959.600 6  -3572479.685 6
  22355513.597     2377753.915 6   1825697.978 6
 94  2 17  0 29 59.9990000  0  6  2 27  7 15 26 19
  20690954.355    -1755984.240 7  -1339966.984 9
  20419446.722      332446.729 7    263336.427 9
  20683667.214    -5126426.775 7  -3915667.589 9
  23673299.487    -3593117.322 5  -2685220.895 5
  22630990.128    -4849746.187 6  -3629196.431 6
  22365085.550     2428053.533 6   1864892.454 6
 94  2 17  0 30 29.9990000  0  6  2 27  7 15 26 19
  20686121.089    -1781386.290 7  -1359760.774 9
  20422835.230      350251.212 7    277210.066 9
  20668964.269    -5203672.653 7  -3975859.142 9
  23663663.229    -3643782.305 5  -2724700.058 5
  22617227.190    -4922074.158 6  -3685555.840 6
  22374705.175     2478620.164 6   1904294.995 6
 94  2 17  0 30 59.9990000  0  6  2 27  7 15 26 19
  20681320.964    -1806610.535 7  -1379416.016 9
  20426305.964      368480.353 7    291414.581 8
  20654353.354    -5280454.463 7  -4035689.080 9
  23654113.089    -3693972.333 5  -2763809.136 5
  22603553.800    -4993930.844 6  -3741547.997 6
  22384378.862     2529444.755 6   1943898.539 6
 94  2 17  0 31 29.9990000  0  7  2 27  7 15 26 19 13
  20676551.542    -1831669.284 7  -1398942.300 9
  20429856.909      387140.989 7    305955.339 9
  20639828.792    -5356781.335 7  -4095164.515 9
  23644651.097    -3743689.423 5  -2802549.679 5
  22589966.292    -5065317.342 6  -3797173.791 6
  22394093.433     2580519.207 6   1983696.785 6
  24469564.558          -0.59213
 94  2 17  0 31 59.9990000  0  7  2 27  7 15 26 19 13
  20671820.097    -1856541.660 7  -1418323.359 9
  20433485.808      406228.192 7    320828.488 8
  20625395.987    -5432639.163 7  -4154274.462 9
  23635279.722    -3792927.342 5  -2840916.849 5
  22576473.792    -5136237.213 6  -3852435.998 6
  22403866.128     2631846.543 6   2023692.079 6
  24442121.128     -144208.814 2
 94  2 17  0 32 29.9990000  0  7  2 27  7 15 26 19 13
  20667117.815    -1881240.799 7  -1437569.427 9
  20437200.011      425723.731 7    336019.825 9
  20611046.800    -5508021.120 7  -4213013.606 9
  23625998.894    -3841686.258 5  -2878910.771 5
  22563064.979    -5206694.641 6  -3907337.825 6
  22413681.511     2683433.545 6   2063889.712 6
  24414676.253     -288377.357 3        -0.14611
 94  2 17  0 32 59.9990000  0  7  2 27  7 15 26 19 13
  20662452.714    -1905762.660 7  -1456677.355 9
  20440982.917      445624.758 7    351527.111 8
  20596791.987    -5582946.431 7  -4271396.906 9
  23616816.120    -3889967.335 5  -2916532.386 5
  22549746.214    -5276691.785 6  -3961881.007 6
  22423550.315     2735287.399 6   2104295.282 6
  24387239.901     -432505.639 3   -112307.543 1
 94  2 17  0 33 29.9990000  0  7  2 27  7 15 26 19 13
  20657823.433    -1930086.599 7  -1475631.059 9
  20444850.284      465932.902 7    367351.649 8
  20582618.558    -5657425.792 7  -4329432.747 9
  23607721.636    -3937766.949 5  -2953778.769 5
  22536517.550    -5346214.643 6  -4016054.639 6
  22433466.581     2787419.701 6   2144917.830 6
  24359825.714     -576589.240 3   -224580.095 1
 94  2 17  0 33 59.9990000  0  7  2 27  7 15 26 19 13
  20653230.425    -1954226.958 7  -1494441.724 9
  20448789.792      486641.476 7    383488.207 9
  20568529.472    -5731465.562 7  -4387126.023 9
  23598715.433    -3985088.141 5  -2990652.366 5
  22523377.120    -5415251.076 6  -4069849.211 6
  22443444.409     2839830.795 6   2185757.596 6
  24332427.917     -720630.030 3
 94  2 17  0 34 29.9990000  0  7  2 27  7 15 26 19 13
  20648665.862    -1978214.613 7  -1513133.394 9
  20452807.339      507757.399 7    399942.172 8
  20554524.495    -5805060.625 7  -4444472.786 9
  23589798.456    -4031930.050 5  -3027152.497 5
  22510335.128    -5483776.215 6  -4123245.384 6
  22453466.300     2892501.293 6   2226799.505 6
  24305016.175     -864625.635 4
 94  2 17  0 34 59.9990000  0  7  2 27  7 15 26 19 13
  20644131.284    -2002046.194 7  -1531703.441 9
  20456907.487      529299.505 7    416728.224 8
  20540609.136    -5878189.439 7  -4501456.228 9
  23580979.159    -4078285.776 5  -3063273.784 5
  22497401.979    -5551771.556 6  -4176228.723 6
  22463538.815     2945413.489 6   2268029.733 6
  24277629.011    -1008568.072 3
 94  2 17  0 35 29.9990000  0  7  2 27  7 15 26 19 13
  20639622.308    -2025740.139 7  -1550166.244 9
  20461085.901      551265.819 7    433844.840 8
  20526785.714    -5950826.235 7  -4558056.288 9
  23572254.511    -4124154.342 5  -3099015.465 5
  22484559.894    -5619244.752 6  -4228805.217 6
  22473648.144     2998563.905 6   2309445.591 6
  24250248.894    -1152455.146 3        -0.23711
 94  2 17  0 35 59.9990000  0  7  2 27  7 15 26 19 13
  20635140.175    -2049294.907 7  -1568520.589 9
  20465350.565      573666.967 7    451300.278 9
  20513064.940    -6022942.757 7  -4614250.938 9
  23563617.409    -4169526.214 5  -3134370.093 4
  22471819.636    -5686207.479 6  -4280983.903 6
  22483803.503     3051957.463 5   2351050.917 6
  24222881.831    -1296275.734 4   -112067.915 1
 94  2 17  0 36 29.9990000  0  7  2 27  7 15 26 19 13
  20630687.729    -2072690.274 7  -1586750.722 9
  20469694.370      596495.994 7    469089.134 8
  20499438.464    -6094534.227 7  -4670036.456 9
  23555078.550    -4214405.063 5  -3169340.526 5
  22459167.487    -5752686.457 6  -4332785.666 6
  22494014.831     3105585.765 6   2392839.188 6
  24195526.909    -1440032.218 4   -224085.577 1
 94  2 17  0 36 59.9990000  0  7  2 27  7 15 26 19 13
  20626270.925    -2095902.065 7  -1604837.816 9
  20474121.206      619755.750 7    487213.614 8
  20485912.878    -6165615.305 7  -4725424.258 9
  23546630.401    -4258790.344 5  -3203926.381 5
  22446608.315    -5818697.640 6  -4384222.902 6
  22504269.776     3159482.928 6   2434836.929 6
  24168187.058    -1583722.968 4
 94  2 17  0 37 29.9990000  0  7  2 27  7 15 26 19 13
  20621890.112    -2118916.771 7  -1622771.330 9
  20478627.128      643441.566 7    505670.091 9
  20472480.839    -6236215.328 7  -4780437.216 9
  23538275.651    -4302683.511 5  -3238128.770 5
  22434132.284    -5884255.001 6  -4435306.525 6
  22514585.081     3213667.400 6   2477058.547 6
  24140850.659    -1727347.999 4
 94  2 17  0 37 59.9990000  0  7  2 27  7 15 26 19 13
  20617549.870    -2141725.896 7  -1640544.658 9
  20483216.354      667567.857 7    524469.795 8
  20459133.355    -6306342.479 7  -4835081.720 9
  23530016.948    -4346083.065 5  -3271946.512 4
  22421749.706    -5949331.907 6  -4486015.752 6
  22524949.964     3268140.113 6   2519504.772 6
  24113521.737    -1870904.613 3
 94  2 17  0 38 29.9990000  0  7  2 27  7 15 26 19 13
  20613245.800    -2164335.957 7  -1658162.847 9
  20487892.175      692127.846 7    543607.446 8
  20445875.276    -6376009.587 7  -4889367.722 9
  23521855.854    -4388990.404 5  -3305380.746 5
  22409461.315    -6013903.350 6  -4536331.122 6
  22535370.589     3322909.893 6   2562182.471 6
  24086225.315    -2014392.511 3        -0.47411
 94  2 17  0 38 59.9990000  0  7  2 27  7 15 26 19 13
  20608980.347    -2186763.379 7  -1675638.727 9
  20492647.089      717113.455 7    563076.753 8
  20432705.261    -6445232.223 7  -4943307.402 9
  23513780.175    -4431407.603 6  -3338433.029 4
  22397270.698    -6077960.397 6  -4586245.658 6
  22545848.886     3377970.559 6   2605086.857 6
  24058937.456    -2157812.415 3   -111755.968 1
 94  2 17  0 39 29.9990000  0  7  2 27  7 15 26 19 13
  20604746.362    -2209012.920 7  -1692976.001 9
  20497479.565      742514.021 7    582869.385 8
  20419616.831    -6513992.694 7  -4996886.945 9
  23505806.308    -4473325.415 5  -3371096.164 5
  22385176.144    -6141499.808 6  -4635756.843 6
  22556375.409     3433299.238 6   2648200.075 6
  24031659.987    -2301153.558 3   -223450.137 2
 94  2 17  0 39 59.9990000  0  7  2 27  7 15 26 19 13
  20600540.823    -2231104.865 7  -1710190.478 9
  20502390.589      768313.427 7    602972.820 8
  20406627.362    -6582270.875 7  -5050090.678 9
  23497923.245    -4514740.169 5  -3403367.356 5
  22373184.581    -6204521.560 6  -4684864.664 6
  22566949.058     3488875.481 6   2691506.215 6
  24004399.870    -2444410.649 3   -335078.790 1
 94  2 17  0 40 29.9990000  0  7  2 27  7 15 26 19 13
  20596369.667    -2253034.602 7  -1727278.564 9
  20507370.753      794492.868 7    623372.378 8
  20393723.097    -6650072.676 7  -5102923.215 9
  23490137.440    -4555650.549 5  -3435245.501 4
  22361289.472    -6267046.653 6  -4733585.463 6
  22577574.409     3544684.588 6   2734993.777 6
  23977147.886    -2587580.992 3   -446639.917 1
 94  2 17  0 41 29.9980000  0  7  2 27  7 15 26 19 13
  20588115.498    -2296409.449 7  -1761077.101 9
  20517553.764      847993.272 7    665060.998 8
  20368191.147    -6784237.478 7  -5207467.138 9
  23474854.521    -4635961.595 5  -3497825.443 4
  22337765.381    -6390652.569 6  -4829901.686 6
  22598937.217     3656936.869 6   2822463.016 5
  23922712.693    -2873655.021 3   -669554.386 2
 94  2 17  0 41 59.9980000  0  7  2 27  7 15 26 19 13
  20584031.857    -2317860.322 7  -1777792.051 9
  20522757.678      875345.024 7    686374.052 8
  20355563.693    -6850601.681 7  -5259179.442 9
  23467355.959    -4675363.512 5  -3528528.173 5
  22326145.779    -6451713.892 6  -4877481.900 6
  22609680.162     3713410.581 6   2866468.464 5
  23895519.506    -3016560.391 3   -780909.018 1
 94  2 17  0 42 29.9980000  0  7  2 27  7 15 26 19 13
  20579982.920    -2339144.242 7  -1794376.904 9
  20528042.006      903121.181 7    708017.821 8
  20343029.357    -6916487.333 7  -5310518.881 9
  23459958.670    -4714257.349 5  -3558835.013 5
  22314623.818    -6512262.534 6  -4924662.612 6
  22620475.428     3770152.083 5   2910682.601 5
  23868345.115    -3159368.729 4   -892188.026 1
 94  2 17  0 42 59.9980000  0  7  2 27  7 15 26 19 13
  20575965.271    -2360262.489 7  -1810832.666 9
  20533409.553      931332.316 7    730000.508 8
  20330583.709    -6981876.778 7  -5361471.650 9
  23452652.889    -4752630.658 5  -3588736.236 5
  22303202.975    -6572283.333 6  -4971432.026 6
  22631330.334     3827185.442 6   2955124.150 5
  23841188.764    -3302066.182 4  -1003380.639 1
 94  2 17  0 43 29.9980000  0  7  2 27  7 15 26 19 13
  20571975.334    -2381225.978 7  -1827167.827 9
  20538862.107      959977.570 7    752321.489 8
  20318234.357    -7046774.129 7  -5412040.967 9
  23445447.897    -4790488.435 5  -3618235.765 5
  22291878.920    -6631783.838 6  -5017796.007 6
  22642241.256     3884499.858 6   2999784.704 5
  23814060.131    -3444656.406 4  -1114489.701 2
 94  2 17  0 43 59.9980000  0  7  2 27  7 15 26 19 13
  20568015.451    -2402033.769 7  -1843381.667 9
  20544393.053      989042.859 7    774969.765 8
  20305977.506    -7111179.331 7  -5462226.798 9
  23438346.631    -4827832.557 5  -3647335.021 5
  22280656.615    -6690770.221 6  -5063759.378 6
  22653194.889     3942074.999 6   3044648.415 6
  23786948.529    -3587139.511 5  -1225515.223 2
 94  2 17  0 44 29.9980000  0  7  2 27  7 15 26 19 13
  20564089.467    -2422671.443 7  -1859462.967 9
  20550005.397     1018540.352 7    797954.800 8
  20293817.365    -7175082.500 7  -5512021.432 9
  23431336.514    -4864649.672 5  -3676023.607 4
  22269529.264    -6749235.860 6  -5109316.988 6
  22664195.061     3999894.980 5   3089702.927 5
  23759853.389    -3729500.195 5  -1336445.364 1
 94  2 17  0 44 59.9980000  0  7  2 27  7 15 26 19 13
  20560193.693    -2443137.197 7  -1875410.303 9
  20555702.490     1048472.493 7    821278.557 8
  20281748.811    -7238499.905 7  -5561437.552 9
  23424428.600    -4900947.585 5  -3704307.659 4
  22258503.264    -6807191.475 6  -5154477.188 6
  22675233.303     4057926.949 5   3134922.625 5
  23732783.725    -3871744.687 5  -1447284.958 1
 94  2 17  0 45 29.9980000  0  7  2 27  7 15 26 19 13
  20556331.420    -2463431.366 7  -1891223.929 9
  20561484.201     1078848.678 7    844948.294 8
  20269773.990    -7301430.473 7  -5610474.313 9
  23417621.490    -4936727.174 6  -3732187.794 5
  22247568.623    -6864641.008 6  -5199243.003 6
  22686317.365     4116169.908 5   3180306.706 5
  23705740.771    -4013872.166 5  -1558033.384 1
 94  2 17  0 45 59.9980000  0  7  2 27  7 15 26 19 13
  20552503.014    -2483549.162 7  -1906900.119 9
  20567347.506     1109667.927 7    868963.288 8
  20257889.482    -7363877.406 7  -5659134.213 9
  23410908.100    -4971988.514 5  -3759664.131 5
  22236731.896    -6921585.725 6  -5243615.486 6
  22697449.311     4174639.477 5   3225867.434 6
  23678717.396    -4155880.600 5  -1668689.060 2
 94  2 17  0 46 29.9980000  0  7  2 27  7 15 26 19 13
  20548708.514    -2503486.885 7  -1922435.990 9
  20573296.850     1140936.646 7    893328.516 8
  20246096.561    -7425843.276 7  -5707419.271 9
  23404302.115    -5006727.285 5  -3786733.244 4
  22225995.803    -6978021.658 6  -5287591.513 6
  22708622.436     4233351.434 5   3271616.960 5
  23651710.131    -4297763.710 5  -1779247.067 1
 94  2 17  0 46 59.9980000  0  7  2 27  7 15 26 19 13
  20544949.022    -2523244.475 7  -1937831.499 9
  20579330.436     1172640.200 7    918032.581 8
  20234404.561    -7487312.527 7  -5755317.338 9
  23397788.100    -5040939.257 5  -3813391.835 4
  22215349.201    -7033946.734 6  -5331169.472 6
  22719849.576     4292327.227 5   3317572.100 5
  23624737.678    -4439516.252 5  -1889703.390 1
 94  2 17  0 47 29.9980000  0  7  2 27  7 15 26 19 13
  20541223.834    -2542832.191 7  -1953094.631 9
  20585441.178     1204746.581 7    943050.522 8
  20222801.818    -7548273.772 7  -5802819.575 9
  23391380.139    -5074626.362 5  -3839641.455 5
  22204806.811    -7089362.467 6  -5374350.537 6
  22731114.436     4351564.027 5   3363730.632 6
  23597793.959    -4581137.884 5  -2000057.711 2
 94  2 17  0 47 59.9980000  0  7  2 27  7 15 26 19 13
  20537530.678    -2562247.149 7  -1968223.151 9
  20591622.686     1237233.816 7    968365.252 8
  20211294.951    -7608736.763 7  -5849933.543 9
  23385067.982    -5107791.622 5  -3865484.428 5
  22194354.646    -7144262.474 6  -5417129.743 6
  22742439.076     4411058.483 5   3410089.924 5
  23570868.670    -4722629.836 5  -2110310.907 2
 94  2 17  0 48 29.9980000  0  7  2 27  7 15 26 19 13
  20533864.295    -2581496.643 7  -1983222.728 9
  20597875.209     1270090.530 7    993967.874 8
  20199887.022    -7668688.837 7  -5896649.387 9
  23378856.303    -5140430.058 5  -3890916.917 4
  22184009.123    -7198639.055 6  -5459501.108 6
  22753806.225     4470808.599 5   3456648.444 5
  23543969.568    -4863985.285 5  -2220457.834 2
 94  2 17  0 48 59.9980000  0  7  2 27  7 15 26 19 13
  20530229.514    -2600596.118 7  -1998105.415 9
  20604196.772     1303307.612 7   1019851.312 8
  20188575.772    -7728120.567 7  -5942959.787 9
  23372742.303    -5172549.445 5  -3915944.949 5
  22173762.092    -7252506.216 6  -5501475.513 6
  22765226.787     4530799.566 5   3503394.605 5
  23517092.068    -5005209.871 5  -2330502.821 2
 94  2 17  0 49 29.9980000  0  7  2 27  7 15 26 19 13
  20526622.607    -2619538.216 7  -2012865.474 9
  20610589.654     1336906.035 7   1046031.885 8
  20177366.779    -7787043.964 7  -5988874.074 9
  23366732.186    -5204147.361 5  -3940566.650 5
  22163606.631    -7305857.268 6  -5543047.754 6
  22776684.865     4591029.570 5   3550327.040 5
  23490240.576    -5146299.605 5  -2440442.719 1
 94  2 17  0 49 59.9980000  0  7  2 27  7 15 26 19 13
  20523050.232    -2638321.283 7  -2027501.609 9
  20617062.037     1370918.975 7   1072535.473 8
  20166248.225    -7845464.361 7  -6034396.417 9
  23360818.857    -5235216.389 5  -3964776.221 5
  22153554.717    -7358684.169 6  -5584211.565 6
  22788197.436     4651513.111 5   3597457.025 5
  23463422.850    -5287244.751 5  -2550269.997 1
 94  2 17  0 50 29.9980000  0  7  2 27  7 15 26 19 13
  20519504.428    -2656950.356 7  -2042017.751 9
  20623615.826     1405366.447 7   1099377.640 8
  20155227.443    -7903372.892 7  -6079519.900 9
  23355006.279    -5265752.590 5  -3988570.575 4
  22143602.537    -7410989.924 6  -5624969.276 6
  22799750.115     4712239.008 5   3644775.850 5
  23436631.396    -5428039.432 5  -2659980.028 2
 94  2 17  0 50 59.9980000  0  7  2 27  7 15 26 19 13
  20515996.740    -2675400.768 7  -2056394.674 9
  20630257.467     1440265.536 7   1126571.739 8
  20144304.123    -7960784.566 7  -6124256.229 9
  23349301.701    -5295748.377 5  -4011943.857 5
  22133746.037    -7462767.496 6  -5665315.417 6
  22811350.982     4773209.267 5   3692285.122 5
  23409868.920    -5568673.988 5  -2769565.245 1
 94  2 17  0 51 29.9980000  0  7  2 27  7 15 26 19 13
  20512518.045    -2693678.552 7  -2070637.080 9
  20636982.225     1475601.578 7   1154106.312 8
  20133465.084    -8017726.713 7  -6168626.684 9
  23343692.818    -5325214.047 5  -4034904.056 5
  22123995.654    -7514026.411 6  -5705257.431 6
  22823002.420     4834408.843 6   3739973.058 5
  23383132.350    -5709156.414 5  -2879031.924 2
 94  2 17  0 51 59.9980000  0  7  2 27  7 15 26 19 13
  20509071.272    -2711791.216 7  -2084750.822 9
  20643785.459     1511350.761 7   1181962.819 8
  20122720.529    -8074197.054 7  -6212629.506 9
  23338190.529    -5354150.711 5  -4057452.030 5
  22114338.725    -7564768.058 6  -5744796.354 6
  22834688.756     4895826.696 5   3787831.087 5
  23356432.592    -5849486.345 5  -2988379.802 1
 94  2 17  0 52 29.9980000  0  7  2 27  7 15 26 19 13
  20505654.107    -2729735.915 7  -2098733.683 9
  20650663.631     1547496.051 7   1210127.970 8
  20112066.115    -8130197.451 7  -6256266.139 9
  23332781.545    -5382561.119 5  -4079589.945 5
  22104776.600    -7614990.985 6  -5783931.076 6
  22846413.959     4957457.461 5   3835855.021 5
  23329761.506    -5989664.635 5  -3097609.462 1
 94  2 17  0 52 59.9980000  0  7  2 27  7 15 26 19 13
  20502272.459    -2747508.387 7  -2112582.342 9
  20657618.076     1584037.533 7   1238601.845 8
  20101498.498    -8185718.971 7  -6299529.631 9
  23327474.904    -5410435.906 5  -4101310.508 5
  22095325.670    -7664681.458 6  -5822650.914 6
  22858184.537     5019313.379 5   3884054.403 6
  23303108.287    -6129679.631 5  -3206711.849 2
 94  2 17  0 53 29.9980000  0  7  2 27  7 15 26 19 13
  20498919.021    -2765133.759 7  -2126316.380 9
  20664646.475     1620975.185 7   1267384.427 8
  20091026.826    -8240746.432 7  -6342408.141 9
  23322280.029    -5437775.789 5  -4122614.217 5
  22085974.287    -7713824.104 6  -5860943.886 6
  22869996.561     5081396.100 5   3932430.536 6
  23276493.404    -6269529.460 5  -3315685.586 2
 94  2 17  0 53 59.9980000  0  7  2 27  7 15 26 19 13
  20495594.834    -2782607.561 7  -2139932.308 9
  20671751.607     1658314.659 7   1296480.111 8
  20080648.631    -8295276.832 7  -6384899.321 9
  23317179.115    -5464576.666 6  -4143497.965 5
  22076728.857    -7762416.005 6  -5898807.677 6
  22881858.693     5143714.231 5   3980990.121 6
  23249919.053    -6409208.328 5  -3424526.070 2
 94  2 17  0 54 29.9980000  0  7  2 27  7 15 26 19 13
  20492297.217    -2799929.268 7  -2153429.722 9
  20678933.990     1696066.406 7   1325897.066 8
  20070370.271    -8349299.132 7  -6426994.587 9
  23312180.686    -5490836.701 5  -4163960.242 4
  22067585.045    -7810466.471 6  -5936249.571 6
  22893767.717     5206274.758 5   4029738.549 5
  23223374.256    -6548711.861 5  -3533229.910 1
 94  2 17  0 54 59.9980000  0  7  2 27  7 15 26 19 13
  20489031.545    -2817097.469 7  -2166807.530 9
  20686200.600     1734239.901 7   1355642.642 8
  20060187.607    -8402809.429 7  -6468690.896 9
  23307283.787    -5516555.673 5  -4184000.943 5
  22058542.623    -7857980.018 6  -5973273.082 6
  22905714.521     5269076.516 5   4078674.935 5
  23196857.225    -6688037.906 5  -3641795.470 2
 94  2 17  0 55 29.9980000  0  7  2 27  7 15 26 19 13
  20485792.561    -2834106.949 7  -2180061.658 9
  20693540.982     1772820.806 7   1385705.675 8
  20050099.053    -8455823.897 7  -6510000.833 9
  23302490.014    -5541745.960 5  -4203629.662 5
  22049601.365    -7904976.186 6  -6009893.448 6
  22917711.881     5332103.946 6   4127787.189 5
  23170373.053    -6827196.308 5  -3750230.373 2
 94  2 17  0 55 59.9980000  0  7  2 27  7 15 26 19 13
  20482589.928    -2850932.585 7  -2193172.518 9
  20700962.475     1811816.098 7   1416091.614 8
  20040107.506    -8508329.422 7  -6550914.206 9
  23297798.951    -5566397.640 5  -4222838.692 4
  22040750.373    -7951471.750 6  -6046123.746 6
  22929749.295     5395356.471 6   4177074.819 5
  23143931.139    -6966175.243 5  -3858525.458 2
 94  2 17  0 56 29.9980000  0  7  2 27  7 15 26 19 13
  20479422.482    -2867583.973 7  -2206147.624 9
  20708463.740     1851235.620 7   1446808.127 8
  20030217.068    -8560316.091 7  -6591423.270 9
  23293209.967    -5590502.411 5  -4241621.584 5
  22032000.482    -7997447.143 6  -6081948.688 6
  22941820.654     5458834.708 5   4226538.327 5
  23117522.717    -7104964.342 5  -3966672.573 2
 94  2 17  0 56 59.9980000  0  7  2 27  7 15 26 19 13
  20476284.287    -2884069.651 7  -2218993.591 9
  20716042.342     1891063.081 7   1477842.503 8
  20020418.342    -8611811.799 7  -6631549.750 9
  23288725.959    -5614065.701 5  -4259982.525 5
  22023351.404    -8042903.761 6  -6117369.399 6
  22953938.990     5522527.996 5   4276169.451 5
  23091142.904    -7243566.741 5  -4074674.239 3
 94  2 17  0 57 29.9980000  0  7  2 27  7 15 26 19 13
  20473180.490    -2900401.518 7  -2231719.712 9
  20723696.592     1931286.763 7   1509185.632 8
  20010708.068    -8662823.782 7  -6671299.322 9
  23284346.537    -5637086.644 5  -4277920.860 5
  22014799.693    -8087847.186 6  -6152390.208 6
  22966101.006     5586436.046 5   4325967.893 5
  23064808.490    -7381978.947 5  -4182527.756 2
 94  2 17  0 57 59.9980000  0  7  2 27  7 15 26 19 13
  20470097.787    -2916594.108 7  -2244337.296 9
  20731425.490     1971906.993 7   1540837.746 8
  20001093.373    -8713353.349 7  -6710672.972 9
  23280072.373    -5659563.278 6  -4295435.040 5
  22006346.717    -8132260.960 6  -6186998.306 6
  22978313.037     5650570.188 5   4375942.504 5
  23038502.381    -7520196.949 5  -4290229.941 2
 94  2 17  0 58 29.9980000  0  7  2 27  7 15 26 19 13
  20467040.490    -2932650.351 7  -2256848.643 9
  20739229.373     2012914.961 6   1572792.002 8
  19991569.303    -8763411.244 7  -6749679.088 9
  23275892.967    -5681497.799 5  -4312526.833 5
  21997998.896    -8176125.385 6  -6221178.339 6
  22990561.279     5714940.425 5   4426101.061 5
  23012238.818    -7658220.369 5  -4397780.473 3
 94  2 17  0 58 59.9980000  0  7  2 27  7 15 26 19 13
  20464015.420    -2948552.224 7  -2269239.704 9
  20747107.084     2054315.391 6   1605052.064 8
  19982132.920    -8812986.273 7  -6788308.948 9
  23271828.006    -5702887.279 6  -4329193.912 4
  21989758.006    -8219447.055 6  -6254935.445 6
  23002858.412     5779551.434 5   4476447.282 5
  22986003.998    -7796043.802 5  -4505175.184 4
 94  2 17  0 59 29.9980000  0  7  2 27  7 15 26 19 13
  20461020.342    -2964306.433 7  -2281515.705 9
  20755061.654     2096111.553 6   1637620.493 8
  19972795.732    -8862062.803 7  -6826550.360 9
  23267854.115    -5723739.243 5  -4345442.127 5
  21981614.084    -8262217.048 6  -6288262.662 6
  23015196.857     5844387.525 5   4526968.868 5
  22959818.482    -7933672.786 5  -4612418.412 2
 94  2 17  0 59 59.9980000  0  7  2 27  7 15 26 19 13
  20458053.647    -2979887.613 7  -2293656.872 9
  20763091.240     2138318.547 6   1670509.057 7
  19963554.897    -8910622.197 7  -6864388.807 9
  23263988.272    -5744048.729 5  -4361267.662 5
  21973585.186    -8304421.394 6  -6321149.117 6
  23027578.115     5909447.367 5   4577664.790 5
  22933668.545    -8071099.754 5  -4719504.217 3
 94  2 17  1  0 29.9980000  0  7  2 27  7 15 26 19 13
  20455123.100    -2995280.967 7  -2305651.692 9
  20771201.873     2180936.839 6   1703718.101 7
  19954416.553    -8958646.151 7  -6901810.029 9
  23260232.326    -5763808.322 5  -4376664.704 5
  21965660.256    -8346077.063 6  -6353608.045 6
  23039991.498     5974720.947 5   4628527.300 5
  22907559.490    -8208314.784 5  -4826424.879 4
 94  2 17  1  0 59.9980000  0  7  2 27  7 15 26 19 13
  20452229.342    -3010494.703 7  -2317506.537 9
  20779390.357     2223957.008 6   1737240.315 8
  19945378.131    -9006140.926 7  -6938818.914 9
  23256576.045    -5783024.828 5  -4391638.570 5
  21957832.443    -8387208.092 6  -6385658.155 6
  23052453.748     6040193.627 5   4679544.933 5
  22881489.748    -8345322.517 5  -4933184.014 3
 94  2 17  1  1 29.9980000  0  7  2 27  7 15 26 19 13
  20449367.553    -3025524.413 7  -2329217.985 9
  20787652.318     2267371.563 7   1771069.821 7
  19936434.654    -9053119.526 7  -6975425.574 9
  23253024.428    -5801696.469 5  -4406187.899 5
  21950107.889    -8427814.367 6  -6417299.387 6
  23064942.521     6105865.737 5   4730717.983 5
  22855459.740    -8482118.399 5  -5039778.070 4
 94  2 17  1  1 59.9980000  0  7  2 27  7 15 26 19 13
  20446541.115    -3040377.567 7  -2340791.847 9
  20795983.873     2311164.753 6   1805194.380 7
  19927596.404    -9099590.749 7  -7011636.887 9
  23249568.232    -5819822.408 5  -4420311.966 5
  21942474.365    -8467918.119 6  -6448549.027 6
  23077484.139     6171746.614 5   4782053.685 5
  22829460.834    -8618698.887 5  -5146204.323 4
 94  2 17  1  2 29.9980000  0  7  2 27  7 15 26 19 13
  20443745.686    -3055078.356 7  -2352247.003 9
  20804391.029     2355335.080 6   1839612.814 7
  19918845.826    -9145559.187 7  -7047456.409 9
  23246232.904    -5837394.894 5  -4434004.805 5
  21934936.225    -8507523.884 6  -6479410.623 6
  23090059.256     6237848.275 5   4833561.442 4
  22803514.248    -8755054.138 5  -5252455.047 4
 94  2 17  1  2 59.9980000  0  7  2 27  7 15 26 19 13
  20440975.131    -3069642.367 7  -2363595.562 9
  20812869.506     2399898.709 6   1874337.694 7
  19910189.592    -9191047.768 7  -7082902.026 9
  23242988.545    -5854416.782 5  -4447268.565 5
  21927497.037    -8546620.311 6  -6509875.340 6
  23102690.529     6304170.497 5   4885241.078 5
  22777611.881    -8891184.363 5  -5358530.442 4
 94  2 17  1  3 29.9980000  0  7  2 27  7 15 26 19 13
  20438225.248    -3084081.759 7  -2374847.016 9
  20821425.475     2444847.991 6   1909363.111 7
  19901623.951    -9236062.660 7  -7117978.533 9
  23239856.951    -5870891.947 5  -4460106.343 4
  21920150.146    -8585214.819 6  -6539948.954 6
  23115343.850     6370695.980 5   4937079.028 5
  22751752.178    -9027091.002 5  -5464431.606 4
 94  2 17  1  3 59.9980000  0  7  2 27  7 15 26 19 13
  20435500.428    -3098397.936 7  -2386002.459 9
  20830050.607     2490186.651 6   1944691.928 7
  19893151.998    -9280590.233 7  -7152675.313 9
  23236821.904    -5886813.564 5  -4472512.741 4
  21912908.686    -8623302.188 6  -6569627.394 6
  23128046.396     6437431.882 5   4989080.985 4
  22725935.475    -9162764.517 5  -5570151.112 3
 94  2 17  1  4 29.9980000  0  7  2 27  7 15 26 19 13
  20432803.389    -3112574.215 7  -2397048.891 9
  20838752.350     2535919.204 6   1980327.662 7
  19884766.881    -9324642.216 7  -7187001.504 9
  23233907.404    -5902185.890 5  -4484491.164 5
  21905761.256    -8660866.773 6  -6598898.462 6
  23140786.701     6504367.391 5   5041238.480 5
  22700158.068    -9298206.634 5  -5675690.320 4
 94  2 17  1  4 59.9980000  0  7  2 27  7 15 26 19 13
  20430141.686    -3126573.790 7  -2407957.641 9
  20847532.748     2582049.200 6   2016273.107 7
  19876475.068    -9368210.051 7  -7220950.435 9
  23231082.061    -5916998.482 5  -4496033.403 5
  21898716.084    -8697878.539 6  -6627738.777 6
  23153562.350     6571505.740 5   5093554.008 3
  22674430.584    -9433404.012 5  -5781038.806 3
 94  2 17  1  5 29.9980000  0  7  2 27  7 15 26 19 13
  20427511.912    -3140389.847 7  -2418723.383 9
  20856382.287     2628556.691 6   2052512.711 7
  19868281.764    -9411272.153 7  -7254505.301 9
  23228367.076    -5931255.791 5  -4507142.962 5
  21891778.561    -8734325.994 6  -6656139.362 6
  23166370.170     6638850.675 4   5146030.571 3
  22648752.678    -9568358.593 5  -5886198.125 4
 94  2 17  1  5 59.9980000  0  7  2 27  7 15 26 19 13
  20424914.826    -3154028.864 7
  20865307.107     2675446.072 7   2089049.869 7
  19860182.709    -9453833.056 7  -7287669.616 9
  23225755.803    -5944968.022 5
  21884954.732    -8770196.437 6  -6684090.344 6
  23179226.311     6706405.930 5   5198670.967 5
  22623107.576    -9703077.903 5  -5991174.096 4
 94  2 17  1  6 29.9980000  0  7  2 27  7 15 26 19 13
  20422353.615    -3167487.592 7  -2439838.464 9
  20874303.295     2722735.240 6   2125898.559 7
  19852182.342    -9495884.757 7  -7320437.142 9
  23223254.014    -5958127.191 5
  21878237.951    -8805474.165 6  -6711579.469 6
  23192128.842     6774172.200 5   5251475.815 5
  22597524.404    -9837551.399 5  -6095958.510 3
 94  2 17  1  6 59.9980000  0  7  2 27  7 15 26 19 13
  20419823.357    -3180776.433 7  -2450193.394 9
  20883380.404     2770434.593 6   2163066.883 7
  19844278.381    -9537411.240 7  -7352795.416 9
  23220858.834    -5970724.274 5        -0.00115
  21871638.592    -8840167.158 6  -6738612.962 6
  23205062.412     6842157.913 5   5304451.654 4
  22571981.818    -9971767.289 5  -6200542.200 2
 94  2 17  1  7 29.9980000  0  7  2 27  7 15 26 19 13
  20417324.248    -3193922.285 7  -2460436.902 9
  20892535.326     2818535.171 6   2200547.845 7
  19836474.256    -9578426.717 7  -7384755.505 9
  23218561.537    -5982772.248 5     -9388.006 5
  21865138.771    -8874309.241 6  -6765217.172 6
  23218040.607     6910356.888 5   5357593.627 4
  22546487.732   -10105735.703 5  -6304933.076 4
 94  2 17  1  7 59.9980000  0  7  2 27  7 15 26 19 13
  20414847.529    -3206927.195 7  -2470570.577 9
  20901763.506     2867039.184 6   2238343.166 7
  19828763.311    -9618959.967 7  -7416339.838 9
  23216368.076    -5994271.847 5    -18348.679 5
  21858744.873    -8907925.284 6  -6791411.482 6
  23231053.428     6978759.612 4   5410894.435 4
  22521046.826   -10239455.313 6  -6409130.039 4
 94  2 17  1  8 29.9980000  0  7  2 27  7 15 26 19 13
  20412401.420    -3219783.504 7  -2480588.471 9
  20911067.811     2915931.070 6   2276440.728 7
  19821139.756    -9659012.662 7  -7447549.700 9
  23214294.342    -6005223.051 5    -26882.078 5
  21852444.467    -8941030.541 6  -6817207.761 6
  23244109.232     7047352.976 4   5464343.783 4
  22495645.123   -10372922.501 5  -6513130.327 4
 94  2 17  1  8 59.9980000  0  7  2 27  7 15 26 19 13
  20409990.670    -3232471.218 7  -2490475.009 9
  20920444.100     2965209.851 6   2314839.770 7
  19813610.256    -9698576.249 7  -7478378.451 9
  23212314.615    -6015618.094 5    -34982.049 5
  21846240.264    -8973626.683 6  -6842607.356 6
  23257197.342     7116152.460 3   5517953.743 3
  22470296.482   -10506126.636 6  -6616925.673 4
 94  2 17  1  9 29.9980000  0  7  2 27  7 15 26 19 13
  20407605.436    -3244992.153 7  -2500231.555 9
  20929895.209     3014867.343 6   2353533.901 7
  19806172.334    -9737653.511 7  -7508828.243 8
  23210440.232    -6025461.491 5    -42652.204 5
  21840134.514    -9005714.789 6  -6867611.071 6
  23270334.115     7185148.249 4   5571716.665 2
  22444998.334   -10639070.010 6  -6720517.802 4
 94  2 17  1  9 59.9980000  0  7  2 27  7 15 26 19 13
  20405259.092    -3257338.344 7  -2509851.945 9
  20939415.615     3064901.463 6   2392521.525 7
  19798833.600    -9776227.509 7  -7538885.883 8
  23208673.248    -6034749.954 5    -49889.959 5
  21834128.490    -9037283.388 6  -6892209.967 6
  23283504.209     7254327.203 5   5625622.297 2
  22419752.115   -10771746.238 6  -6823901.759 4
 94  2 17  1 10 29.9980000  0  7  2 27  7 15 26 19 13
  20402937.584    -3269522.456 7  -2519346.056 9
  20949008.561     3115302.522 6   2431795.056 7
  19791589.607    -9814289.958 7  -7568544.913 8
  23207007.287    -6043486.863 5    -56697.897 5
  21828217.818    -9068325.763 6  -6916398.830 6
  23296700.592     7323687.578 5   5679669.264 2
  22394555.998   -10904155.866 6  -6927077.979 4
 94  2 17  1 10 59.9980000  0  7  2 27  7 15 26 19 13
  20400648.232    -3281550.583 7  -2528718.602 9
  20958667.818     3166075.882 6   2471358.709 7
  19784445.498    -9851850.957 7  -7597813.199 8
  23205451.857    -6051673.059 5    -63076.722 5
  21822415.256    -9098840.194 6  -6940176.302 6
  23309933.842     7393238.687 5   5733864.886 2
  22369409.686   -11036297.022 6  -7030044.998 3
 94  2 17  1 11 29.9980000  0  7  2 27  7 15 26 19 13
  20398389.123    -3293429.607 7  -2537974.970 9
  20968401.295     3217219.935 6   2511211.211 7
  19777391.725    -9888911.847 7  -7626691.790 8
  23203990.826    -6059311.231 5    -69028.513 5
  21816707.365    -9128814.817 6  -6963533.170 6
  23323206.209     7462970.528 5   5788201.328 4
  22344316.146   -11168169.371 6  -7132802.555 5
 94  2 17  1 11 59.9980000  0  7  2 27  7 15 26 19 13
  20396160.045    -3305140.648 7  -2547100.444 9
  20978203.186     3268737.061 6   2551354.417 7
  19770432.545    -9925469.683 7  -7655178.389 8
  23202651.256    -6066394.795 5    -74548.134 5
  21811114.232    -9158231.446 6  -6986455.203 6
  23336509.771     7532903.283 5   5842694.320 4
  22319274.873   -11299763.469 6  -7235343.290 4
 94  2 17  1 12 29.9980000  0  7  2 27  7 15 26 19 13
  20393960.271    -3316691.091 7  -2556100.782 9
  20988079.912     3320623.632 6   2591785.500 7
  19763566.732    -9961542.800 7  -7683287.280 8
  23201410.264    -6072931.859 5    -79641.919 5
  21805618.623    -9187101.950 6  -7008951.684 6
  23349854.482     7603037.472 5   5897344.304 5
  22294283.842   -11431084.497 6  -7337671.249 4
 94  2 17  1 12 59.9980000  0  7  2 27  7 15 26 19 13
  20391794.209    -3328064.284 7  -2564962.997 9
  20998024.256     3372887.353 6   2632510.455 7
  19756801.506    -9997113.854 7  -7711004.968 8
  23200272.232    -6078917.340 5    -84305.915 5
  21800227.490    -9215426.560 6  -7031022.812 6
  23363234.803     7673370.396 5   5952149.170 5
  22269347.623   -11562124.282 6  -7439780.054 5
 94  2 17  1 13 29.9980000  0  7  2 27  7 15 26 19 13
  20389664.021    -3339275.786 7  -2573699.223 9
  21008043.607     3425531.715 6   2673532.024 7
  19750126.803   -10032186.660 7  -7738334.402 8
  23199233.975    -6084356.444 5    -88544.126 5
  21794940.240    -9243215.205 6  -7052676.292 6
  23376657.842     7743887.081 5   6007097.179 5
  22244460.818   -11692885.329 5  -7541671.666 5
 94  2 17  1 14 29.9970000  0  7  2 27  7 15 26 19 13
  20385484.024    -3361230.384 7  -2590806.662 9
  21028303.681     3532009.408 6   2756501.633 7
  19737064.806   -10100832.189 7  -7791824.374 8
  23197477.321    -6093570.702 5    -95724.040 5
  21784660.743    -9297233.052 6  -7094768.101 6
  23403584.345     7885457.714 3   6117411.934 5
  22194867.048   -11953529.969 6  -7744771.148 5
 94  2 17  1 14 59.9970000  0  7  2 27  7 15 26 19 13
  20383441.415    -3371980.377 7  -2599183.275 9
  21038552.470     3585858.042 6   2798461.599 7
  19730676.665   -10134401.240 7  -7817982.046 8
  23196764.509    -6097344.373 5    -98664.505 4
  21779670.298    -9323457.849 6  -7115202.996 6
  23417112.907     7956493.319 3   6172764.369 4
  22170146.001   -12083410.058 5  -7845976.292 5
 94  2 17  1 15 29.9970000  0  7  2 27  7 15 26 19 13
  20381422.681    -3382584.229 7  -2607445.995 9
  21048872.189     3640092.354 6   2840722.086 7
  19724380.931   -10167482.989 7  -7843760.006 8
  23196143.306    -6100567.745 5   -101176.170 5
  21774776.892    -9349159.256 6  -7135230.056 6
  23430669.681     8027696.342 5   6228247.156 3
  22145491.173   -12212995.039 6  -7946951.478 5
 94  2 17  1 15 59.9970000  0  7  2 27  7 15 26 19 13
  20379434.306    -3393032.288 7  -2615587.323 9
  21059259.821     3694676.714 6   2883255.340 7
  19718178.345   -10200072.984 7  -7869154.778 8
  23195637.845    -6103243.433 5   -103261.102 5
  21769989.931    -9374333.262 6  -7154846.153 6
  23444248.392     8099065.308 5   6283859.296 3
  22120884.251   -12342284.883 6  -8047696.687 5
 94  2 17  1 16 29.9970000  0  7  2 27  7 15 26 19 13
  20377478.587    -3403307.034 7  -2623593.613 9
  21069708.665     3749600.514 6   2926053.099 7
  19712073.790   -10232161.941 7  -7894159.132 8
  23195231.282    -6105365.839 5   -104914.892 5
  21765303.509    -9398958.090 6  -7174034.323 6
  23457862.079     8170609.425 5   6339607.879 4
  22096339.524   -12471270.833 6  -8148205.129 5
 94  2 17  1 16 59.9970000  0  7  2 27  7 15 26 19 13
  20375557.946    -3413404.476 7  -2631461.729 9
  21080224.188     3804846.241 6   2969101.707 7
  19706060.196   -10263758.063 7  -7918779.456 8
  23194931.688    -6106934.033 5   -106136.833 5
  21760717.243    -9423045.405 6  -7192803.649 6
  23471509.548     8242342.421 4   6395503.658 2
  22071857.376   -12599948.941 6  -8248473.639 5
 94  2 17  1 17 29.9970000  0  7  2 27  7 15 26 19 13
  20373666.939    -3423341.795 7  -2639205.076 9
  21090796.923     3860415.821 6   3012402.669 7
  19700137.407   -10294867.791 7  -7943020.786 8
  23194739.017    -6107952.080 5   -106930.045 5
  21756233.517    -9446613.624 6  -7211168.483 6
  23485190.376     8314264.198 3   6451546.569 4
  22047429.181   -12728320.130 6  -8348502.995 5
 94  2 17  1 17 59.9970000  0  7  2 27  7 15 26 19 13
  20371802.774    -3433116.395 7  -2646821.636 9
  21101438.688     3916340.061 6   3055979.985 7
  19694314.337   -10325485.526 7  -7966878.731 8
  23194656.212    -6108410.317 5
  21751852.017    -9469648.427 6  -7229117.675 6
  23498925.759     8386386.189 3   6507745.512 3
  22023058.235   -12856371.594 6  -8448283.233 5
 94  2 17  1 18 29.9970000  0  7  2 27  7 15 26 19 13
  20369978.493    -3442736.141 7  -2654317.531 9
  21112153.743     3972642.231 6   3099851.788 7
  19688576.829   -10355625.472 7  -7990364.375 8
  23194671.649    -6108315.085 5
  21747564.884    -9492157.385 6  -7246657.097 6
  23512687.024     8458710.460 4   6564102.029 4
  21998751.454   -12984106.642 6  -8547816.921 5
 94  2 17  1 18 59.9970000  0  7  2 27  7 15 26 19 13
  20368176.384    -3452206.786 7  -2661697.246 9
  21122940.454     4029329.525 6   3144023.697 7
  19682929.142   -10385295.859 7  -8013484.143 8
  23194796.423    -6107667.275 5   -106708.003 5
  21743380.017    -9514146.400 6  -7263791.375 6
  23526492.087     8531245.479 4   6620622.804 5
  21974509.837   -13111522.759 6  -8647102.071 5
 94  2 17  1 19 29.9970000  0  7  2 27  7 15 26 19 13
  20366402.931    -3461529.264 7  -2668961.508 9
  21133802.376     4086397.886 6   3188492.531 7
  19677372.165   -10414496.773 7  -8036238.074 8
  23195021.376    -6106468.457 5   -105773.858 5
  21739297.196    -9535602.499 6  -7280510.404 6
  23540339.235     8603979.786 5   6677298.842 4
  21950315.376   -13238618.703 6  -8746137.738 5
 94  2 17  1 19 59.9970000  0  7  2 27  7 15 26 19 13
  20364654.821    -3470684.618 7  -2676095.544 9
  21144732.321     4143846.674 6   3233257.807 7
  19671912.181   -10443205.925 7  -8058608.825 8
  23195361.985    -6104711.276 5   -104404.583 5
  21735326.071    -9556501.887 6  -7296795.616 6
  23554206.493     8676907.302 4   6734125.422 4
  21926198.181   -13365383.689 6  -8844915.534 5
 94  2 17  1 20 29.9970000  0  8  2 27  7 15 26 19 13  4
  20362948.337    -3479679.915 7  -2683104.855 9
  21155734.360     4201648.879 6   3278298.485 7
  19666537.837   -10471435.125 7  -8080605.586 8
  23195795.095    -6102414.055 5   -102614.515 5
  21731448.642    -9576867.523 6  -7312664.930 6
  23568112.798     8749996.028 4   6791077.607 3
  21902135.954   -13491832.637 6  -8943447.070 5
  23919821.454          -0.29013
 94  2 17  1 20 59.9970000  0  8  2 27  7 15 26 19 13  4
  20361264.228    -3488507.623 7  -2689983.574 9
  21166800.454     4259803.590 6   3323613.811 7
  19661263.782   -10499168.251 7  -8102215.792 8
  23196344.649    -6099569.419 5   -100397.855 5
  21727673.985    -9596697.341 6  -7328116.708 6
  23582044.767     8823232.589 3   6848145.019 1
  21878135.853   -13617955.122 6  -9041724.235 5
  23896254.399     -123856.996 3
 94  2 17  1 21 29.9970000  0  8  2 27  7 15 26 19 13  4
  20359617.907    -3497164.651 7  -2696729.302 9
  21177932.032     4318319.697 6   3369210.764 6
  19656084.829   -10526391.061 7  -8123428.346 8
  23196983.556    -6096176.147 5    -97753.725 5
  21723998.985    -9615997.060 6  -7343155.424 6
  23596019.423     8896601.504 4   6905315.535 2
  21854198.751   -13743747.041 6  -9139743.795 5
  23872664.478     -247799.367 3        -0.33712
 94  2 17  1 21 59.9970000  0  8  2 27  7 15 26 19 13  4
  20358001.798    -3505647.016 7  -2703338.926 9
  21189141.814     4377212.626 6   3415101.347 6
  19650999.938   -10553105.931 7  -8144245.118 8
  23197731.063    -6092227.952 5    -94677.169 5
  21720427.243    -9634769.236 6  -7357783.087 6
  23610002.782     8970108.526 3   6962593.671 1
  21830324.923   -13869198.615 6  -9237498.171 5
  23849069.063     -371818.550 3    -96638.490 1
 94  2 17  1 22 29.9970000  0  8  2 27  7 15 26 19 13  4
  20356422.548    -3513964.619 7  -2709820.164 9
  21200419.189     4436469.343 6   3461275.391 6
  19646007.892   -10579342.625 7  -8164689.275 9
  23198590.048    -6087732.030 5    -91173.806 5
  21716951.134    -9653033.520 6  -7372014.959 6
  23624018.032     9043760.577 3   7019984.853 2
  21806515.384   -13994313.377 6  -9334990.112 5
  23825459.821     -495914.878 3   -193336.719 3
 94  2 17  1 22 59.9970000  0  8  2 27  7 15 26 19 13  4
  20354866.345    -3522135.056 7  -2716186.733 9
  21211759.876     4496074.584 6   3507721.025 6
  19641103.290   -10605114.645 7  -8184771.348 9
  23199553.532    -6082694.234 5    -87248.208 5
  21713575.884    -9670795.966 6  -7385855.820 6
  23638049.712     9117552.009 2   7077484.689 2
  21782770.017   -14119094.424 6  -9432222.010 5
  23801825.564     -620084.124 3   -290091.811 2
 94  2 17  1 23 29.9970000  0  7  2 27  7 15 26 19 13
  20353336.368    -3530164.809 7  -2722443.674 9
  21223168.087     4556019.354 6   3554431.223 6
  19636286.282   -10630431.815 7  -8204499.002 9
  23200607.478    -6077111.815 5    -82898.252 5
  21710296.024    -9688041.689 6  -7399294.036 6
  23652123.282     9191499.727 3   7135106.257 3
  21759092.649   -14243535.452 6  -9529188.970 5
 94  2 17  1 23 59.9970000  0  8  2 27  7 15 26 19 13  4
  20351837.149    -3538051.022 7  -2728588.772 9
  21234635.181     4616294.040 6   3601398.497 6
  19631556.720   -10655293.196 7  -8223871.486 9
  23201772.571    -6070982.108 5    -78121.846 5
  21707109.540    -9704748.096 6  -7412311.993 6
  23666229.806     9265617.608 3   7192860.427 2
  21735475.290   -14367630.715 6  -9625886.509 5
  23754513.532          -0.08112
 94  2 17  1 24 29.9970000  0  8  2 27  7 15 26 19 13  4
  20350363.243    -3545786.884 7  -2734616.703 9
  21246169.571     4676908.795 6   3648630.751 6
  19626916.079   -10679675.427 7  -8242870.610 9
  23203041.431    -6064298.832 4    -72914.053 5
  21704038.860    -9720908.144 6  -7424904.227 6
  23680368.688     9339918.289 3   7250757.068 2
  21711929.149   -14491370.469 6  -9722307.018 5
  23730857.501     -124363.587 3
 94  2 17  1 24 59.9970000  0  8  2 27  7 15 26 19 13  4
  20348923.157    -3553374.973 7  -2740529.492 9
  21257768.235     4737862.973 6   3696127.503 6
  19622362.946   -10703574.255 7  -8261493.060 9
  23204425.884    -6057068.433 5    -67279.945 5
  21701068.462    -9736524.104 6  -7437072.495 6
  23694542.040     9414390.331 3   7308787.197 2
  21688450.696   -14614758.148 6  -9818453.189 5
  23707187.657     -248787.499 4        -0.07712
 94  2 17  1 25 29.9970000  0  8  2 27  7 15 26 19 13  4
  20347505.345    -3560809.686 7  -2746322.767 9
  21269437.024     4799161.688 6   3743892.716 6
  19617911.454   -10726994.243 7  -8279742.382 9
  23205904.790    -6049295.499 5    -61223.080 5
  21698194.798    -9751604.920 6  -7448823.783 6
  23708746.892     9489041.863 3   7366957.198 1
  21665034.470   -14737794.762 6  -9914325.802 5
  23683497.610     -373276.126 5    -97003.902 1
 94  2 17  1 25 59.9970000  0  8  2 27  7 15 26 19 13  4
  20346123.337    -3568075.370 7  -2751984.321 9
  21281169.728     4860813.247 6   3791932.877 6
  19613547.337   -10749929.239 7  -8297613.798 9
  23207483.439    -6040982.413 5    -54745.285 5
  21695429.071    -9766167.741 6  -7460171.425 6
  23722981.985     9563857.784 3   7425255.339 2
  21641688.962   -14860479.214 6 -10009924.013 5
  23659800.134     -497823.539 5   -194053.594 1
 94  2 17  1 26 29.9970000  0  8  2 27  7 15 26 19 13  4
  20344774.509    -3575156.482 7  -2757502.062 9
  21292966.009     4922821.323 6   3840250.833 6
  19609274.501   -10772380.935 7  -8315108.599 9
  23209173.290    -6032124.687 5    -47843.144 5
  21692748.267    -9780227.348 6  -7471126.963 6
  23737248.868     9638830.834 3   7483675.894 1
  21618412.032   -14982803.842 6 -10105241.833 5
  23636080.423     -622423.232 5   -291143.971 1
 94  2 17  1 26 59.9970000  0  8  2 27  7 15 26 19 13  4
  20343463.524    -3582053.164 7  -2762876.088 9
  21304832.157     4985168.952 6   3888833.382 6
  19605090.360   -10794360.545 7  -8332235.552 9
  23210961.399    -6022727.220 5    -40520.410 5
  21690171.774    -9793784.687 6  -7481691.123 6
  23751547.399     9713952.160 3   7542211.958 1
  21595204.478   -15104770.019 6 -10200280.340 5
  23612363.618     -747085.316 4   -388283.006 1
 94  2 17  1 27 29.9970000  0  8  2 27  7 15 26 19 13  4
  20342185.759    -3588776.275 7  -2768114.864 9
  21316761.470     5047851.806 6   3937677.139 6
  19600994.962   -10815864.883 7  -8348992.161 9
  23212844.415    -6012795.579 4    -32781.423 5
  21687684.923    -9806841.842 6  -7491865.522 6
  23765869.118     9789203.215 3   7600849.126 2
  21572062.493   -15226379.956 6 -10295041.249 5
  23588630.462     -871808.100 4   -485469.286 1
 94  2 17  1 27 59.9970000  0  8  2 27  7 15 26 19 13  4
  20340938.665    -3595319.991 7  -2773213.850 9
  21328749.110     5110872.447 6   3986784.109 6
  19596998.165   -10836888.255 7  -8365373.996 9
  23214841.407    -6002323.323 5    -24621.188 5
  21685300.735    -9819386.765 6  -7501640.785 6
  23780216.306     9864580.421 3   7659584.639 2
  21548990.126   -15347623.679 6 -10389516.797 5
  23564879.860     -996587.294 3   -582699.527 1
 94  2 17  1 28 29.9970000  0  8  2 27  7 15 26 19 13  4
  20339723.970    -3601696.827 7  -2778182.804 9
  21340808.915     5174227.687 6   4036151.808 6
  19593090.571   -10857429.951 7  -8381380.486 9
  23216940.970    -5991306.126 4    -16036.333 5
  21683007.188    -9831408.623 6  -7511008.465 6
  23794585.767     9940105.968 4   7718435.669 1
  21525989.735   -15468493.650 6 -10483701.114 5
  23541136.915    -1121408.379 3   -679962.367 1
 94  2 17  1 28 59.9970000  0  8  2 27  7 15 26 19 13  4
  20338537.649    -3607932.723 7  -2783041.931 9
  21352926.774     5237915.419 6   4085778.583 6
  19589269.860   -10877498.568 7  -8397018.359 9
  23219136.657    -5979753.075 4     -7033.922 5
  21680825.829    -9842910.455 6  -7519970.940 6
  23808981.571    10015775.095 4   7777398.619 2
  21503059.384   -15588995.362 6 -10577598.463 5
  23517364.040    -1246279.406 4   -777264.215 2
 94  2 17  1 29 29.9970000  0  8  2 27  7 15 26 19 13  4
  20337376.735    -3614037.496 7  -2787798.886 9
  21365108.915     5301928.697 6   4135659.043 6
  19585538.220   -10897107.569 7  -8412298.085 9
  23221439.595    -5967671.050 5      2380.692 5
  21678730.165    -9853905.463 6  -7528538.464 6
  23823410.618    10091585.444 3   7836471.623 2
  21480193.845   -15709132.293 6 -10671211.584 5
  23493594.642    -1371194.532 5   -874600.410 1
 94  2 17  1 29 59.9970000  0  7  2 27  7 15 26 13  4
  20336240.649    -3620011.406 7  -2792453.874 9
  21377353.431     5366272.421 6   4185796.978 6
  19581889.790   -10916262.401 7  -8427223.914 9
  23223837.954    -5955055.743 4     12210.801 5
  21676739.368    -9864392.582 6  -7536710.253 6
  21457407.228   -15828896.977 6 -10764534.626 6
  23469826.431    -1496140.205 5   -971960.396 2
 94  2 17  1 30 29.9970000  0  7  2 27  7 15 26 13  4
  20335129.634    -3625862.090 7  -2797012.837 9
  21389660.149     5430944.053 6   4236190.455 6
  19578332.782   -10934963.532 7  -8441796.202 9
  23226338.470    -5941913.904 5     22451.237 5
  21674831.095    -9874386.472 6  -7544497.687 6
  21434683.407   -15948292.388 6 -10857569.916 6
  23446038.735    -1621106.472 3  -1069336.452 2
 94  2 17  1 30 59.9970000  0  7  2 27  7 15 26 13  4
  20334042.165    -3631560.988 7  -2801453.525 9
  21402031.728     5495955.958 6   4286849.048 6
  19574865.673   -10953197.127 7  -8456004.190 9
  23228933.798    -5928236.663 4     33108.879 5
  21673023.712    -9883878.306 6  -7551893.930 6
  21412038.665   -16067306.223 6 -10950307.896 6
  23422246.423    -1746092.330 3  -1166727.768 2
 94  2 17  1 31 29.9970000  0  7  2 27  7 15 26 13  4
  20332990.501    -3637091.654 7  -2805763.130 9
  21414467.821     5561309.378 6   4337773.764 6
  19571484.892   -10970957.253 7  -8469843.228 9
  23231639.267    -5914019.686 3     44187.088 4
  21671318.282    -9892857.109 6  -7558890.402 6
  21389461.892   -16185930.862 6 -11042742.610 6
  23398466.688    -1871087.504 3  -1264126.311 2
 94  2 17  1 31 59.9970000  0  7  2 27  7 15 26 13  4
  20331974.032    -3642451.620 7  -2809939.711 9
  21426967.384     5627002.514 6   4388963.203 6
  19568190.548   -10988247.811 7  -8483316.371 9
  23234457.673    -5899273.918 4     55677.334 3
  21669701.923    -9901332.329 6  -7565494.476 6
  21366966.626   -16304173.421 6 -11134879.585 6
  23374682.306    -1996103.562 3  -1361541.231 2
 94  2 17  1 32 29.9970000  0  7  2 27  7 15 26 13  4
  20330985.212    -3647616.504 7  -2813964.286 9
  21439532.759     5693027.446 6   4440411.183 6
  19564995.571   -11005065.960 7  -8496421.404 9
  23237351.423    -5884000.204 3     67578.960 4
  21668183.564    -9909306.096 6  -7571707.805 6
  21344535.032   -16422031.272 6 -11226716.800 6
  23350890.110    -2121144.974 5  -1458975.916 3
 94  2 17  1 32 59.9970000  0  7  2 27  7 15 26 13  4
  20330043.282    -3652582.593 7  -2817833.959 9
  21452158.431     5759384.151 6   4492117.673 6
  19561880.970   -11021412.548 7  -8509158.989 9
  23240369.954    -5868188.371 4     79899.871 5
  21666770.228    -9916753.974 6  -7577511.341 6
  21322182.517   -16539490.790 6 -11318243.627 6
  23327085.313    -2246206.691 4  -1556426.463 2
 94  2 17  1 33 29.9970000  0  7  2 27  7 15 26 13  4
  20329135.751    -3657363.633 7  -2821559.441 9
  21464849.360     5826067.736 6   4544078.897 6
  19558857.478   -11037303.954 7  -8521541.880 9
  23243478.509    -5851840.195 4     92638.720 4
  21665450.142    -9923679.503 6  -7582907.883 6
  21299910.079   -16656550.206 6 -11409458.679 6
  23303281.704    -2371271.064 3  -1653879.049 4
 94  2 17  1 33 59.9970000  0  7  2 27  7 15 26 13  4
  20328257.915    -3661966.579 7  -2825146.132 9
  21477598.759     5893062.819 6   4596282.836 6
  19555919.517   -11052747.921 7  -8533576.112 9
  23246690.118    -5834965.420 4    105787.956 3
  21664227.415    -9930109.567 6  -7587918.326 6
  21277708.438   -16773215.800 6 -11500366.865 6
  23279480.251    -2496341.929 3  -1751336.690 4
 94  2 17  1 34 29.9970000  0  7  2 27  7 15 26 13  4
  20327412.212    -3666418.024 7  -2828614.772 9
  21490402.673     5960350.403 6   4648714.700 6
  19553059.579   -11067763.740 7  -8545276.731 9
  23249993.188    -5817570.978 3    119342.107 2
  21663097.212    -9936048.567 6  -7592546.116 6
  21255580.142   -16889491.112 6 -11590970.945 6
  23255685.626    -2621421.923 4  -1848801.443 4
 94  2 17  1 34 59.9970000  0  7  2 27  7 15 26 13  4
  20326588.134    -3670737.101 7  -2831980.272 9
  21503261.165     6027929.513 6   4701373.734 6
  19550285.415   -11082346.604 7  -8556639.985 9
  23253403.306    -5799656.615 3    133301.388 4
  21662062.267    -9941494.132 6  -7596789.411 6
  21233532.087   -17005371.883 6 -11681267.591 6
  23231877.259    -2746508.823 3  -1946271.534 4
 94  2 17  1 35 29.9970000  0  7  2 27  7 15 26 13  4
  20325797.376    -3674903.119 7  -2835226.513 9
  21516179.657     6095815.841 6   4754272.164 6
  19547598.798   -11096473.002 7  -8567647.548 9
  23256913.001    -5781216.116 3    147670.637 3
  21661121.001    -9946449.242 6  -7600650.550 6
  21211555.267   -17120848.585 6 -11771249.376 6
  23208078.321    -2871604.843 5  -2043748.736 4
 94  2 17  1 35 59.9970000  0  7  2 27  7 15 26 13  4
  20325028.462    -3678924.739 7  -2838360.230 9
  21529160.204     6164005.458 6   4807406.919 6
  19545003.837   -11110132.452 7  -8578291.261 9
  23260528.009    -5762256.333 5    162444.556 2
  21660273.235    -9950913.803 6  -7604129.413 6
  21189656.407   -17235924.339 6 -11860918.746 6
  23184267.853    -2996732.031 5  -2141250.286 4
 94  2 17  1 36 29.9970000  0  7  2 27  7 15 26 13  4
  20324287.915    -3682807.433 7
  21542194.470     6232500.649 6   4860779.769 6
  19542489.587   -11123327.051 7  -8588572.742 9
  23264231.790    -5742778.644 4    177621.988 4
  21659516.665    -9954874.106 6
  21167834.110   -17350597.201 6 -11950274.176 6
  23160448.353    -3121897.492 5  -2238781.578 3
 94  2 17  1 36 59.9970000  0  7  2 27  7 15 26 13  4
  20323582.564    -3686525.591 7  -2844282.942 9
  21555283.868     6301318.718 6   4914404.212 6
  19540073.915   -11136036.757 7  -8598476.399 9
  23268037.532    -5722773.306 4    193210.582 2
  21658861.454    -9958318.422 6  -7609899.256 6
  21146093.063   -17464853.767 6 -12039305.202 6
  23136618.907    -3247082.522 4  -2336328.108 5
 94  2 17  1 37 29.9970000  0  7  2 27  7 15 26 13  4
  20322909.431    -3690077.218 7  -2847050.439 9
  21568444.032     6370456.866 6   4968278.073 6
  19537735.212   -11148285.981 7  -8608021.220 9
  23271945.438    -5702246.056 5    209205.904 3
  21658299.564    -9961254.151 6  -7612186.855 6
  21124429.454   -17578696.144 6 -12128013.509 6
  23112793.603    -3372281.352 4  -2433885.469 3
 94  2 17  1 37 59.9970000  0  7  2 27  7 15 26 13  4
  20322258.657    -3693464.981 7  -2849690.234 9
  21581658.939     6439900.533 6   5022390.010 6
  19535494.993   -11160095.534 7  -8617223.457 9
  23275942.048    -5681200.822 3    225604.789 3
  21657842.696    -9963694.278 6  -7614088.234 6
  21102845.978   -17692124.619 6 -12216399.289 6
  23088978.696    -3497469.219 5  -2531434.227 3
 94  2 17  1 38 29.9970000  0  7  2 27  7 15 26 13  4
  20321650.212    -3696679.332 7  -2852194.906 9
  21594928.024     6509648.496 6   5076739.051 6
  19533324.649   -11171482.051 7  -8626096.058 9
  23280050.993    -5659638.549 4    242406.550 3
  21657470.954    -9965642.012 6  -7615605.952 6
  21081337.337   -17805136.633 6 -12304460.535 6
  23065158.392    -3622628.513 5  -2628960.725 5
 94  2 17  1 38 59.9970000  0  7  2 27  7 15 26 13  4
  20321076.587    -3699712.590 7  -2854558.478 9
  21608259.774     6579698.122 6   5131323.160 6
  19531235.665   -11182445.758 7  -8634639.191 9
  23284255.040    -5637562.074 4    259609.107 2
  21657191.212    -9967099.878 6  -7616741.964 6
  21059915.017   -17917731.345 6 -12392196.634 6
  23041353.110    -3747751.321 5  -2726458.789 5
 94  2 17  1 39 29.9970000  0  7  2 27  7 15 26 13  4
  20320533.423    -3702557.855 7  -2856775.561 9
  21621648.985     6650053.248 6   5186145.325 6
  19529234.696   -11192971.662 7  -8642841.180 9
  23288550.063    -5614967.440 4    277215.390 2
  21657002.728    -9968066.756 6  -7617495.387 6
  21038565.345   -18029900.832 6 -12479601.390 6
  23017544.360    -3872832.243 5  -2823924.209 5
 94  2 17  1 39 59.9970000  0  7  2 27  7 15 26 13  4
  20320025.978    -3705213.391 7  -2858844.798 9
  21635094.845     6720699.777 6   5241194.553 6
  19527317.556   -11203043.360 7  -8650689.247 9
  23292949.204    -5591857.102 4    295223.473 4
  21656912.079    -9968546.126 6
  21017303.228   -18141644.189 6 -12566674.086 6
  22993752.048    -3997874.998 5  -2921359.915 4
 94  2 17  1 40 29.9970000  0  7  2 27  7 15 26 13  4
  20319560.009    -3707675.498 7  -2860763.316 9
  21648589.814     6791643.279 6   5296475.185 6
  19525492.493   -11212650.228 7  -8658175.103 9
  23297452.040    -5568228.669 5    313635.249 3
  21656920.720    -9968529.329 6
  20996120.907   -18252955.450 6 -12653410.092 6
  22969962.985    -4122895.152 5  -3018778.018 4
 94  2 17  1 40 59.9970000  0  7  2 27  7 15 26 13  4
  20319126.470    -3709957.982 7  -2862541.865 9
  21662148.603     6862876.173 6   5351981.335 6
  19523749.407   -11221790.535 7  -8665297.410 9
  23302041.681    -5544090.770 5    332444.049 2
  21657012.392    -9968033.538 6
  20975020.196   -18363839.627 6 -12739813.290 6
  22946171.423    -4247899.876 5  -3116184.083 5
 94  2 17  1 41 29.9970000  0  7  2 27  7 15 26 13  4
  20318727.087    -3712068.090 7  -2864186.087 9
  21675755.024     6934392.041 6   5407707.964 6
  19522097.642   -11230477.716 7  -8672066.625 9
  23306731.813    -5519444.079 5    351649.299 2
  21657191.220    -9967071.152 6  -7616719.600 6
  20954002.314   -18474293.961 6 -12825881.562 6
  22922386.298    -4372889.476 5  -3213578.377 4
 94  2 17  1 41 59.9970000  0  8  2 27  7 15 26  9 13  4
  20318353.892    -3714014.725 7  -2865702.945 9
  21689419.454     7006186.281 6   5463651.518 6
  19520526.899   -11238736.406 7  -8678501.957 9
  23311508.673    -5494294.125 4    371246.692 3
  21657461.181    -9965654.333 6  -7615615.588 6
  23220312.571          -0.71813
  20933065.603   -18584320.219 6 -12911616.258 6
  22898600.274    -4497869.058 4  -3310964.883 4
 94  2 17  1 42 29.9970000  0  8  2 27  7 15 26  9 13  4
  20318013.071    -3715805.262 7  -2867098.154 9
  21703139.681     7078283.721 6   5519831.333 5
  19519035.431   -11246569.742 7  -8684605.838 9
  23316392.306    -5468640.455 5    391236.615 1
  21657822.939    -9963770.764 6  -7614147.862 6
  23197031.501     -122344.167 3        -0.10611
  20912212.993   -18693914.338 6 -12997014.221 6
  22874825.704    -4622823.798 4  -3408332.020 5
 94  2 17  1 42 59.9970000  0  8  2 27  7 15 26  9 13  4
  20317701.696    -3717445.123 7  -2868375.960 9
  21716917.048     7150691.688 6   5576253.112 6
  19517626.767   -11253970.575 7  -8690372.706 9
  23321379.399    -5442475.913 5    411624.596 2
  21658271.985    -9961405.982 6  -7612305.189 6
  23173772.524     -244590.196 3    -95256.627 1
  20891437.626   -18803065.341 6 -13082066.912 6
  22851048.735    -4747723.832 3  -3505656.568 5
 94  2 17  1 43 29.9970000  0  8  2 27  7 15 26  9 13  4
  20317413.353    -3718931.842 7  -2869534.434 9
  21730749.134     7223401.167 6   5632909.840 6
  19516305.306   -11260942.099 7  -8695805.034 9
  23326450.728    -5415805.061 4    432407.128 2
  21658812.540    -9958561.676 6  -7610088.834 6
  23150534.212     -366720.970 3   -190423.418 1
  20870753.540   -18911774.156 6 -13166775.027 6
  22827305.587    -4872569.956 5  -3602939.103 4
 94  2 17  1 43 59.9970000  0  8  2 27  7 15 26  9 13  4
  20317159.313    -3720270.064 7  -2870577.178 9
  21744646.064     7296411.854 6   5689801.293 6
  19515055.970   -11267478.097 7  -8700897.998 9
  23331628.165    -5388633.482 4    453579.820 4
  21659451.845    -9955233.950 6  -7607495.794 6
  23127314.017     -488742.148 4   -285504.761 2
  20850150.173   -19020042.703 6 -13251140.078 6
  22803554.157    -4997356.962 5  -3700175.611 4
 94  2 17  1 44 29.9970000  0  8  2 27  7 15 26  9 13  4
  20316937.689    -3721457.846 7  -2871502.709 9
  21758601.165     7369726.912 6   5746929.904 6
  19513896.626   -11273566.386 7  -8705642.102 9
  23336889.196    -5360956.537 4    475146.329 2
  21660169.657    -9951408.496 6  -7604514.928 6
  23104114.009     -610658.373 4   -380504.318 1
  20829630.868   -19127862.601 6 -13335155.539 6
  22779827.235    -5122075.028 5  -3797358.366 4
 94  2 17  1 44 59.9970000  0  8  2 27  7 15 26  9 13  4
  20316743.282    -3722486.361 7  -2872304.138 9
  21772606.345     7443319.550 6   5804274.803 5
  19512818.423   -11279225.354 7  -8710051.665 9
  23342244.321    -5332781.311 3    497101.101 2
  21660997.704    -9947103.277 6  -7601160.221 6
  23080929.634     -732488.176 4   -475436.536 2
  20809199.314   -19235237.284 6 -13418824.067 6
  22756098.970    -5246734.179 5  -3894495.271 4
 94  2 17  1 45 29.9970000  0  8  2 27  7 15 26  9 13  4
  20316579.540    -3723321.920 7  -2872955.209 9
  21786658.040     7517196.896 6   5861841.547 5
  19511826.626   -11284454.288 7  -8714126.128 9
  23347706.501    -5304101.674 4    519448.885 1
  21661900.962    -9942321.012 6  -7597433.772 6
  23057760.470     -854250.625 5   -570316.265 2
  20788853.196   -19342157.110 6 -13502138.176 6
  22732387.743    -5371330.419 4  -3991583.114 4
 94  2 17  1 45 59.9970000  0  8  2 27  7 15 26  9 13  4
  20316458.415    -3723968.640 7  -2873459.138 9
  21800772.313     7591348.310 6   5919621.865 5
  19510912.985   -11289266.263 7  -8717875.700 9
  23353266.735    -5274925.716 5    542183.442 2
  21662904.626    -9937067.220 6  -7593339.914 6
  23034601.032     -975957.010 5   -665152.314 2
  20768591.478   -19448626.500 6 -13585101.295 6
  22708690.782    -5495866.489 4  -4088624.120 5
 94  2 17  1 46 59.9960000  0  8  2 27  7 15 26  9 13  4
  20316324.504    -3724654.805 7
  21829146.285     7740458.860 6   6035811.862 5
  19509323.668   -11297623.072 7  -8724387.450 9
  23364655.379    -5215070.650 5    588823.815 2
  21665172.207    -9925148.594 6  -7584052.668 6
  22988322.918    -1219145.112 5   -854649.350 2
  20728334.652   -19660180.103 6 -13749948.161 6
  22661336.418    -5744731.303 5  -4282544.478 5
 94  2 17  1 47 29.9960000  0  8  2 27  7 15 26  9 13  4
  20316312.910    -3724718.897 7
  21843406.699     7815399.098 5   6094206.834 5
  19508647.676   -11301159.447 7  -8727143.050 9
  23370484.855    -5184411.893 5    612713.772 2
  21666432.082    -9918516.843 6  -7578885.071 6
  22965209.066    -1340633.602 5   -949315.585 2
  20708333.793   -19765281.621 7 -13831845.401 6
  22637674.129    -5869074.454 5  -4379435.142 5
 94  2 17  1 47 59.9960000  0  8  2 27  7 15 26  9 13  4
  20316333.926    -3724623.724 7
  21857714.832     7890590.298 5   6152797.376 5
  19508055.035   -11304258.509 7  -8729557.876 9
  23376415.434    -5153269.330 5    636980.748 2
  21667780.270    -9911434.015 6  -7573365.975 6
  22942099.293    -1462036.051 5  -1043914.789 4
  20688421.168   -19869930.253 7 -13913389.744 6
  22614025.574    -5993365.477 5  -4476285.165 4
 94  2 17  1 48 29.9960000  0  8  2 27  7 15 26  9 13  4
  20316381.738    -3724368.534 7
  21872075.074     7966046.412 6   6211594.309 5
  19507553.691   -11306908.381 7  -8731622.699 9
  23382426.035    -5121637.165 3    661629.265 2
  21669219.387    -9903895.012 6  -7567491.425 6
  22919015.301    -1583339.866 5  -1138437.142 3
  20668595.160   -19974116.699 7 -13994573.956 6
  22590381.574    -6117600.933 5  -4573091.888 5
 94  2 17  1 48 59.9960000  0  8  2 27  7 15 26  9 13  4
  20316459.363    -3723942.079 7  -2873438.311 9
  21886481.418     8041775.988 5   6270604.371 5
  19507135.215   -11309107.586 7  -8733336.340 9
  23388537.520    -5089509.879 4    686663.551 2
  21670737.191    -9895895.633 6  -7561258.137 6
  22895953.824    -1704530.839 5  -1232871.551 4
  20648859.066   -20077831.729 7 -14075390.792 6
  22566756.051    -6241767.612 5  -4669845.071 4
 94  2 17  1 49 29.9960000  0  8  2 27  7 15 26  9 13  4
  20316574.402    -3723351.216 7  -2872977.873 9
  21900946.137     8117774.675 6   6329824.117 6
  19506793.621   -11310894.327 7  -8734728.601 9
  23394748.410    -5056895.118 5    712077.668 1
  21672349.777    -9887433.762 6  -7554664.470 6
  22872915.731    -1825611.337 5  -1327219.868 4
  20629213.223   -20181079.136 7 -14155843.289 6
  22543132.785    -6365877.690 5  -4766554.080 5
 94  2 17  1 49 59.9960000  0  8  2 27  7 15 26  9 13  4
  20316718.184    -3722603.091 7  -2872394.897 9
  21915459.035     8194038.331 5   6389250.340 5
  19506533.145   -11312292.242 7  -8735817.871 9
  23401048.160    -5023801.213 5    737865.151 2
  21674045.621    -9878513.809 6  -7547713.861 6
  22849896.113    -1946585.823 5  -1421485.573 4
  20609651.066   -20283863.491 7 -14235934.936 6
  22519528.457    -6489931.778 5  -4863219.504 5
 94  2 17  1 50 29.9960000  0  8  2 27  7 15 26  9 13  4
  20316893.566    -3721688.996 7  -2871682.597 9
  21930024.277     8270573.097 5   6448887.786 5
  19506337.137   -11313308.782 7  -8736609.965 9
  23407438.801    -4990222.535 5    764030.361 1
  21675832.746    -9869138.856 6  -7540408.698 6
  22826894.629    -2067437.981 5  -1515655.969 5
  20590180.129   -20386175.686 7 -14315658.679 6
  22495936.840    -6613897.259 5  -4959815.866 5
 94  2 17  1 50 59.9960000  0  8  2 27  7 15 26  9 13  4
  20317095.223    -3720616.337 7  -2870846.734 9
  21944637.082     8347363.865 5   6508724.739 5
  19506211.988   -11313950.580 7  -8737110.052 9
  23413914.824    -4956163.514 4    790569.918 3
  21677698.246    -9859312.469 6  -7532751.767 6
  22803924.723    -2188166.633 5  -1609730.127 5
  20570803.238   -20488016.291 7 -14395014.958 6
  22472365.035    -6737765.031 5  -5056336.090 5
 94  2 17  1 51 29.9960000  0  8  2 27  7 15 26  9 13  4
  20317329.395    -3719390.318 7  -2869891.381 9
  21959302.449     8424409.957 6   6568760.640 5
  19506167.152   -11314206.828 7
  23420490.957    -4921624.228 5    817483.676 3
  21679651.863    -9849034.871 6  -7524743.244 6
  22780972.160    -2308767.178 5  -1703704.465 5
  20551512.824   -20589381.966 7 -14474001.135 6
  22448813.098    -6861527.184 5  -5152773.999 5
 94  2 17  1 51 59.9960000  0  8  2 27  7 15 26  9 13  4
  20317591.691    -3718014.316 7  -2868819.150 9
  21974003.832     8501698.325 5   6628985.315 5
  19506197.809   -11314054.737 7
  23427158.457    -4886612.241 5    844765.815 4
  21681686.895    -9838327.584 6  -7516399.899 6
  22758046.160    -2429242.552 5  -1797581.278 4
  20532314.496   -20690276.238 7 -14552620.004 6
  22425282.785    -6985177.805 5  -5249125.046 5
 94  2 17  1 52 29.9960000  0  8  2 27  7 15 26  9 13  4
  20317886.137    -3716472.010 7  -2867617.332 9
  21988759.840     8579228.927 5   6689398.751 5
  19506300.293   -11313483.814 7  -8736746.297 9
  23433907.730    -4851127.952 5    872415.937 5
  21683816.527    -9827184.921 6  -7507717.308 6
  22735146.270    -2549589.472 5  -1891357.992 3
  20513204.066   -20790696.492 7 -14630869.498 6
  22401774.543    -7108718.438 5  -5345390.337 5
 94  2 17  1 52 59.9960000  0  8  2 27  7 15 26  9 13  4
  20318214.168    -3714737.223 7  -2866265.538 9
  22003565.035     8657021.509 5   6750016.343 5
  19506494.934   -11312479.108 7  -8735963.401 9
  23440753.340    -4815167.030 5    900437.443 5
  21686023.746    -9815590.100 6  -7498682.387 6
  22712268.676    -2669813.126 5  -1985038.665 4
  20494188.277   -20890634.077 7 -14708742.887 6
  22378279.191    -7232164.627 5  -5441582.086 5
 94  2 17  1 53 29.9960000  0  8  2 27  7 15 26  9 13  4
  20318585.012    -3712797.682 7  -2864754.188 9
  22018420.152     8735087.862 5   6810847.242 5
  19506763.559   -11311041.387 7  -8734843.080 9
  23447685.590    -4778731.312 5    928828.944 5
  21688312.551    -9803549.831 6  -7489300.363 6
  22689415.160    -2789917.703 5  -2078626.559 4
  20475260.527   -20990087.132 7 -14786238.720 6
  22354811.691    -7355520.243 5  -5537703.248 5
 94  2 17  1 53 59.9960000  0  8  2 27  7 15 26  9 13  4
  20318992.301    -3710654.851 7
  22033323.598     8813431.549 5   6871894.275 5
  19507119.496   -11309188.660 7
  23454707.496    -4741826.071 5    957586.303 4
  21690686.371    -9791062.775 6  -7479570.194 6
  22666572.738    -2909915.667 5  -2172131.405 3
  20456427.418   -21089057.597 7 -14863358.507 6
  22331352.176    -7478788.255 5  -5633756.115 5
 94  2 17  1 54 29.9960000  0  8  2 27  7 15 26  9 13  4
  20319436.293    -3708310.026 7
  22048287.238     8892060.257 5   6933163.375 5
  19507549.215   -11306930.407 7
  23461818.691    -4704452.061 5    986708.930 5
  21693150.059    -9778119.615 6  -7469484.618 6
  22643759.348    -3029813.685 5  -2265558.370 4
  20437686.512   -21187542.412 7 -14940099.867 6
  22307912.535    -7601967.126 5  -5729739.565 5
 94  2 17  1 54 59.9960000  0  8  2 27  7 15 26  9 13  4
  20319924.871    -3705773.511 7  -2859280.774 9
  22063304.996     8970956.800 5   6994641.187 5
  19508052.996   -11304266.196 7  -8729563.674 9
  23469016.574    -4666610.858 3   1016195.617 5
  21695697.527    -9764733.087 6  -7459053.559 6
  22620965.426    -3149607.834 5  -2358904.423 4
  20419038.387   -21285538.997 7 -15016460.788 6
  22284496.418    -7725043.293 5  -5825642.968 5
 94  2 17  1 55 29.9960000  0  8  2 27  7 15 26  9 13  4
  20320435.606    -3703062.158 7  -2857168.022 9
  22078362.449     9050095.461 5   7056307.651 5
  19508637.504   -11301201.692 7  -8727175.729 9
  23476297.004    -4628305.995 3   1046043.605 5
  21698325.066    -9750912.452 6  -7448284.241 6
  22598189.879    -3269294.568 5  -2452166.756 4
  20400482.441   -21383047.584 7 -15092441.449 6
  22261097.496    -7847995.771 5  -5921449.985 5
 94  2 17  1 55 59.9960000  0  8  2 27  7 15 26  9 13  4
  20320982.012    -3700178.131 7  -2854920.719 9
  22093463.277     9129467.320 5   7118155.850 5
  19509302.082   -11297736.392 7  -8724475.490 9
  23483686.293    -4589535.692 2   1076254.222 5
  21701046.434    -9736649.307 6  -7437170.109 6
  22575434.418    -3388864.913 5  -2545338.422 3
  20382023.402   -21480063.108 7 -15168037.902 6
  22237725.441    -7970808.772 5  -6017148.353 5
 94  2 17  1 56 29.9960000  0  8  2 27  7 15 26  9 13  4
  20321570.566    -3697119.314 7  -2852537.211 9
  22108608.121     9209055.042 5   7180172.249 5
  19510032.488   -11293861.835 7  -8721456.337 9
  23491142.246    -4550301.765 2   1106826.138 5
  21703836.645    -9721956.498 6  -7425721.178 6
  22552704.582    -3508306.195 5  -2638409.520 4
  20363655.066   -21576583.535 7 -15243248.571 6
  22214378.770    -8093487.291 5  -6112741.880 5
 94  2 17  1 56 59.9960000  0  8  2 27  7 15 26  9 13  4
  20322180.426    -3693893.539 7  -2850023.612 9
  22123793.809     9288840.956 5   7242343.094 5
  19510850.777   -11289589.942 7  -8718127.573 9
  23498699.035    -4510610.584 2   1137754.358 5
  21706714.480    -9706834.392 6  -7413937.724 6
  22530005.598    -3627606.938 5  -2731371.095 5
  20345377.723   -21672611.570 6 -15318075.554 6
  22191061.293    -8216026.403 5  -6208226.822 5
 94  2 17  1 57 29.9960000  0  8  2 27  7 15 26  9 13  4
  20322825.520    -3690498.362 7  -2847378.008 9
  22139015.559     9368836.877 5   7304677.569 5
  19511738.324   -11284924.028 7  -8714491.780 9
  23506336.035    -4470464.668 1   1169036.898 3
  21709678.426    -9691280.268 6  -7401817.639 6
  22507329.481    -3746766.400 5  -2824222.585 5
  20327204.488   -21768145.893 7 -15392517.839 6
  22167771.059    -8338421.461 5  -6303599.508 5
 94  2 17  1 57 59.9960000  0  7  2 27  7 26  9 13  4
  20323504.801    -3686925.432 7  -2844593.893 9
  22154278.598     9449056.433 5   7367186.295 5
  19512700.691   -11279863.277 7  -8710548.320 9
  21712721.152    -9675298.628 6  -7389364.425 6
  22484685.465    -3865773.194 6  -2916955.116 5
  20309117.637   -21863181.736 7 -15466571.677 6
  22144504.762    -8460679.656 5  -6398865.541 5
 94  2 17  1 58 29.9960000  0  7  2 27  7 26  9 13  4
  20324222.980    -3683168.467 7  -2841666.377 9
  22169588.746     9529503.937 5   7429872.648 5
  19513738.902   -11274413.770 7  -8706301.934 9
  21715838.535    -9658893.292 6  -7376581.045 6
  22462064.402    -3984632.173 6  -3009572.475 5
  20291127.082   -21957718.287 7 -15540236.478 6
  22121266.566    -8582807.411 5  -6494029.910 5
 94  2 17  1 58 59.9960000  0  7  2 27  7 26  9 13  4
  20324971.637    -3679229.295 7  -2838596.884 9
  22184947.996     9610194.477 5   7492748.397 5
  19514845.301   -11268583.885 7  -8701759.150 9
  21719040.629    -9642062.799 6  -7363466.397 6
  22439474.996    -4103351.065 6  -3102080.660 5
  20273228.465   -22051759.362 7 -15613515.186 6
  22098049.129    -8704799.098 5  -6589088.292 5
 94  2 17  1 59 29.9960000  0  7  2 27  7 26  9 13  4
  20325759.285    -3675097.581 7  -2835377.351 9
  22200349.098     9691143.765 5   7555825.743 5
  19516029.191   -11262368.669 7  -8696916.105 9
  21722319.262    -9624818.014 6  -7350028.898 6
  22416905.863    -4221923.870 5  -3194475.008 5
  20255430.285   -22145301.130 7 -15686404.825 6
  22074857.652    -8826666.081 5  -6684049.486 5
 94  2 17  1 59 59.9960000  0  7  2 27  7 26  9 13  4
  20326575.762    -3670779.241 7  -2832012.405 9
  22215800.629     9772340.240 5   7619095.745 5
  19517286.918   -11255773.618 7  -8691777.076 9
  21725683.621    -9607157.570 6  -7336267.514 6
  22394379.613    -4340338.763 5  -3286746.302 5
  20237725.738   -22238341.260 7 -15758903.576 6
  22051688.449    -8948418.957 5  -6778921.780 5
 94  2 17  2  0 29.9960000  0  7  2 27  7 26  9 13  4
  20327438.410    -3666273.787 7  -2828501.642 9
  22231297.824     9853772.406 5   7682549.348 5
  19518611.824   -11248792.284 7  -8686337.059 9
  21729123.145    -9589075.525 6  -7322177.625 6
  22371871.926    -4458590.845 5  -3378890.740 6
  20220118.395   -22330874.382 7 -15831007.262 6
  22028546.590    -9070041.770 5  -6873692.718 5
 94  2 17  2  0 59.9960000  0  7  2 27  7 26  9 13  4
  20328330.348    -3661589.755 7  -2824851.739 9
  22246835.988     9935424.742 5   7746174.539 4
  19520012.879   -11241420.817 7  -8680593.044 9
  21732647.082    -9570589.902 6  -7307773.243 6
  22349400.590    -4576668.682 5  -3470899.382 5
  20202607.270   -22422901.130 7 -15902716.357 6
  22005431.574    -9191533.345 5  -6968361.366 5
 94  2 17  2  1 29.9960000  0  7  2 27  7 26  9 13  4
  20329251.824    -3656738.427 7  -2821071.467 9
  22262408.457    10017261.094 5   7809943.110 5
  19521489.777   -11233671.760 7  -8674554.785 9
  21736234.660    -9551715.059 6  -7293065.577 6
  22326966.879    -4694578.288 5  -3562776.942 6
  20185188.371   -22514424.045 7 -15974032.861 6
  21982331.012    -9312893.466 5  -7062927.636 5
 94  2 17  2  1 59.9960000  0  7  2 27  7 26  9 13  4
  20330204.590    -3651725.905 7  -2817165.587 9
  22278012.660    10099271.403 5   7873847.239 5
  19523038.316   -11225544.286 7  -8668221.668 9
  21739901.762    -9532450.889 6  -7278054.554 6
  22304561.332    -4812330.242 5  -3654531.657 6
  20167866.996   -22605439.958 7 -16044954.314 6
  21959266.598    -9434094.017 5  -7157369.549 5
 94  2 17  2  2 29.9960000  0  7  2 27  7 26  9 13  4
  20331193.637    -3646535.456 7  -2813121.065 9
  22293658.637    10181475.944 5   7937902.727 5
  19524652.230   -11217040.750 7  -8661595.518 9
  21743636.918    -9512802.559 6  -7262744.162 6
  22282182.613    -4929930.619 5  -3746168.244 5
  20150648.035   -22695942.150 7 -16115475.450 6
  21936241.723    -9555109.426 5  -7251667.220 5
 94  2 17  2  2 59.9960000  0  7  2 27  7 26  9 13  4
  20332211.910    -3641173.875 7  -2808943.189 9
  22309339.512    10263882.996 5   8002116.027 5
  19526342.012   -11208174.210 7  -8654686.487 9
  21747452.262    -9492773.142 6  -7247136.839 6
  22259829.895    -5047389.233 5  -3837694.389 5
  20133521.934   -22785932.106 7 -16185597.449 6
  21913247.535    -9675953.391 5  -7345831.284 5
 94  2 17  2  3 29.9960000  0  7  2 27  7 26  9 13  4
  20333268.145    -3635635.161 7  -2804627.299 9
  22325065.543    10346507.366 5   8066498.628 5
  19528098.402   -11198952.681 7  -8647500.866 9
  21751338.246    -9472341.592 6  -7231216.152 6
  22237503.715    -5164708.125 5  -3929111.643 5
  20116497.863   -22875405.788 7 -16255317.159 6
  21890287.027    -9796621.894 6  -7439858.617 5
 94  2 17  2  3 59.9960000  0  7  2 27  7 26  9 13  4
  20334356.043    -3629905.035 7  -2800162.246 9
  22340832.121    10429380.837 5   8131075.339 5
  19529917.856   -11189379.008 7  -8640040.838 9
  21755300.551    -9451496.253 6  -7214973.032 6
  22215209.559    -5281873.897 5  -4020409.601 5
  20099566.973   -22964360.953 7 -16324632.814 6
  21867352.988    -9917122.305 6  -7533754.999 5
 94  2 17  2  4 29.9960000  0  7  2 27  7 26  9 13  4
  20335488.824    -3623972.587 7  -2795539.541 9
  22356650.418    10512504.875 5   8195847.349 4
  19531804.723   -11179459.116 7  -8632311.029 9
  21759350.363    -9430233.745 6  -7198404.858 6
  22192939.887    -5398876.572 5  -4111580.452 5
  20082738.488   -23052802.511 7 -16393548.282 6
  21844448.566   -10037483.072 6  -7627542.553 5
 94  2 17  2  4 59.9960000  0  7  2 27  7 26  9 13  4
  20336652.871    -3617832.364 7  -2790754.938 9
  22372516.324    10595865.698 5   8260803.806 3
  19533765.762   -11169177.673 7  -8624299.502 9
  21763476.230    -9408546.333 6  -7181505.579 6
  22170712.316    -5515702.305 5  -4202613.420 5
  20066009.137   -23140724.317 7 -16462058.720 6
  21821571.160   -10157703.396 6  -7721220.673 5
 94  2 17  2  5 29.9960000  0  7  2 27  7 26  9 13  4
  20337862.395    -3611477.526 7  -2785803.099 8
  22388414.199    10679456.800 4   8325939.755 5
  19535788.340   -11158529.909 7  -8616002.521 9
  21767683.910    -9386437.434 6  -7164277.852 6
  22148516.957    -5632328.890 5  -4293491.212 5
  20049375.418   -23228123.403 7 -16530161.858 7
  21798724.270   -10277761.306 6  -7814772.256 5
 94  2 17  2  5 59.9960000  0  7  2 27  7 26  9 13  4
  20339113.465    -3604906.523 7  -2780682.819 9
  22404369.121    10763260.643 5   8391241.424 4
  19537884.793   -11147507.534 7  -8607413.641 9
  21771966.348    -9363931.415 6  -7146740.714 6
  22126364.246    -5748749.123 5  -4384208.211 4
  20032843.199   -23314996.224 7 -16597854.923 7
  21775912.574   -10397635.469 6  -7908180.641 5
 94  2 17  2  6 29.9960000  0  7  2 27  7 26  9 13  4
  20340403.918    -3598142.918 7  -2775412.441 9
  22420343.527    10847233.334 4   8456674.671 4
  19540053.551   -11136124.945 7  -8598544.081 9
  21776319.481    -9341068.458 6  -7128925.443 6
  22104245.809    -5864988.559 5  -4474784.339 5
  20016411.176   -23401352.114 7 -16665145.180 7
  21753138.934   -10517320.344 6  -8001441.527 5
 94  2 17  2  6 59.9960000  0  7  2 27  7 26  9 13  4
  20341724.043    -3591194.684 7  -2769998.249 8
  22436354.606    10931372.148 3   8522237.414 4
  19542287.231   -11124383.642 7  -8589394.997 9
  21780737.121    -9317854.145 6  -7110836.369 6
  22082162.246    -5981033.600 5  -4565208.972 5
  20000080.316   -23487178.400 7 -16732022.767 7
  21730406.723   -10636786.182 6  -8094531.733 6
 94  2 17  2  7 29.9960000  0  7  2 27  7 26  9 13  4
  20343077.035    -3584072.937 7  -2764448.807 8
  22452395.074    11015683.729 3   8587934.738 4
  19544586.871   -11112302.208 7  -8579980.885 9
  21785219.723    -9294300.293 6  -7092482.710 6
  22060113.027    -6096894.758 5  -4655490.325 5
  19983847.004   -23572481.921 7 -16798492.992 7
  21707711.832   -10756037.745 6  -8187454.973 5
 94  2 17  2  7 59.9960000  0  7  2 27  7 26  9 13  4
  20344470.770    -3576774.739 7  -2758761.883 8
  22468466.590    11100165.376 3   8653764.623 3
  19546948.098   -11099883.910 7  -8570304.276 9
  21789764.402    -9270401.023 6  -7073859.923 6
  22038094.746    -6212594.834 5  -4745646.164 5
  19967711.121   -23657262.433 7 -16864555.687 7
  21685059.262   -10875084.993 6  -8280218.988 5
 94  2 17  2  8 29.9960000  0  7  2 27  7 26  9 13  4
  20345890.520    -3569289.750 7  -2752929.411 8
  22484587.887    11184838.574 4   8719743.732 2
  19549379.449   -11087109.153 7  -8560349.915 9
  21794385.668    -9246114.377 6  -7054935.248 6
  22016111.020    -6328124.681 5  -4835669.357 5
  19951683.426   -23741507.829 7 -16930201.398 7
  21662442.910   -10993936.350 6  -8372830.382 6
 94  2 17  2  8 59.9960000  0  7  2 27  7 26  9 13  4
  20347354.910    -3561612.848 7  -2746947.402 8
  22500745.691    11269719.853 4   8785884.973 4
  19551878.598   -11073968.107 7  -8550110.127 9
  21799088.535    -9221415.416 6  -7035689.318 6
  21994165.309    -6443474.099 5  -4925551.961 5
  19935751.418   -23825221.561 7 -16995432.839 7
  21639855.355   -11112605.580 5  -8465299.827 5
 94  2 17  2  9 29.9960000  0  7  2 27  7 26  9 13  4
  20348848.527    -3553743.396 7  -2740815.347 8
  22516929.231    11354809.856 4   8852188.828 4
  19554456.434   -11060448.945 7  -8539575.715 9
  21803867.574    -9196302.830 6  -7016121.085 5
  21972243.941    -6558650.720 5  -5015299.906 6
  19919922.316   -23908404.788 7 -17060250.887 7
  21617309.707   -11231098.712 6  -8557632.071 6
 94  2 17  2  9 59.9960000  0  7  2 27  7 26  9 13  4
  20350383.480    -3545681.810 7  -2734533.580 8
  22533158.270    11440098.201 3   8918647.363 4
  19557098.566   -11046545.226 7  -8528741.629 9
  21808726.918    -9170784.957 6  -6996237.039 5
  21950362.074    -6673643.845 5  -5104904.875 6
  19904193.543   -23991053.886 7 -17124652.732 7
  21594794.824   -11349412.460 6  -8649824.533 6
 94  2 17  2 10 29.9960000  0  7  2 27  7 26  9 13  4
  20351954.520    -3537435.752 7  -2728108.079 8
  22549430.324    11525581.437 3   8985257.678 3
  19559814.762   -11032273.806 7  -8517621.042 9
  21813650.035    -9144894.294 6  -6976062.502 6
  21928520.762    -6788432.669 5  -5194350.659 5
  19888568.746   -24073175.220 7 -17188643.339 7
  21572317.082   -11467543.183 6  -8741874.362 6
 94  2 17  2 10 59.9960000  0  7  2 27  7 26  9 13  4
  20353555.809    -3529002.379 7  -2721536.609 8
  22565730.113    11611260.901 4   9052020.891 2
  19562595.691   -11017651.509 7  -8506227.037 9
  21818644.215    -9118661.892 6  -6955621.665 5
  21906717.559    -6903008.448 5  -5283630.428 5
  19873040.926   -24154761.289 7 -17252216.854 7
  21549878.020   -11585466.276 6  -8833762.394 6
 94  2 17  2 11 29.9960000  0  7  2 27  7 26  9 13  4
  20355196.340    -3520389.478 7  -2714825.236 8
  22582066.051    11697117.974 4   9118922.525 2
  19565444.895   -11002691.841 7  -8494570.139 9
  21823694.402    -9092108.135 6  -6934930.427 6
  21884951.746    -7017369.496 5  -5372742.880 5
  19857617.129   -24235810.797 7 -17315372.264 7
  21527477.457   -11703168.155 5  -8925478.065 6
 94  2 17  2 11 59.9960000  0  7  2 27  7 26  9 13  4
  20356870.527    -3511587.421 7  -2707966.487 8
  22598445.488    11783146.519 5   9185957.739 2
  19568355.848   -10987393.390 7  -8482649.255 9
  21828806.762    -9065231.483 6  -6913987.553 6
  21863232.770    -7131507.921 5  -5461681.868 5
  19842298.348   -24316320.870 7 -17378107.345 7
  21505125.832   -11820636.441 6  -9017011.709 6
 94  2 17  2 12 29.9960000  0  7  2 27  7 26  9 13  4
  20358583.926    -3502603.646 7  -2700966.121 8
  22614846.801    11869340.995 5   9253122.266 2
  19571329.785   -10971762.394 7  -8470469.239 9
  21833986.613    -9038027.583 6  -6892789.700 6
  21841553.301    -7245427.913 5  -5550450.646 5
  19827079.934   -24396296.332 7 -17440425.836 7
  21482816.395   -11937872.944 6  -9108364.740 6
 94  2 17  2 12 59.9960000  0  7  2 27  7 26  9 13  4
  20360325.566    -3493435.265 7  -2693821.926 8
  22631277.129    11955695.306 4   9320411.355 2
  19574372.645   -10955782.400 7  -8458017.280 9
  21839227.957    -9010467.462 6  -6871314.274 6
  21819916.863    -7359132.594 6  -5639051.652 5
  19811965.879   -24475728.866 7 -17502321.277 7
  21460553.168   -12054869.930 6  -9199531.134 6
 94  2 17  2 13 29.9960000  0  7  2 27  7 26  9 13  4
  20362108.715    -3484081.163 7  -2686532.993 8
  22647739.957    12042195.329 5   9387813.998 4
  19577479.324   -10939451.505 7  -8445291.893 9
  21844545.035    -8982545.718 6  -6849557.066 6
  21798320.121    -7472622.659 6  -5727485.438 5
  19796949.598   -24554624.898 7 -17563798.659 7
  21438332.543   -12171640.871 6  -9290521.386 6
 94  2 17  2 13 59.9960000  0  7  2 27  7 26  9 13  4
  20363922.660    -3474527.473 7  -2679088.541 8
  22664231.020    12128855.157 5   9455341.113 4
  19580653.418   -10922774.366 7  -8432296.702 9
  21849925.340    -8954260.819 6  -6827516.866 6
  21776766.871    -7585893.027 6  -5815748.041 5
  19782041.098   -24632978.095 7 -17624853.054 7
  21416153.356   -12288179.545 6  -9381330.652 6
 94  2 17  2 14 29.9960000  0  7  2 27  7 26  9 13  4
  20365782.676    -3464771.257 7  -2671486.281 8
  22680755.973    12215679.995 5   9522996.850 3
  19583882.481   -10905773.834 7  -8419049.516 9
  21855379.613    -8925612.193 6  -6805193.248 5
  21755252.488    -7698947.409 6  -5903842.329 5
  19767232.629   -24710788.290 7 -17685484.331 7
  21394020.238   -12404493.723 6  -9471965.009 6
 94  2 17  2 14 59.9960000  0  8  2 27  7 12 26  9 13  4
  20367680.356    -3454807.103 7  -2663722.001 8
  22697306.871    12302670.357 5   9590781.547 3
  19587181.191   -10888456.458 7  -8405555.440 9
  22845928.543     -115168.530 2
  21860895.621    -8896606.256 6  -6782591.206 5
  21733778.402    -7811779.394 6  -5991763.336 5
  19752532.121   -24788054.954 7 -17745692.067 7
  21371927.660   -12520584.182 6  -9562425.013 6
 94  2 17  2 15 29.9960000  0  8  2 27  7 12 26  9 13  4
  20369612.957    -3444637.676 7  -2655797.765 8
  22713896.723    12389832.924 5   9658700.433 3
  19590533.356   -10870839.368 7  -8391827.835 9
  22824024.027     -230321.232 3
  21866482.723    -8867261.666 6  -6759725.262 5
  21712353.887    -7924390.807 6  -6079512.454 5
  19737928.574   -24864784.204 7 -17805481.056 7
  21349880.387   -12636453.761 6  -9652712.918 6
 94  2 17  2 15 59.9960000  0  8  2 27  7 12 26  9 13  4
  20371586.051    -3434259.879 7  -2647711.153 8
  22730517.660    12477179.034 5   9726762.346 2
  19593946.262   -10852917.279 7  -8377862.550 9
  22802107.840     -345451.775 3
  21872130.309    -8837567.194 5  -6736586.716 6
  21690966.168    -8036774.514 6  -6167084.134 6
  19723432.731   -24940970.326 7 -17864846.819 7
  21327873.223   -12752086.458 6  -9742816.246 6
 94  2 17  2 16 29.9960000  0  8  2 27  7 12 26  9 13  4
  20373602.652    -3423668.822 7  -2639458.365 8
  22747174.941    12564708.483 5   9794967.102 2
  19597420.285   -10834662.565 7  -8363638.095 9
  22780211.074     -460551.317 3
  21877851.199    -8807513.342 5  -6713168.091 5
  21669629.160    -8148915.908 6  -6254467.021 5
  19709038.246   -25016605.076 7 -17923782.945 7
  21305918.465   -12867473.430 6  -9832728.101 6
 94  2 17  2 16 59.9960000  0  8  2 27  7 12 26  9 13  4
  20375655.254    -3412880.196 7  -2631051.636 8
  22763864.293    12652404.172 5   9863301.413 4
  19600957.512   -10816064.144 7  -8349145.798 9
  22758309.863     -575626.045 3
  21883636.777    -8777127.378 6  -6689490.708 6
  21648332.879    -8260818.625 6  -6341663.907 6
  19694749.957   -25091695.751 7 -17982295.115 7
  21284009.504   -12982607.088 6  -9922442.555 6
 94  2 17  2 17 29.9960000  0  8  2 27  7 12 26  9 13  4
  20377750.770    -3401884.063 7  -2622483.200 8
  22780573.316    12740261.929 4   9931761.998 4
  19604562.559   -10797123.075 7  -8334386.506 9
  22736420.848     -690671.888 3
  21889475.559    -8746417.817 6  -6665561.176 5
  21627082.223    -8372488.387 6  -6428679.277 6
  19680564.129   -25166239.311 7 -18040380.970 7
  21262149.020   -13097476.083 6 -10011950.798 6
 94  2 17  2 17 59.9960000  0  8  2 27  7 12 26  9 13  4
  20379880.652    -3390680.081 7  -2613752.810 8
  22797328.176    12828269.878 5  10000339.646 4
  19608228.270   -10777842.408 7  -8319362.592 9
  22714536.020     -805685.409 4
  21895386.105    -8715381.266 6  -6641376.831 5
  21605876.106    -8483923.750 6  -6515511.987 6
  19666484.856   -25240233.125 7 -18098038.442 7
  21240340.949   -13212080.178 6 -10101252.630 6
 94  2 17  2 18 29.9960000  0  8  2 27  7 12 26  9 13  4
  20382048.910    -3379271.251 7  -2604862.815 8
  22814104.191    12916423.958 5  10069031.136 2
  19611962.762   -10758246.083 7  -8304092.713 9
  22692662.504     -920669.635 4        -0.13211
  21901349.426    -8684037.949 5  -6616953.456 5
  21584716.098    -8595127.263 6  -6602164.031 6
  19652506.363   -25313681.398 7 -18155270.825 7
  21218580.254   -13326424.059 6 -10190351.668 6
 94  2 17  2 19 29.9950000  0  8  2 27  7 12 26  9 13  4
  20386506.546    -3355854.092 7  -2586615.638 8
  22847734.983    13093165.703 4  10206751.981 3
  19619579.827   -10718203.028 7  -8272890.309 9
  22648909.390    -1150544.248 5
  21913456.710    -8620392.555 5  -6567359.619 5
  21542521.640    -8816854.477 6  -6774938.403 6
  19624863.429   -25458941.525 7 -18268460.464 7
  21175206.968   -13554355.169 6 -10367960.207 6
 94  2 17  2 19 59.9950000  0  8  2 27  7 12 26  9 13  4
  20388793.273    -3343844.074 7  -2577257.178 8
  22864592.819    13181757.879 4  10275784.848 3
  19623473.718   -10697752.853 7  -8256955.090 9
  22627050.577    -1265424.434 4        -0.49011
  21919614.687    -8588044.447 5  -6542153.291 5
  21521491.866    -8927374.740 6  -6861058.048 6
  19611202.202   -25530743.981 7 -18324410.394 7
  21153592.937   -13667947.601 6 -10456473.713 6
 94  2 17  2 20 29.9950000  0  8  2 27  7 12 26  9 13  4
  20391115.554    -3331637.451 7  -2567745.507 8
  22881477.296    13270484.100 3  10344922.150 4
  19627420.773   -10677000.228 7  -8240784.199 9
  22605199.429    -1380264.954 5    -89486.530 1
  21925832.640    -8555358.776 5  -6516683.941 5
  21500505.124    -9037668.219 6  -6947000.982 5
  19597642.905   -25601995.163 7 -18379930.759 7
  21132023.382   -13781287.009 6 -10544790.054 6
 94  2 17  2 20 59.9950000  0  8  2 27  7 12 26  9 13  4
  20393475.046    -3319241.901 7  -2558086.636 8
  22898379.882    13359326.828 3  10414150.226 2
  19631430.023   -10655923.281 7  -8224360.583 9
  22583345.765    -1495064.683 4   -178940.802 1
  21932122.991    -8522326.939 5  -6490944.844 5
  21479556.554    -9147740.632 6  -7032771.652 5
  19584189.046   -25672695.318 7 -18435021.756 7
  21110505.780   -13894371.950 6 -10632908.124 6
 94  2 17  2 21 29.9950000  0  8  2 27  7 12 26  9 13  4
  20395868.187    -3306659.613 7  -2548282.245 8
  22915308.718    13448276.658 3  10483461.818 2
  19635508.929   -10634511.256 7  -8207675.874 9
  22561513.663    -1609822.186 5   -268362.209 1
  21938467.585    -8488968.360 5  -6464951.160 5
  21458656.819    -9257578.657 6  -7118359.692 6
  19570838.249   -25742844.147 7 -18489683.143 7
  21089038.968   -14007179.753 6 -10720810.221 6
 94  2 17  2 21 59.9950000  0  8  2 27  7 12 26  9 13  4
  20398298.882    -3293887.463 7  -2538329.907 8
  22932259.226    13537335.103 3  10552858.038 3
  19639644.624   -10612770.645 7  -8190735.128 9
  22539690.038    -1724531.679 5   -357746.195 2
  21944869.702    -8455311.104 5  -6438724.707 5
  21437805.421    -9367154.460 6  -7203743.413 6
  19557596.640   -25812437.111 7 -18543911.398 7
  21067623.210   -14119693.984 6 -10808483.577 6
 94  2 17  2 22 29.9950000  0  8  2 27  7 12 26  9 13  4
  20400763.733    -3280926.362 7  -2528230.340 8
  22949220.827    13626512.923 3  10622347.257 3
  19643839.780   -10590710.004 7  -8173544.999 9
  22517864.296    -1839197.201 5   -447095.859 1
  21951334.273    -8421368.462 5  -6412275.901 5
  21417001.843    -9476461.109 6  -7288917.389 6
  19544459.202   -25881479.727 7 -18597710.810 7
  21046272.757   -14231928.272 6 -10895938.796 6
 94  2 17  2 22 59.9950000  0  8  2 27  7 12 26  9 13  4
  20403269.194    -3267765.076 7  -2517974.775 8
  22966219.194    13715825.336 3  10691941.366 2
  19648097.835   -10568343.671 7  -8156116.668 9
  22496054.437    -1953813.029 5   -536406.860 2
  21957844.616    -8387128.905 5  -6385595.719 5
  21396258.101    -9585478.869 6  -7373866.259 6
  19531426.108   -25949967.648 7 -18651077.982 7
  21024967.288   -14343868.354 6 -10983164.753 6
 94  2 17  2 23 29.9950000  0  8  2 27  7 12 26  9 13  4
  20405817.733    -3254375.354 7  -2507541.218 8
  22983251.913    13805292.624 4  10761656.104 2
  19652409.062   -10545681.485 7  -8138457.815 9
  22474253.179    -2068367.573 5   -625670.078 3
  21964420.562    -8352599.279 5  -6358689.520 5
  21375566.718    -9694189.419 6  -7458575.717 6
  19518498.452   -26017890.585 7 -18704004.916 7
  21003728.405   -14455501.712 6 -11070151.712 6
 94  2 17  2 23 59.9950000  0  8  2 27  7 12 26  9 13  4
  20408407.601    -3240756.377 7  -2496929.023 7
  23000303.194    13894911.695 4  10831489.160 1
  19656776.874   -10522734.429 7  -8120576.966 9
  22452459.577    -2182870.728 5   -714893.261 3
  21971042.312    -8317785.925 5  -6331562.234 5
  21354936.788    -9802616.424 6  -7543064.240 6
  19505678.265   -26085260.039 7 -18756500.558 7
  20982533.437   -14566863.700 6 -11156927.219 6
 94  2 17  2 24 29.9950000  0  8  2 27  7 12 26  9 13  4
  20411044.812    -3226909.366 7  -2486139.127 8
  23017385.366    13984678.639 4  10901437.461 1
  19661202.335   -10499485.711 7  -8102461.075 9
  22430686.218    -2297321.759 5   -804075.839 4
  21977724.202    -8282673.208 5  -6304201.683 5
  21334354.577    -9910777.441 6  -7627345.487 6
  19492963.858   -26152076.459 7 -18808565.267 7
  20961396.101   -14677947.726 6 -11243486.145 6
 94  2 17  2 24 59.9950000  0  8  2 27  7 12 26  9 13  4
  20413722.233    -3212834.573 7  -2475171.752 7
  23034492.421    14074583.256 5  10971492.986 1
  19665681.687   -10475943.484 7  -8084116.467 9
  22408914.733    -2411719.892 5   -893217.211 5
  21984458.890    -8247276.590 5  -6276619.895 5
  21313823.718   -10018678.972 6  -7711424.541 6
  19480356.312   -26218341.001 7 -18860199.946 7
  20940314.374   -14788744.808 6 -11329821.453 6
 94  2 17  2 25 29.9950000  0  8  2 27  7 12 26  9 13  4
  20416441.491    -3198551.429 7  -2464042.023 8
  23051622.976    14164614.968 4  11041647.624 2
  19670215.444   -10452099.530 7  -8065536.745 9
  22387158.155    -2526059.729 5   -982313.134 4
  21991247.765    -8211603.457 5  -6248822.655 5
  21293338.687   -10126327.749 6  -7795306.681 6
  19467852.062   -26284049.462 7 -18911401.312 7
  20919280.304   -14899261.648 6 -11415938.420 6
 94  2 17  2 25 59.9950000  0  8  2 27  7 12 26  9 13  4
  20419195.116    -3184075.055 7  -2452761.705 7
  23068776.038    14254764.825 4  11111894.302 3
  19674814.937   -10427944.761 7  -8046714.832 9
  22365410.499    -2640341.795 5  -1071364.042 5
  21998089.069    -8175656.837 5  -6220812.308 5
  21272899.843   -10233723.748 6  -7878991.836 6
  19455453.202   -26349204.207 7 -18962171.209 7
  20898301.491   -15009501.004 6 -11501839.148 6
 94  2 17  2 26 29.9950000  0  8  2 27  7 12 26  9 13  4
  20421986.569    -3169407.450 7  -2441332.402 7
  23085953.702    14345020.055 3  11182223.143 1
  19679469.054   -10403492.858 7  -8027661.393 9
  22343677.679    -2754565.560 6  -1160369.531 5
  22004979.476    -8139444.446 5  -6192594.858 5
  21252515.421   -10340856.901 6  -7962472.176 6
  19443159.593   -26413805.978 7 -19012510.221 7
  20877380.788   -15119444.235 6 -11587509.147 6
 94  2 17  2 26 59.9950000  0  8  2 24  7 12 26  9 13  4
  20424818.991    -3154536.704 7  -2429744.791 8
  22933566.624          -0.49213
  19684175.155   -10378754.158 7  -8008384.472 9
  22321947.632    -2868719.347 5  -1249320.477 5
  22011914.921    -8102970.359 5  -6164173.472 5
  21232183.749   -10447702.318 6  -8045728.310 6
  19430973.327   -26477845.496 7 -19062411.109 7
  20856516.702   -15229080.535 6 -11672939.964 6
 94  2 17  2 27 29.9950000  0  8  2 24  7 12 26  9 13  4
  20427683.226    -3139458.647 7  -2417995.641 8
  22908514.218     -131641.232 3
  19688936.374   -10353738.707 7  -7988891.903 9
  22300241.358    -2982806.223 5  -1338219.286 5
  22018910.718    -8066235.051 5  -6135548.555 5
  21211903.983   -10554255.777 6  -8128756.940 6
  19418892.671   -26541326.728 7 -19111876.983 7
  20835714.241   -15338403.003 6 -11758126.245 6
 94  2 17  2 27 59.9950000  0  8  2 24  7 12 26  9 13  4
  20430600.530    -3124148.290 7  -2406065.480 8
  22883464.608     -263244.534 3        -0.36012
  19693744.640   -10328455.714 7  -7969190.853 9
  22278548.101    -3096819.865 5  -1427061.027 5
  22025954.913    -8029227.589 5  -6106711.593 5
  21191689.983   -10660499.461 6  -8211544.186 6
  19406917.757   -26604245.388 7 -19160904.477 7
  20814971.101   -15447392.995 6 -11843053.466 6
 94  2 17  2 28 29.9950000  0  8  2 24  7 12 26  9 13  4
  20433551.835    -3108620.072 7  -2393965.577 8
  22858444.694     -394798.504 4   -102509.800 2
  19698605.655   -10302921.049 7  -7949293.701 9
  22256858.773    -3210764.392 5  -1515848.920 5
  22033049.171    -7991955.652 5  -6077668.519 5
  21171528.851   -10766433.374 6  -8294090.043 6
  19395051.382   -26666607.512 7 -19209498.304 7
  20794302.999   -15556039.750 6 -11927713.211 6
 94  2 17  2 28 59.9950000  0  8  2 24  7 12 26  9 13  4
  20436548.577    -3092886.379 7  -2381705.531 8
  22833419.460     -526307.872 5   -204984.510 3
  19703512.812   -10277129.881 7  -7929196.674 9
  22235194.116    -3324639.822 5  -1604582.957 4
  22040184.929    -7954418.495 5  -6048418.787 5
  21151426.280   -10872065.040 6  -8376400.385 6
  19383292.366   -26728414.477 7 -19257659.549 7
  20773689.296   -15664339.396 6 -12012102.494 6
 94  2 17  2 29 29.9950000  0  8  2 24  7 12 26  9 13  4
  20439577.671    -3076960.193 7  -2369295.515 8
  22808394.452     -657788.251 4   -307436.673 4
  19708472.124   -10251074.234 7  -7908893.565 9
  22213536.718    -3438444.063 5  -1693261.529 5
  22047390.171    -7916605.878 5  -6018954.421 5
  21131381.358   -10977399.202 6  -8458478.889 6
  19371635.562   -26789666.372 7 -19305388.271 7
  20753147.624   -15772294.801 6 -12096223.533 6
 94  2 17  2 29 59.9950000  0  8  2 24  7 12 26  9 13  4
  20442644.913    -3060852.982 7  -2356744.435 8
  22783380.015     -789246.559 4   -409871.600 3
  19713481.741   -10224741.556 7  -7888374.584 9
  22191895.999    -3552175.755 5  -1781883.582 5
  22054629.468    -7878520.148 5  -5989277.230 5
  21111393.546   -11082441.675 6  -8540330.111 6
  19360083.054   -26850363.596 7 -19352684.779 7
  20732666.023   -15879919.313 6 -12180086.727 7
 94  2 17  2 30 29.9950000  0  8  2 24  7 12 26  9 13  4
  20445744.757    -3044562.894 7  -2344050.864 7
  22758366.741     -920695.620 5   -512299.337 5
  19718549.077   -10198117.221 7  -7867628.337 9
  22170268.452    -3665828.064 5  -1870443.787 5
  22061931.023    -7840162.888 5  -5959388.448 5
  21091459.687   -11187197.193 6  -8621957.734 6
  19348640.874   -26910501.278 7 -19399545.278 7
  20712249.726   -15987219.424 6 -12263697.157 7
 94  2 17  2 30 59.9950000  0  8  2 24  7 12 26  9 13  4
  20448880.679    -3028076.707 7  -2331204.465 7
  22733353.327    -1052137.990 4   -614721.857 5
  19723672.343   -10171199.707 7  -7846653.646 9
  22148658.374    -3779395.598 5  -1958937.927 5
  22069286.890    -7801523.412 5  -5929279.774 5
  21071579.530   -11291665.858 6  -8703361.846 6
  19337305.749   -26970076.021 7 -19445967.123 7
  20691890.093   -16094210.927 6 -12347067.095 7
 94  2 17  2 31 29.9950000  0  8  2 24  7 12 26  9 13  4
  20452054.062    -3011396.327 7  -2318206.760 8
  22708336.687    -1183579.361 3   -717143.604 5
  19728848.218   -10144000.940 7  -7825459.796 9
  22127059.624    -3892884.637 5  -2047370.908 5
  22076685.851    -7762615.789 5  -5898962.146 5
  21051756.866   -11395855.713 6  -8784548.723 6
  19326075.147   -27029095.780 7 -19491956.515 7
  20671581.304   -16200920.763 6 -12430217.571 7
 94  2 17  2 31 59.9950000  0  8  2 24  7 12 26  9 13  4
  20455269.132    -2994502.406 7  -2305042.645 8
  22683321.804    -1315010.148 4   -819557.110 3
  19734074.429   -10116522.124 7  -7804047.719 9
  22105477.858    -4006289.641 5  -2135738.379 4
  22084144.726    -7723451.441 5  -5868444.450 5
  21031979.476   -11499762.185 6  -8865514.770 6
  19314946.991   -27087557.053 7 -19537510.729 7
  20651331.702   -16307346.384 6 -12513146.562 7
 94  2 17  2 32 29.9950000  0  8  2 24  7 12 26  9 13  4
  20458527.983    -2977380.157 7  -2291700.647 8
  22658322.202    -1446420.407 4   -921954.641 5
  19739357.249   -10088769.218 7  -7782422.075 9
  22083916.194    -4119604.199 5  -2224035.397 5
  22091644.944    -7684017.411 5  -5837716.619 5
  21012266.319   -11603373.337 6  -8946250.700 6
  19303929.640   -27145455.744 7 -19582626.563 7
  20631136.023   -16413465.564 6 -12595836.783 7
 94  2 17  2 32 59.9950000  0  8  2 24  7 12 26  9 13  4
  20461830.491    -2960029.425 7  -2278180.567 7
  22633321.499    -1577795.266 4  -1024324.565 4
  19744689.647   -10060743.927 7  -7760584.178 9
  22062370.327    -4232825.368 5  -2312259.638 4
  22099204.687    -7644312.994 5  -5806778.119 5
  20992610.390   -11706675.680 6  -9026745.997 6
  19293020.929   -27202790.820 7 -19627303.214 7
  20611005.983   -16519251.529 6 -12678267.358 7
 94  2 17  2 33 29.9950000  0  8  2 24  7 12 26  9 13  4
  20465176.968    -2942452.123 7  -2264483.979 8
  22608328.757    -1709132.676 5  -1126665.318 4
  19750072.312   -10032451.308 7  -7738537.980 9
  22040843.101    -4345958.322 5  -2400415.144 4
  22106805.694    -7604354.059 5  -5775641.281 5
  20973007.968   -11809668.048 6  -9106999.769 6
  19282214.608   -27259569.531 7 -19671546.337 7
  20590942.054   -16624690.064 6 -12760427.193 7
 94  2 17  2 33 59.9950000  0  8  2 24  7 12 26  9 13  4
  20468566.413    -2924635.223 7  -2250600.681 8
  22583349.507    -1840414.909 5  -1228963.081 5
  19755508.835   -10003887.890 7  -7716280.753 9
  22019333.913    -4458994.781 5  -2488495.449 5
  22114460.194    -7564130.900 5  -5744298.568 5
  20953471.030   -11912328.705 6  -9186995.056 6
  19271515.421   -27315785.602 7 -19715351.043 7
  20570951.804   -16729741.172 6 -12842285.150 7
 94  2 17  2 34 29.9950000  0  8  2 24  7 12 26  9 13  4
  20472000.194    -2906582.907 7  -2236533.935 8
  22558376.444    -1971637.028 5  -1331213.967 3
  19760991.944    -9975064.392 7  -7693820.884 9
  21997840.663    -4571935.074 5  -2576500.840 4
  22122163.140    -7523644.880 5  -5712751.005 5
  20934000.616   -12014648.614 6  -9266724.825 6
  19260925.921   -27371441.906 7 -19758719.566 7
  20551035.358   -16834396.135 6 -12923834.416 7
 94  2 17  2 34 59.9950000  0  8  2 24  7 12 26  9 13  4
  20475479.023    -2888308.355 7  -2222294.015 8
  22533416.538    -2102795.573 5  -1433415.325 4
  19766525.358    -9945998.242 7  -7671171.921 9
  21976370.944    -4684778.728 5  -2664430.923 5
  22129910.858    -7482925.494 5  -5681021.614 5
  20914594.983   -12116632.118 6  -9346192.469 7
  19250442.882   -27426539.943 7 -19801653.071 7
  20531193.624   -16938662.668 6 -13005081.010 7
 94  2 17  2 35 29.9950000  0  8  2 24  7 12 26  9 13  4
  20478998.843    -2869817.146 7  -2207885.279 8
  22508466.827    -2233890.244 5  -1535566.909 4
  19772098.952    -9916700.602 7  -7648342.582 9
  21954907.585    -4797524.105 5  -2752284.418 5
  22137707.858    -7441984.391 5  -5649119.454 5
  20895250.929   -12218287.824 6  -9425404.681 7
  19240063.319   -27481080.363 7 -19844152.075 7
  20511425.882   -17042554.830 6 -13086035.896 7
 94  2 17  2 35 59.9950000  0  8  2 24  7 12 26  9 13  4
  20482554.937    -2851111.160 6  -2193309.188 8
  22483532.335    -2364927.629 5  -1637673.847 4
  19777717.632    -9887185.344 7  -7625343.673 9
  21933479.757    -4910170.188 6  -2840060.542 4
  22145525.460    -7400833.747 5  -5617054.015 5
  20875971.702   -12319618.820 6  -9504363.859 7
  19229790.624   -27535064.337 7 -19886217.480 7
  20491721.093   -17146086.447 6 -13166709.832 7
 94  2 17  2 36 29.9950000  0  8  2 24  7 12 26  9 13  4
  20486155.530    -2832202.699 6  -2178575.298 7
  22458615.616    -2495894.681 5  -1739725.957 3
  19783375.233    -9857448.145 7  -7602171.829 9
  21912059.452    -5022710.142 5  -2927753.954 5
  22153404.202    -7359479.306 5  -5584829.751 5
  20856746.351   -12420631.739 6  -9583075.198 6
  19219622.913   -27588487.243 7 -19927845.701 7
  20472091.327   -17249271.176 6 -13247113.454 7
 94  2 17  2 36 59.9950000  0  8  2 24  7 12 26  9 13  4
  20489794.233    -2813098.419 7  -2163688.858 7
  22433701.444    -2626782.401 5  -1841716.264 4
  19789076.788    -9827483.692 7  -7578822.891 9
  21890664.780    -5135138.849 5  -3015360.684 5
  22161309.218    -7317922.630 5  -5552447.922 5
  20837585.937   -12521330.593 6  -9661541.826 6
  19209565.218   -27641346.538 7 -19969034.728 7
  20452517.398   -17352109.089 6 -13327246.845 7
 94  2 17  2 37 29.9950000  0  8  2 24  7 12 26  9 13  4
  20493462.851    -2793789.684 6  -2148643.089 7
  22408810.913    -2757601.260 5  -1943652.893 4
  19794827.108    -9797275.788 7  -7555284.253 9
  21869291.898    -5247453.144 5  -3102878.251 5
  22169258.437    -7276150.604 5  -5519898.278 5
  20818482.390   -12621707.189 6  -9739757.331 6
  19199614.687   -27693641.264 7 -20009783.837 7
  20433010.601   -17454605.229 6 -13407113.911 7
 94  2 17  2 37 59.9950000  0  8  2 24  7 12 26  9 13  4
  20497180.101    -2774264.260 6  -2133428.458 7
  22383931.054    -2888354.531 5  -2045538.430 4
  19800623.874    -9766813.942 7  -7531547.738 9
  21847942.843    -5359648.555 5  -3190303.184 5
  22177252.327    -7234161.336 5  -5487179.383 5
  20799444.648   -12721747.378 6  -9817710.692 6
  19189769.554   -27745369.448 7 -20050091.485 7
  20413576.913   -17556760.403 6 -13486715.293 7
 94  2 17  2 38 29.9950000  0  8  2 24  7 12 26  9 13  4
  20500936.773    -2754516.815 6  -2118040.847 7
  22359060.741    -3019038.781 5  -2147370.157 4
  19806470.968    -9736090.065 7  -7507607.045 9
  21826615.030    -5471724.088 5  -3277634.712 5
  22185281.983    -7191961.670 5  -5454296.533 5
  20780474.687   -12821447.075 6  -9895398.741 6
  19180036.187   -27796532.530 7 -20089958.785 7
  20394203.140   -17658568.222 6 -13566046.020 7
 94  2 17  2 38 59.9950000  0  8  2 24  7 12 26  9 13  4
  20504738.147    -2734534.260 6  -2102470.016 7
  22334199.499    -3149686.664 4  -2249173.573 4
  19812366.812    -9705111.920 7  -7483468.213 9
  21805306.132    -5583692.988 5  -3364883.128 5
  22193344.437    -7149570.242 5  -5421264.220 5
  20761564.272   -12920814.581 6  -9972827.939 7
  19170403.132   -27847145.987 7 -20129397.819 7
  20374890.663   -17760033.397 6 -13645109.755 7
 94  2 17  2 39 29.9950000  0  8  2 24  7 12 26  9 13  4
  20508593.397    -2714288.584 6  -2086694.150 7
  22309339.585    -3280282.378 4  -2350936.333 4
  19818311.038    -9673857.237 7  -7459113.897 9
  21784026.952    -5695542.148 5  -3452038.246 5
  22201455.913    -7106970.856 5  -5388069.905 5
  20742720.257   -13019829.556 6 -10049982.441 7
  19160877.569   -27897199.687 7 -20168400.676 7
  20355654.741   -17861132.242 6 -13723888.041 7
 94  2 17  2 39 59.9950000  0  8  2 24  7 12 26  9 13  4
  20512498.468    -2693783.312 6  -2070716.033 7
  22284511.913    -3410802.191 5  -2452639.995 4
  19824310.648    -9642330.898 7  -7434547.908 9
  21762761.273    -5807273.117 5  -3539101.285 5
  22209596.288    -7064164.710 5  -5354714.457 5
  20723947.101   -13118490.580 6 -10126861.124 7
  19151459.819   -27946697.165 7 -20206970.113 7
  20336489.640   -17961844.258 6 -13802364.881 7
 94  2 17  2 40 29.9950000  0  8  2 24  7 12 26  9 13  4
  20516445.507    -2673035.119 6  -2054548.604 7
  22259690.733    -3541228.579 5  -2554270.811 3
  19830360.007    -9610537.962 7  -7409774.177 9
  21741523.366    -5918882.358 5  -3626069.468 5
  22217782.944    -7021143.746 5  -5321191.640 5
  20705239.351   -13216799.005 6 -10203465.052 7
  19142146.155   -27995637.808 7 -20245105.650 7
  20317402.054   -18062149.640 6 -13880524.890 7
 94  2 17  2 40 59.9950000  0  8  2 24  7 12 26  9 13  4
  20520431.866    -2652061.676 6  -2038205.652 7
  22234890.429    -3671557.032 5  -2655825.352 4
  19836461.351    -9578486.729 7  -7384799.187 9
  21720310.233    -6030367.632 6  -3712941.042 5
  22226018.101    -6977900.541 5  -5287495.632 5
  20686598.616   -13314752.280 6 -10279792.248 7
  19132939.280   -28044021.874 7 -20282807.498 7
  20298395.249   -18162038.126 6 -13958360.021 7
 94  2 17  2 41 29.9950000  0  8  2 24  7 12 26  9 13  4
  20524463.960    -2630881.874 6  -2021701.902 7
  22210112.335    -3801767.176 5  -2757287.712 4
  19842607.483    -9546193.517 7  -7359635.639 9
  21699118.585    -6141719.697 6  -3799708.838 5
  22234285.187    -6934430.755 5  -5253623.100 4
  20668027.718   -13412341.849 6 -10355836.037 7
  19123837.476   -28091842.657 7 -20320070.421 7
  20279465.624   -18261507.483 6 -14035868.577 7
 94  2 17  2 41 59.9950000  0  8  2 24  7 12 26  9 13  4
  20528533.577    -2609509.246 6  -2005047.920 7
  22185351.452    -3931869.037 5  -2858665.648 5
  19848792.632    -9513682.627 7  -7334302.469 9
  21677956.280    -6252937.446 6  -3886371.967 5
  22242596.530    -6890754.106 5  -5219589.355 5
  20649524.679   -13509576.334 6 -10431603.139 7
  19114846.749   -28139101.807 7 -20356895.703 7
  20260614.249   -18360570.863 6 -14113060.780 7
 94  2 17  2 42 29.9950000  0  8  2 24  7 12 26  9 13  4
  20532636.218    -2587942.415 6  -1988242.579 7
  22160618.788    -4061872.640 5  -2959967.086 5
  19855016.437    -9480966.949 7  -7308809.720 9
  21656818.991    -6364023.035 6  -3972932.126 5
  22250939.937    -6846889.960 5  -5185409.520 5
  20631090.929   -13606454.311 6 -10507092.444 7
  19105958.194   -28185804.147 7 -20393287.116 7
  20241835.944   -18459246.408 6 -14189950.774 7
 94  2 17  2 42 59.9950000  0  8  2 24  7 12 26  9 13  4
  20536782.390    -2566165.527 6  -1971273.579 7
  22135888.804    -4191794.207 5  -3061204.583 5
  19861281.866    -9448056.331 7  -7283165.087 9
  21635702.944    -6474974.800 6  -4059388.006 5
  22259324.476    -6802854.353 5  -5151096.048 5
  20612722.444   -13702977.085 6 -10582304.950 7
  19097177.249   -28231950.996 7 -20429245.672 7
  20223128.741   -18557537.482 6 -14266541.191 7
 94  2 17  2 43 29.9950000  0  8  2 24  7 12 26  9 13  4
  20540966.616    -2544158.977 6  -1954125.619 7
  22111186.523    -4321625.681 5  -3162371.892 5
  19867581.093    -9414948.103 7  -7257366.449 9
  21614617.812    -6585786.665 6  -4145734.890 5
  22267741.218    -6758650.426 5  -5116651.432 5
  20594420.655   -13799143.627 6 -10657239.883 7
  19088501.507   -28277538.791 7 -20464768.607 7
  20204506.437   -18655441.097 6 -14342829.679 7
 94  2 17  2 43 59.9950000  0  8  2 24  7 12 26  9 13  4
  20545199.749    -2521911.994 6  -1936790.320 7
  22086498.476    -4451370.318 5  -3263471.506 5
  19873921.515    -9381634.693 7  -7231407.938 9
  21593555.569    -6696462.042 6  -4231975.411 5
  22276176.843    -6714275.418 4  -5082073.517 5
  20576191.648   -13894955.213 6 -10731898.248 7
  19079932.663   -28322573.685 7 -20499860.715 7
  20185947.085   -18752944.131 6 -14418806.035 7
 94  2 17  2 44 29.9950000  0  8  2 24  7 12 26  9 13  4
  20549482.249    -2499420.353 6  -1919264.356 7
  22061827.390    -4581022.370 5  -3364499.021 5
  19880300.429    -9348106.678 7  -7205282.201 9
  21572517.077    -6806997.537 6  -4318106.911 5
  22284660.187    -6669718.100 5  -5047353.553 5
  20558025.640   -13990405.463 6 -10806275.036 7
  19071467.366   -28367055.338 7 -20534521.721 7
  20167472.062   -18850030.049 6 -14494457.362 7
 94  2 17  2 44 59.9950000  0  8  2 24  7 12 26  9 13  4
  20553809.890    -2476681.513 6  -1901545.781 7
  22037169.358    -4710568.631 5  -3465444.089 5
  19886722.374    -9314353.483 7  -7178981.007 9
  21551512.702    -6917383.643 6  -4404122.014 5
  22293169.327    -6624969.586 4  -5012484.600 5
  20539931.429   -14085495.922 6 -10880371.472 7
  19063110.765   -28410976.820 7 -20568746.229 7
  20149084.046   -18946681.422 6 -14569770.082 7
 94  2 17  2 45 29.9950000  0  8  2 24  7 12 26  9 13  4
  20558182.937    -2453706.556 6  -1883643.225 7
  22012544.694    -4839989.968 5  -3566291.822 5
  19893189.116    -9280369.817 7  -7152500.213 9
  21530537.648    -7027624.742 6  -4490024.105 5
  22301720.148    -6580024.331 4  -4977462.318 5
  20521905.905   -14180228.823 6 -10954189.277 7
  19054855.741   -28454345.451 7 -20602539.943 7
  20130769.015   -19042909.078 6 -14644752.628 7
 94  2 17  2 45 59.9950000  0  8  2 24  7 12 26  9 13  4
  20562594.952    -2430497.640 6  -1865558.350 7
  21987939.601    -4969284.640 5  -3667040.864 5
  19899699.577    -9246153.964 7  -7125838.498 9
  21509589.804    -7137715.521 6  -4575809.079 5
  22310321.054    -6534880.660 5  -4942285.451 5
  20503949.054   -14274591.237 6 -11027718.393 7
  19046708.921   -28497159.044 7 -20635901.162 7
  20112536.835   -19138717.287 6 -14719408.349 7
 94  2 17  2 46 29.9950000  0  8  2 24  7 12 26  9 13  4
  20567054.624    -2407060.753 6  -1847295.831 7
  21963360.022    -5098443.846 5  -3767684.348 5
  19906257.413    -9211711.145 7  -7098999.933 9
  21488667.663    -7247654.295 6  -4661475.611 5
  22318939.171    -6489553.657 4  -4906965.713 4
  20486062.882   -14368573.582 6 -11100951.371 7
  19038666.507   -28539418.539 7 -20668830.624 7
  20094384.296   -19234119.920 6 -14793748.026 7
 94  2 17  2 46 59.9950000  0  8  2 24  7 12 26  9 13  4
  20571559.819    -2383390.164 6  -1828851.224 7
  21938813.976    -5227449.861 5  -3868208.448 5
  19912853.687    -9177038.256 7  -7071982.080 9
  21467775.608    -7357433.982 6  -4747018.184 5
  22327606.952    -6444044.344 5  -4871503.929 3
  20468255.671   -14462156.593 6 -11173873.168 7
  19030733.413   -28581119.816 7 -20701325.097 7
  20076306.991   -19329111.005 6 -14867767.009 7
 94  2 17  2 47 29.9950000  0  8  2 24  7 12 26  9 13  4
  20576105.351    -2359505.806 6  -1810240.036 7
  21914287.655    -5356332.298 5  -3968636.262 5
  19919493.319    -9142156.019 7  -7044801.110 9
  21446916.444    -7467068.868 6  -4832447.910 5
  22336295.937    -6398369.836 5  -4835913.416 4
  20450523.687   -14555338.269 6 -11246482.257 7
  19022900.358   -28622280.567 7 -20733398.392 7
  20058302.093   -19423710.179 6 -14941480.625 7
 94  2 17  2 47 59.9950000  0  8  2 24  7 12 26  9 13  4
  20580694.343    -2335393.466 6  -1791451.204 7
  21889782.812    -5485084.706 5  -4068962.761 5
  19926172.351    -9107055.548 7  -7017450.070 9
  21426084.140    -7576541.215 6  -4917751.014 5
  22345019.812    -6352525.826 4  -4800190.819 4
  20432873.374   -14648098.054 6 -11318762.578 7
  19015170.866   -28662885.816 7 -20765038.819 7
  20040384.023   -19517888.487 6 -15014866.283 8
 94  2 17  2 48 29.9950000  0  8  2 24  7 12 26  9 13  4
  20585325.554    -2311057.687 6  -1772488.255 7
  21865314.952    -5613695.825 5  -4169179.151 5
  19932892.171    -9071734.076 7  -6989926.828 9
  21405281.749    -7685848.331 6  -5002925.363 5
  22353775.288    -6306517.652 5  -4764340.297 4
  20415299.538   -14740444.011 6 -11390720.443 7
  19007549.327   -28702935.992 7 -20796246.727 7
  20022542.437   -19611633.709 6 -15087914.470 7
 94  2 17  2 48 59.9950000  0  8  2 24  7 12 26  9 13  4
  20589999.343    -2286507.365 6  -1753358.127 6
  21840866.265    -5742181.285 5  -4269297.629 5
  19939652.397    -9036202.519 7  -6962239.890 9
  21384512.265    -7794992.075 6  -5087972.401 5
  22362559.710    -6260350.627 5  -4728365.960 4
  20397800.444   -14832400.795 6 -11462375.054 7
  19000034.437   -28742436.122 7 -20827026.033 7
  20004785.210   -19704956.495 6 -15160633.496 8
 94  2 17  2 49 29.9950000  0  8  2 24  7 12 26  9 13  4
  20594714.702    -2261726.422 6  -1734048.299 6
  21816432.413    -5870543.463 5  -4369320.049 5
  19946456.569    -9000458.048 7  -6934387.033 9
  21363773.671    -7903962.262 6  -5172884.192 5
  22371377.741    -6214021.819 4  -4692265.629 4
  20380371.835   -14923987.286 6 -11533741.124 7
  18992626.077   -28781379.050 7 -20857371.149 7
  19987107.116   -19797857.563 6 -15233023.897 7
 94  2 17  2 49 59.9950000  0  8  2 24  7 12 26  9 13  4
  20599470.069    -2236719.927 6  -1714562.723 6
  21792036.960    -5998783.626 5  -4469247.374 5
  19953294.038    -8964516.240 7  -6906380.427 9
  21343071.499    -8012765.272 6  -5257665.728 5
  22380222.444    -6167546.226 4  -4656050.890 5
  20363007.171   -15015228.174 6 -11604837.898 7
  18985316.476   -28819774.238 7 -20887289.454 7
  19969509.382   -19890344.391 6 -15305091.531 7
 94  2 17  2 50 29.9950000  0  8  2 24  7 12 26  9 13  4
  20604271.702    -2211485.211 6  -1694899.299 6
  21767657.257    -6126896.533 5  -4569075.538 5
  19960170.132    -8928382.769 7  -6878224.468 9
  21322402.140    -8121392.720 6  -5342310.453 5
  22389090.718    -6120928.392 4  -4619725.309 4
  20345714.444   -15106109.593 6 -11675654.565 7
  18978118.530   -28857616.707 7 -20916777.078 7
  19951987.694   -19982419.748 6 -15376838.524 8
 94  2 17  2 50 59.9950000  0  8  2 24  7 12 26  9 13  4
  20609115.226    -2186028.658 6  -1675063.025 6
  21743296.265    -6254896.534 5  -4668815.727 5
  19967082.507    -8892068.143 7  -6849927.339 9
  21301761.233    -8229848.896 6  -5426821.711 6
  22397989.405    -6074178.578 5  -4583296.856 4
  20328493.882   -15196614.798 6 -11746178.074 7
  18971018.249   -28894913.847 7 -20945839.764 7
  19934539.522   -20074081.590 6 -15448263.309 8
 94  2 17  2 51 59.9940000  0  8  2 24  7 12 26  9 13  4
  20618929.924    -2134446.033 6  -1634868.769 6
  21694657.799    -6510495.988 5  -4867983.977 5
  19981013.861    -8818861.663 7  -6792883.307 9
  21260581.971    -8446240.237 6  -5595438.219 6
  22415851.486    -5980287.348 4  -4510134.834 3
  20294284.080   -15376380.073 6 -11886254.857 7
  18957133.072   -28967879.940 7 -21002696.420 7
  19899912.869   -20256066.540 6 -15590069.698 8
 94  2 17  2 52 29.9940000  0  8  2 24  7 12 26  9 13  4
  20623906.096    -2108311.169 6  -1614503.933 6
  21670378.596    -6638070.531 5  -4967392.641 5
  19988035.174    -8781957.825 7  -6764127.054 9
  21240044.986    -8554164.622 6  -5679535.103 6
  22424826.861    -5933138.979 5  -4473395.859 4
  20277306.697   -15465592.956 6 -11955771.371 7
  18950347.018   -29003542.656 7 -21030485.528 6
  19882731.291   -20346352.416 6 -15660422.297 8
 94  2 17  2 52 59.9940000  0  8  2 24  7 12 26  9 13  4
  20628921.361    -2081946.205 6  -1593959.818 6
  21646130.791    -6765492.028 5  -5066682.038 5
  19995097.440    -8744849.889 7  -6735211.781 9
  21219541.565    -8661909.444 6  -5763492.061 6
  22433826.088    -5885859.297 5  -4436554.571 4
  20260413.604   -15554376.446 6 -12024953.284 7
  18943665.119   -29038664.741 7 -21057853.364 6
  19865641.963   -20436161.879 6 -15730403.666 8
 94  2 17  2 53 29.9940000  0  8  2 24  7 12 26  9 13  4
  20633987.783    -2055337.619 6  -1573225.836 6
  21621918.197    -6892751.586 5  -5165845.248 5
  20002195.213    -8707546.685 7  -6706144.339 8
  21199074.486    -8769467.409 6  -5847303.421 6
  22442850.518    -5838442.816 5  -4399606.622 4
  20243593.979   -15642752.366 6 -12093817.603 7
  18937083.369   -29073242.415 7 -21084796.986 7
  19848641.768   -20525497.090 6 -15800015.490 8
 94  2 17  2 53 59.9940000  0  8  2 24  7 12 26  9 13  4
  20639095.768    -2028491.833 6  -1552307.061 6
  21597725.932    -7019852.708 5  -5264885.010 6
  20009326.463    -8670070.324 7  -6676941.970 9
  21178642.049    -8876837.907 6  -5930968.703 6
  22451888.666    -5790908.836 5  -4362567.157 4
  20226855.486   -15730733.953 6 -12162374.650 7
  18930607.721   -29107278.505 7 -21111318.598 6
  19831726.744   -20614372.533 6 -15869269.046 8
 94  2 17  2 54 29.9940000  0  8  2 24  7 12 26  9 13  4
  20644252.119    -2001406.791 6  -1531201.813 6
  21573578.025    -7146791.605 5  -5363798.367 6
  20016492.932    -8632412.277 7  -6647598.036 8
  21158246.143    -8984016.540 6  -6014484.472 5
  22460955.596    -5743268.113 4  -4325444.502 5
  20210183.947   -15818326.120 6 -12230628.255 7
  18924233.736   -29140771.902 7 -21137417.316 6
  19814903.619   -20702791.368 6 -15938166.813 8
 94  2 17  2 54 59.9940000  0  8  2 24  7 12 26  9 13  4
  20649449.908    -1974096.033 6  -1509920.711 6
  21549451.158    -7273563.223 5  -5462581.342 6
  20023694.447    -8594571.262 7  -6618111.515 8
  21137888.135    -9091006.531 6  -6097853.266 6
  22470042.494    -5695525.536 5  -4288242.505 4
  20193590.580   -15905527.247 6 -12298577.158 7
  18917962.104   -29173729.329 7 -21163098.416 6
  19798163.205   -20790765.496 6 -16006718.051 8
 94  2 17  2 55 29.9940000  0  8  2 24  7 12 26  9 13  4
  20654688.830    -1946555.020 6  -1488460.176 6
  21525353.283    -7400160.927 5  -5561228.837 5
  20030927.682    -8556556.931 7  -6588489.952 8
  21117564.354    -9197805.633 6  -6181073.304 6
  22479142.541    -5647681.131 4  -4250961.149 4
  20177075.236   -15992311.980 6 -12366201.593 7
  18911790.963   -29206151.835 7 -21188362.679 7
  19781507.791   -20878285.302 6 -16074915.268 8
 94  2 17  2 55 59.9940000  0  8  2 24  7 12 26  9 13  4
  20659973.666    -1918775.704 6  -1466813.961 6
  21501303.885    -7526572.146 5  -5659731.037 5
  20038200.244    -8518341.099 7  -6558711.375 9
  21097278.947    -9304406.644 6  -6264138.989 6
  22488271.471    -5599731.729 5  -4213597.973 4
  20160645.619   -16078647.066 6 -12433475.664 7
  18905725.057   -29238036.201 7 -21213207.620 6
  19764937.479   -20965348.127 6 -16142756.400 8
 94  2 17  2 56 29.9940000  0  8  2 24  7 12 26  9 13  4
  20665304.002    -1890762.836 6  -1444985.750 6
  21477284.033    -7652808.572 5  -5758097.005 5
  20045511.041    -8479919.851 7  -6528772.728 8
  21077032.682    -9410811.347 6  -6347051.712 6
  22497419.260    -5551668.116 4  -4176145.835 4
  20144305.229   -16164528.587 6 -12500396.312 7
  18899759.549   -29269387.176 7 -21237636.936 6
  19748461.877   -21051955.402 6 -16210242.566 8
 94  2 17  2 56 59.9940000  0  8  2 24  7 12 26  9 13  4
  20670682.479    -1862504.396 6  -1422966.172 6
  21453293.697    -7778869.592 5  -5856326.287 5
  20052857.002    -8441311.635 7  -6498688.392 8
  21056821.135    -9517011.707 6  -6429805.204 6
  22506583.447    -5503474.571 4  -4138592.420 5
  20128047.932   -16249954.105 6 -12566961.612 7
  18893894.315   -29300200.402 7 -21261647.216 6
  19732065.135   -21138101.769 7 -16277369.571 8
 94  2 17  2 57 29.9940000  0  8  2 24  7 12 26  9 13  4
  20676111.557    -1833983.810 6  -1400742.349 6
  21429335.150    -7904756.392 5  -5954419.829 5
  20060240.674    -8402507.474 7  -6468451.380 8
  21036649.963    -9623001.374 6  -6512394.499 6
  22515778.705    -5455149.795 4  -4100936.749 5
  20111879.424   -16334921.021 6 -12633169.564 7
  18888136.182   -29330473.484 7 -21285236.621 6
  19715763.822   -21223783.167 6 -16344134.264 8
 94  2 17  2 57 59.9940000  0  8  2 24  7 12 26  9 13  4
  20681583.729    -1805211.964 6  -1378322.720 6
  21405412.268    -8030484.776 5  -6052389.944 5
  20067664.361    -8363511.901 7  -6438065.205 8
  21016519.268    -9728787.225 6  -6594824.993 6
  22525000.900    -5406709.588 4  -4063191.131 5
  20095793.690   -16419458.218 6 -12699042.697 7
  18882476.088   -29360216.516 7 -21308412.980 7
  19699542.283   -21309013.403 6 -16410547.407 8
 94  2 17  2 58 29.9940000  0  8  2 24  7 12 26  9 13  4
  20687102.744    -1776211.221 6  -1355724.743 6
  21381518.135    -8156057.685 5  -6150238.911 6
  20075109.400    -8324359.071 6  -6407556.503 8
  20996429.408    -9834373.329 6  -6677099.843 6
  22534245.135    -5358165.572 5  -4025364.639 4
  20079783.291   -16503584.579 6 -12764595.684 7
  18876914.713   -29389437.317 7 -21331182.417 7
  19683413.268   -21393782.920 6 -16476601.550 8
 94  2 17  2 58 59.9940000  0  8  2 24  7 12 26  9 13  4
  20692668.127    -1746967.535 6  -1332937.452 6
  21357655.393    -8281451.910 5  -6247948.641 5
  20082594.963    -8285041.690 7  -6376919.567 8
  20976378.088    -9939748.949 6  -6759210.690 6
  22543504.627    -5309505.319 4  -3987447.550 5
  20063854.830   -16587297.524 6 -12829826.512 8
  18871453.682   -29418128.650 7 -21353539.284 6
  19667372.940   -21478082.408 7 -16542289.421 8
 94  2 17  2 59 29.9940000  0  8  2 24  7 12 26  9 13  4
  20698280.150    -1717478.516 6  -1309958.989 6
  21333827.752    -8406661.533 5  -6345514.521 6
  20090111.736    -8245540.213 7  -6346139.184 8
  20956365.541   -10044905.628 6  -6841150.923 6
  22552784.424    -5260730.349 4  -3949441.132 5
  20048007.682   -16670589.061 6 -12894728.972 7
  18866095.822   -29446286.149 7 -21375480.171 7
  19651418.510   -21561895.653 6 -16607598.409 8
 94  2 17  2 59 59.9940000  0  8  2 24  7 12 26  9 13  4
  20703932.354    -1687765.627 6  -1286806.095 6
  21310041.588    -8531672.934 5  -6442925.952 6
  20097658.510    -8205878.735 6  -6315234.125 8
  20936398.611   -10149839.698 6  -6922917.721 6
  22562085.119    -5211843.811 4  -3911347.698 3
  20032234.369   -16753458.241 6 -12959302.350 7
  18860839.096   -29473909.502 7 -21397004.850 7
  19635571.291   -21645211.835 7 -16672520.078 8
 94  2 17  3  0 29.9940000  0  8  2 24  7 12 26  9 13  4
  20709629.588    -1657831.502 6  -1263480.796 6
  21286287.010    -8656475.370 5  -6540174.562 5
  20105233.041    -8166072.991 7  -6284216.639 8
  20916472.018   -10254552.374 6  -7004511.986 6
  22571401.111    -5162860.517 3  -3873178.880 3
  20016544.033   -16835905.665 6 -13023547.079 7
  18855684.197   -29501003.696 7 -21418117.184 7
  19619810.190   -21728027.000 7 -16737051.353 8
 94  2 17  3  0 59.9940000  0  7  2 24  7 12  9 13  4
  20715371.197    -1627661.280 6  -1239971.533 6
  21262580.869    -8781072.953 5  -6637263.540 6
  20112836.549    -8126111.662 6  -6253077.928 8
  20896591.158   -10359044.338 6  -7085934.258 6
  20000935.885   -16917934.629 6 -13087465.742 7
  18850627.596   -29527572.969 7 -21438820.489 7
  19604142.729   -21810348.127 6 -16801197.640 8
 94  2 17  3  1 29.9940000  0  7  2 24  7 12  9 13  4
  20721155.221    -1597258.595 6  -1216281.135 6
  21238901.650    -8905473.794 5  -6734199.218 6
  20120470.557    -8086006.526 7  -6221827.156 8
  20876744.549   -10463314.310 6  -7167183.559 6
  19985409.369   -16999541.886 6
  18845670.971   -29553620.010 7 -21459116.874 7
  19588574.635   -21892167.225 7
 94  2 17  3  1 59.9940000  0  7  2 24  7 12  9 13  4
  20726984.088    -1566632.897 6  -1192416.942 6
  21215272.010    -9029666.341 5  -6830972.589 6
  20128126.494    -8045766.144 7  -6190471.007 8
  20856946.674   -10567363.127 6  -7248260.528 6
  19969961.783   -17080718.315 6
  18840814.447   -29579149.662 7 -21479010.086 6
  19573096.893   -21973497.332 6
 94  2 17  3  2 29.9940000  0  7  2 24  7 12  9 13  4
  20732859.447    -1535764.918 6  -1168363.971 6
  21191683.229    -9153647.407 6  -6927581.135 6
  20135814.127    -8005367.868 7  -6158991.820 8
  20837190.893   -10671182.584 6  -7329158.781 6
  19954598.143   -17161441.446 6
  18836053.830   -29604157.175 7 -21498496.445 7
  19557712.283   -22054340.190 6
 94  2 17  3  2 59.9940000  0  7  2 24  7 12  9 13  4
  20738781.080    -1504648.465 6  -1144117.384 6
  21168124.744    -9277429.410 5  -7024034.611 6
  20143535.182    -7964794.586 7  -6127376.264 8
  20817478.393   -10774766.613 6  -7409873.566 6
  19939328.322   -17241688.438 6
  18831393.221   -29628640.644 7 -21517574.449 7
  19542419.830   -22134702.603 6
 94  2 17  3  3 29.9940000  0  7  2 24  7 12  9 13  4
  20744749.846    -1473295.924 6  -1119686.838 6
  21144612.041    -9401009.566 6  -7120330.790 6
  20151287.322    -7924055.933 6  -6095631.849 8
  20797811.971   -10878115.617 6  -7490405.241 6
  19924147.768   -17321458.371 6
  18826835.018   -29652604.118 7 -21536247.262 7
  19527218.057   -22214589.597 6
 94  2 17  3  3 59.9940000  0  7  2 24  7 12  9 13  4
  20750759.533    -1441693.768 6  -1095061.779 6
  21121137.588    -9524363.839 5  -7216450.943 6
  20159075.236    -7883127.096 7  -6063739.219 8
  20778192.541   -10981217.469 6  -7570744.326 6
  19909060.471   -17400744.257 6
  18822374.150   -29676039.485 7 -21554508.567 6
  19512107.135   -22293992.623 6
 94  2 17  3  4 29.9940000  0  7  2 24  7 12  9 13  4
  20756822.166    -1409840.077 6  -1070240.731 6
  21097700.869    -9647523.297 6  -7312419.300 6
  20166897.322    -7842024.360 7  -6031711.106 8
  20758616.650   -11084083.014 6  -7650899.267 6
  19894057.815   -17479572.814 6
  18818012.565   -29698961.583 7 -21572369.929 7
  19497093.690   -22372913.015 7
 94  2 17  3  4 59.9940000  0  7  2 24  7 12  9 13  4
  20762929.354    -1377740.610 6  -1045228.150 6
  21074298.221    -9770491.802 5  -7408238.871 6
  20174746.729    -7800767.612 7  -5999562.971 8
  20739089.182   -11186708.894 6  -7730867.462 6
  19879139.471   -17557959.296 7
  18813748.877   -29721370.653 7 -21589831.526 7
  19482167.932   -22451345.895 7
 94  2 17  3  5 29.9940000  0  7  2 24  7 12  9 13  4
  20769082.533    -1345411.670 6  -1020036.756 6
  21050940.775    -9893252.062 6  -7503896.169 6
  20182625.932    -7759373.800 7  -5967308.054 8
  20719606.994   -11289099.191 6  -7810652.068 6
  19864309.822   -17635907.060 6
  18809581.127   -29743275.260 7 -21606900.026 7
  19467330.533   -22529284.967 6
 94  2 17  3  5 59.9940000  0  7  2 24  7 12  9 13  4
  20775280.275    -1312842.276 6   -994658.003 6
  21027619.971   -10015802.911 6  -7599390.291 6
  20190526.900    -7717840.969 6  -5934944.785 8
  20700165.447   -11391247.832 6  -7890248.376 6
  19849565.697   -17713389.087 7
  18805511.408   -29764672.838 7 -21623573.451 7
  19452597.307   -22606731.138 6
 94  2 17  3  6 29.9940000  0  7  2 24  7 12  9 13  4
  20781524.807    -1280028.561 6   -969088.888 6
  21004340.729   -10138131.936 6  -7694711.558 6
  20198459.080    -7676170.513 7  -5902474.302 8
  20680775.002   -11493142.611 6  -7969646.884 6
  19834910.408   -17790382.561 6
  18801534.869   -29785555.574 7 -21639845.694 7
  19437954.205   -22683675.690 7
 94  2 17  3  6 59.9940000  0  7  2 24  7 12  9 13  4
  20787808.549    -1246993.451 6   -943347.241 6
  20981107.010   -10260221.408 6  -7789846.170 6
  20206413.924    -7634361.375 6  -5869895.727 8
  20661434.744   -11594787.957 6  -8048851.032 6
  19820356.440   -17866890.544 7
  18797656.471   -29805931.646 7 -21655723.143 7
  19423405.557   -22760135.150 7
 94  2 17  3  7 29.9940000  0  8  2 24  7 12  5  9 13  4
  20794141.158    -1213727.355 6   -917425.610 6
  20957925.869   -10382061.286 6  -7884786.287 6
  20214400.690    -7592388.310 6  -5837189.443 8
  20642140.815   -11696177.445 6  -8127855.793 6
  22298506.768          -0.08112
  19805890.432   -17942898.446 6
  18793877.471   -29825798.778 7 -21671204.014 7
  19408947.596   -22836101.162 6
 94  2 17  3  7 59.9940000  0  8  2 24  7 12  5  9 13  4
  20800509.705    -1180228.986 6   -891322.975 6
  20934780.369   -10503656.825 6  -7979536.015 6
  20222420.994    -7550250.181 6  -5804354.523 8
  20622897.463   -11797305.337 6  -8206656.706 7
  22278634.893     -104433.682 3        -0.11311
  19791520.119   -18018426.650 6
  18790191.744   -29845155.264 7 -21686286.966 7
  19394586.088   -22911568.391 7
 94  2 17  3  8 29.9940000  0  8  2 24  7 12  5  9 13  4
  20806934.307    -1146512.275 6   -865050.219 6
  20911690.916   -10625006.333 6  -8074094.042 6
  20230467.236    -7507960.902 6  -5771401.835 8
  20603701.424   -11898171.413 6  -8285253.616 6
  22258758.994     -208877.654 2    -81384.955 1
  19777233.244   -18093495.233 6
  18786604.252   -29864005.058 7 -21700975.112 7
  19380324.260   -22986522.417 7
 94  2 17  3  8 59.9940000  0  8  2 24  7 12  5  9 13  4
  20813387.096    -1112576.436 6   -838606.720 6
  20888639.385   -10746122.920 5  -8168470.554 6
  20238542.400    -7465527.958 6  -5738337.185 8
  20584558.658   -11998780.917 6  -8363650.616 7
  22238883.604     -313334.072 3   -162779.519 1
  19763034.588   -18168107.998 6 -14061626.514 8
  18783114.580   -29882357.382 7 -21715275.601 7
  19366156.518   -23060964.310 7 -17775703.321 8
 94  2 17  3  9 29.9940000  0  8  2 24  7 12  5  9 13  4
  20819891.135    -1078408.622 6   -811982.438 6
  20865639.065   -10867010.100 6  -8262668.340 6
  20246643.721    -7422954.107 6  -5705162.750 8
  20565461.971   -12099129.194 6  -8441844.054 7
  22219000.822     -417814.594 3   -244192.884 3
  19748928.752   -18242249.405 6 -14119399.022 8
  18779716.213   -29900211.726 7 -21729188.067 7
  19352094.416   -23134867.845 7 -17833290.472 8
 94  2 17  3  9 59.9940000  0  8  2 24  7 12  5  9 13  4
  20826439.502    -1044007.801 6   -785176.606 6
  20842684.729   -10987651.168 6  -8356674.331 6
  20254769.877    -7380251.727 6  -5671888.157 8
  20546417.674   -12199210.513 6  -8519829.464 7
  22199112.963     -522312.879 2   -325620.075 2
  19734907.330   -18315922.450 6 -14176806.575 8
  18776413.674   -29917566.389 7 -21742711.168 7
  19338135.080   -23208224.210 7 -17890451.248 8
 94  2 17  3 10 29.9940000  0  8  2 24  7 12  5  9 13  4
  20833029.900    -1009361.124 6   -758179.197 6
  20819771.440   -11108034.513 6  -8450479.497 6
  20262918.604    -7337418.344 6  -5638511.482 8
  20527423.174   -12299022.393 6  -8597604.931 7
  22179230.049     -626842.804 3   -407071.962 1
  19720979.158   -18389114.623 6 -14233839.419 8
  18773206.400   -29934423.347 7 -21755846.435 7
  19324280.838   -23281037.979 7 -17947189.225 8
 94  2 17  3 10 59.9940000  0  8  2 24  7 12  5  9 13  4
  20839673.877     -974462.280 6   -730985.291 6
  20796916.252   -11228157.905 6  -8544082.122 6
  20271098.447    -7294442.029 6  -5605023.435 8
  20508480.010   -12398561.349 6  -8675167.726 7
  22159330.416     -731411.952 3   -488554.370 1
  19707142.385   -18461831.955 6 -14290502.248 8
  18770092.760   -29950783.192 7 -21768594.349 7
  19310524.986   -23353317.138 7 -18003510.625 8
 94  2 17  3 11 29.9940000  0  8  2 24  7 12  5  9 13  4
  20846358.346     -939312.703 6   -703596.046 6
  20774107.190   -11348016.077 6  -8637478.077 6
  20279303.486    -7251329.820 6  -5571429.503 8
  20489593.010   -12497819.488 6  -8752511.710 6
  22139419.283     -836005.502 3   -570055.767 2
  19693394.377   -18534079.542 6 -14346799.043 8
  18767075.135   -29966642.316 7 -21780952.079 7
  19296870.088   -23425056.139 6 -18059411.120 8
 94  2 17  3 11 59.9940000  0  8  2 24  7 12  5  9 13  4
  20853095.939     -903914.406 6   -676012.942 6
  20751349.275   -11467612.108 6  -8730669.779 6
  20287529.111    -7208104.058 6  -5537747.086 8
  20470759.213   -12596797.261 6  -8829637.232 6
  22119517.869     -940597.386 3   -651555.911 2
  19679731.385   -18605853.960 6 -14402727.152 8
  18764151.744   -29982005.282 7 -21792923.208 7
  19283321.338   -23496277.838 7 -18114908.519 8
 94  2 17  3 12 29.9940000  0  8  2 24  7 12  5  9 13  4
  20859879.666     -868256.973 6   -648227.945 6
  20728637.986   -11586962.222 6  -8823669.842 6
  20295776.299    -7164763.670 6  -5503975.354 8
  20451975.479   -12695496.423 7  -8906545.654 7
  22099619.424    -1045184.543 3   -733052.347 2
  19666171.182   -18677144.593 6 -14458278.272 8
  18761321.807   -29996878.128 7 -21804512.427 7
  19269866.705   -23566981.305 7 -18170002.110 9
 94  2 17  3 12 59.9940000  0  8  2 24  7 12  5  9 13  4
  20866713.635     -832338.273 5   -620239.339 6
  20705969.596   -11706067.560 6  -8916479.186 6
  20304045.408    -7121304.623 6  -5470111.149 8
  20433248.260   -12793909.058 6  -8983230.807 7
  22079720.338    -1149741.792 3   -814525.473 2
  19652697.065   -18747936.688 6 -14513440.925 8
  18758585.893   -30011257.016 7 -21815716.733 7
  19256513.096   -23637150.249 7 -18224679.175 9
 94  2 17  3 13 29.9940000  0  8  2 24  7 12  5  9 13  4
  20873601.729     -796166.077 6   -592053.210 6
  20683352.518   -11824929.804 6  -9009099.098 6
  20312336.135    -7077737.208 6  -5436162.515 8
  20414572.658   -12892044.610 6  -9059700.055 7
  22059829.400    -1254275.961 3   -895980.654 4
  19639322.096   -18818218.504 6 -14568205.965 8
  18755940.736   -30025155.871 7 -21826546.995 7
  19243258.908   -23706792.974 7 -18278946.213 9
 94  2 17  3 13 59.9940000  0  8  2 24  7 12  5  9 13  4
  20880532.791     -759722.175 6   -563655.390 6
  20660783.322   -11943526.579 6  -9101512.143 6
  20320652.424    -7034038.356 6  -5402111.456 8
  20395954.955   -12989889.421 6  -9135942.725 7
  22039934.479    -1358790.498 3   -977420.514 3
  19626046.979   -18887984.478 7 -14622569.048 8
  18753389.393   -30038565.320 7 -21836995.903 7
  19230106.268   -23775897.932 7 -18332794.210 8
 94  2 17  3 14 29.9940000  0  8  2 24  7 12  5  9 13  4
  20887519.893     -723008.269 6   -535047.152 6
  20638267.471   -12061850.339 6  -9193712.458 6
  20328994.932    -6990196.496 6  -5367948.953 8
  20377389.221   -13087442.739 6  -9211958.270 6
  22020048.932    -1463312.428 3  -1058866.085 1
  19612863.127   -18957258.757 6 -14676548.996 8
  18750930.166   -30051488.797 7 -21847066.127 7
  19217065.854   -23844463.101 7 -18386221.586 9
 94  2 17  3 14 59.9940000  0  8  2 24  7 12  5  9 13  4
  20894554.033     -686046.510 6   -506245.788 6
  20615806.721   -12179890.776 6  -9285691.991 6
  20337363.174    -6946226.408 6  -5333686.551 8
  20358883.213   -13184704.069 6  -9287746.313 7
  22000152.205    -1567849.505 4  -1140323.534 1
  19599778.565   -19026041.675 6 -14730146.048 8
  18748561.408   -30063930.238 7 -21856760.741 7
  19204112.408   -23912515.516 7 -18439249.411 9
 94  2 17  3 15 29.9940000  0  8  2 24  7 12  5  9 13  4
  20901630.885     -648843.543 6   -477256.450 6
  20593401.408   -12297633.018 6  -9377439.184 6
  20345751.580    -6902141.513 6  -5299334.670 8
  20340433.002   -13281668.056 6  -9363302.650 6
  21980257.690    -1672409.246 5  -1221798.611 3
  19586782.557   -19094323.910 6 -14783352.978 8
  18746285.955   -30075888.566 7 -21866078.906 7
  19191260.275   -23980058.744 7 -18491880.473 9
 94  2 17  3 15 59.9940000  0  8  2 24  7 12  5  9 13  4
  20908757.080     -611407.502 5   -448085.512 6
  20571051.400   -12415078.788 6  -9468955.343 6
  20354161.822    -6857953.902 6  -5264902.768 8
  20322036.932   -13378331.861 6  -9438625.066 7
  21960355.408    -1776990.896 5  -1303290.743 2
  19573883.408   -19162107.049 6 -14836170.980 9
  18744102.143   -30087365.464 7 -21875021.923 7
  19178501.838   -24047087.665 7 -18544110.779 9
 94  2 17  3 16 29.9940000  0  8  2 24  7 12  5  9 13  4
  20915925.213     -573751.378 6   -418743.097 6
  20548759.119   -12532220.394 6  -9560234.497 6
  20362586.611    -6813664.742 6  -5230391.727 8
  20303698.307   -13474691.191 6  -9513710.240 7
  21940458.658    -1881585.463 4  -1384792.950 3
  19561082.221   -19229370.257 6 -14888583.859 8
  18742009.572   -30098360.843 7 -21883589.736 7
  19165848.658   -24113602.483 7 -18595940.474 9
 94  2 17  3 16 59.9940000  0  8  2 24  7 12  5  9 13  4
  20923126.143     -535891.355 6   -389241.787 6
  20526522.713   -12649064.978 6  -9651282.207 6
  20371035.244    -6769281.192 6  -5195807.140 8
  20285422.494   -13570745.847 6  -9588558.005 7
  21920546.674    -1986184.740 4  -1466298.833 4
  19548388.900   -19296099.189 7 -14940580.422 8
  18740008.393   -30108878.787 7 -21891785.523 7
  19153287.244   -24179586.697 7 -18647356.722 9
 94  2 17  3 17 29.9940000  0  8  2 24  7 12  5  9 13  4
  20930372.518     -497814.738 6   -359571.697 6
  20504347.135   -12765614.152 6  -9742099.721 6
  20379501.213    -6724794.393 6  -5161142.096 7
  20267201.244   -13666493.424 6  -9663166.479 7
  21900640.322    -2090784.229 4  -1547804.873 3
  19535782.736   -19362312.791 6 -14992175.420 8
  18738097.440   -30118921.561 7 -21899611.043 7
  19140843.096   -24245003.559 7 -18698330.876 9
 94  2 17  3 17 59.9940000  0  8  2 24  7 12  5  9 13  4
  20937662.369     -459502.498 5   -329718.020 6
  20482221.447   -12881873.317 6  -9832691.262 6
  20387987.518    -6680188.630 6  -5126384.355 7
  20249039.002   -13761930.933 6  -9737533.358 7
  21880743.088    -2195379.882 5  -1629307.917 5
  19523280.096   -19428037.399 6 -15043389.392 8
  18736277.182   -30128490.373 7 -21907067.243 7
  19128502.361   -24309849.342 7 -18748860.034 9
 94  2 17  3 18 29.9940000  0  8  2 24  7 12  5  9 13  4
  20944999.119     -420943.811 5   -299672.272 5
  20460156.705   -12997841.290 6  -9923055.891 6
  20396500.775    -6635457.414 6  -5091528.855 7
  20230936.041   -13857052.445 6  -9811653.999 7
  21860833.877    -2299972.184 4  -1710808.374 5
  19510864.158   -19493279.417 6 -15094227.310 8
  18734547.104   -30137583.869 7 -21914153.076 7
  19116272.252   -24374117.635 7 -18798939.206 9
 94  2 17  3 18 59.9940000  0  8  2 24  7 12  5  9 13  4
  20952389.166     -382127.514 6   -269425.812 6
  20438141.557   -13113536.383 6 -10013207.872 6
  20405034.127    -6590611.603 6  -5056584.059 7
  20212897.049   -13951863.002 6  -9885532.343 7
  21840931.135    -2404573.893 5  -1792316.136 4
  19498537.807   -19558044.210 6 -15144693.377 8
  18732905.065   -30146211.253 7 -21920875.697 7
  19104154.947   -24437806.898 7 -18848567.169 9
 94  2 17  3 19 29.9940000  0  8  2 24  7 12  5  9 13  4
  20959828.127     -343028.714 5   -238959.232 6
  20416175.479   -13228954.547 6 -10103144.080 7
  20413593.096    -6545631.721 6  -5021534.802 7
  20194916.924   -14046353.190 6  -9959161.040 7
  21821022.947    -2509185.367 5  -1873831.516 5
  19486305.322   -19622326.744 6 -15194783.649 8
  18731351.971   -30154367.971 7 -21927231.573 7
  19092141.432   -24500923.491 7 -18897748.901 9
 94  2 17  3 19 59.9940000  0  8  2 24  7 12  5  9 13  4
  20967314.072     -303660.368 5   -208282.581 6
  20394257.377   -13344108.543 6 -10192874.441 6
  20422174.400    -6500532.013 6  -4986392.159 7
  20176996.838   -14140524.892 6 -10032541.575 7
  21801112.158    -2613819.098 5  -1955364.236 5
  19474170.963   -19686109.296 6 -15244484.332 8
  18729888.604   -30162060.157 7 -21933225.470 7
  19080236.049   -24563488.012 7 -18946500.454 9
 94  2 17  3 20 29.9940000  0  8  2 24  7 12  5  9 13  4
  20974860.346     -264041.847 5   -177411.010 6
  20372399.150   -13458994.131 6 -10282395.647 7
  20430780.760    -6455316.452 6  -4951159.245 7
  20159136.533   -14234372.127 6 -10105669.264 7
  21781196.705    -2718476.012 5  -2036915.037 5
  19462135.877   -19749350.705 6 -15293763.346 8
  18728512.377   -30169286.504 7 -21938856.375 7
  19068435.783   -24625500.074 7 -18994821.511 9
 94  2 17  3 20 59.9940000  0  8  2 24  7 12  5  9 13  4
  20982441.736     -224175.066 5   -146346.036 6
  20350589.846   -13573606.309 6 -10371703.813 6
  20439407.799    -6409978.865 6  -4915831.253 7
  20141340.088   -14327891.747 6 -10178541.674 6
  21761283.400    -2823149.064 5  -2118478.427 5
  19450203.565   -19812043.021 7 -15342614.498 8
  18727227.760   -30176048.126 7 -21944125.156 6
  19056742.760   -24686954.840 7 -19042708.316 9
 94  2 17  3 21 29.9940000  0  8  2 24  7 12  5  9 13  4
  20990077.533     -184070.842 5   -115095.973 6
  20328836.994   -13687935.135 6 -10460791.181 7
  20448056.010    -6364528.248 6  -4880415.188 7
  20123605.518   -14421081.102 6 -10251156.756 7
  21741361.994    -2927823.437 5  -2200042.835 5
  19438376.697   -19874188.699 6 -15391039.685 8
  18726027.260   -30182346.906 7 -21949033.290 7
  19045151.494   -24747860.648 7 -19090167.368 9
 94  2 17  3 21 59.9940000  0  8  2 24  7 12  5  9 13  4
  20997751.416     -143738.143 6    -83667.901 5
  20307134.791   -13801960.607 6 -10549642.151 7
  20456722.033    -6318975.680 6  -4844919.672 7
  20105936.533   -14513936.342 6 -10323511.475 7
  21721442.291    -3032485.504 5  -2281597.661 5
  19426660.721   -19935773.548 6 -15439027.870 8
  18724917.338   -30188183.555 7 -21953581.311 7
  19033663.604   -24808223.268 6 -19137203.154 9
 94  2 17  3 22 29.9940000  0  8  2 24  7 12  5  9 13  4
  21005471.268     -103180.326 5    -52064.410 5
  20285498.697   -13915669.246 6 -10638246.264 7
  20465414.541    -6273308.677 6  -4809334.991 7
  20088330.768   -14606459.326 6 -10395607.293 7
  21701530.174    -3137122.140 5  -2363132.654 5
  19415046.127   -19996814.245 6 -15486592.039 8
  18723893.572   -30193564.449 7 -21957774.203 7
  19022279.752   -24868047.933 7 -19183819.748 9
 94  2 17  3 22 59.9940000  0  8  2 24  7 12  5  9 13  4
  21013231.018      -62377.811 5    -20270.224 5
  20263921.408   -14029051.752 6 -10726596.246 7
  20474126.775    -6227526.438 6  -4773660.505 7
  20070786.322   -14698649.924 6 -10467444.097 7
  21681628.713    -3241729.064 5  -2444644.503 5
  19403528.260   -20057341.232 7 -15533755.913 8
  18722956.604   -30198494.061 7 -21961615.446 7
  19010996.877   -24927332.881 7 -19230015.783 9
 94  2 17  3 23 29.9940000  0  8  2 24  7 12  5  9 13  4
  21021045.986      -21327.439 5     11717.079 5
  20242413.572   -14142088.688 6 -10814676.934 7
  20482859.338    -6181625.919 6  -4737893.871 7
  20053308.471   -14790499.993 6 -10539015.569 7
  21661730.721    -3346292.888 5  -2526122.788 5
  19392103.705   -20117346.416 6 -15580513.208 8
  18722101.455   -30202968.787 7 -21965102.239 7
  18999819.650   -24986086.581 7 -19275797.869 9
 94  2 17  3 24 29.9930000  0  8  2 24  7 12  5  9 13  4
  21036812.731       61520.240 5     76273.649 5
  20199600.052   -14367078.856 6 -10989993.896 7
  20500397.778    -6089471.565 6  -4666085.257 7
  20018552.067   -14973158.344 6 -10681346.710 7
  21621953.614    -3555323.698 5  -2689003.882 6
  19369561.192   -20235820.755 6 -15672830.839 8
  18720661.114   -30210554.583 7 -21971013.234 7
  18977775.919   -25101923.765 7 -19366060.560 9
 94  2 17  3 24 59.9930000  0  8  2 24  7 12  5  9 13  4
  21044761.271      103316.159 5    108841.903 5
  20178287.677   -14479057.874 6 -11077250.244 7
  20509193.474    -6043255.518 6  -4630072.760 7
  20001267.692   -15063973.283 6 -10752111.593 7
  21602060.247    -3659833.704 5  -2770440.186 5
  19358435.614   -20294297.359 6 -15718397.007 8
  18720066.317   -30213678.340 7 -21973447.327 7
  18966915.450   -25158993.894 7 -19410530.774 9
 94  2 17  3 25 29.9930000  0  8  2 24  7 12  5  9 13  4
  21052764.310      145349.421 5    141595.101 5
  20157048.513   -14590693.520 6 -11164239.024 7
  20518002.638    -5996960.286 6  -4593998.547 7
  19984054.169   -15154438.493 7 -10822603.957 7
  21582177.177    -3764351.311 5  -2851882.448 6
  19347407.286   -20352244.462 6 -15763550.588 8
  18719557.521   -30216356.327 7 -21975534.064 7
  18956162.872   -25215489.413 6 -19454553.236 9
 94  2 17  3 25 59.9930000  0  8  2 24  7 12  5  9 13  4
  21060811.169      187622.317 5    174535.029 5
  20135862.567   -14702008.837 6 -11250978.211 7
  20526823.466    -5950602.869 6  -4557875.884 7
  19966909.966   -15244554.013 7 -10892823.829 7
  21562282.591    -3868898.119 5  -2933347.464 5
  19336479.825   -20409666.317 6 -15808294.884 8
  18719129.739   -30218593.175 7 -21977277.053 7
  18945523.153   -25271399.814 6 -19498119.761 9
 94  2 17  3 26 29.9930000  0  8  2 24  7 12  5  9 13  4
  21068903.341      230146.075 5    207670.379 5
  20114739.638   -14813014.321 6 -11337475.954 7
  20535658.333    -5904167.636 6  -4521692.565 7
  19949825.341   -15334308.560 7 -10962762.420 8
  21542382.825    -3973466.232 5  -3014829.065 5
  19325658.325   -20466542.658 6 -15852614.100 8
  18718791.544   -30220382.300 7 -21978671.164 6
  18934996.856   -25326723.806 7 -19541229.340 9
 94  2 17  3 26 59.9930000  0  8  2 24  7 12  5  9 13  4
  21077033.841      272916.209 5    240997.746 6
  20093669.911   -14923709.124 6 -11423731.620 7
  20544508.497    -5857657.360 6  -4485450.799 7
  19932815.567   -15423702.949 7 -11032420.374 8
  21522484.380    -4078039.411 5  -3096314.628 6
  19314939.380   -20522865.303 6 -15896501.858 8
  18718534.161   -30221729.024 7 -21979720.554 7
  18924578.122   -25381473.772 7 -19583891.638 9
 94  2 17  3 27 29.9930000  0  8  2 24  7 12  5  9 13  4
  21085224.161      315919.237 5    274506.604 6
  20072672.208   -15034085.819 6 -11509739.406 7
  20553370.692    -5811083.795 6  -4449159.707 7
  19915867.317   -15512744.528 7 -11101803.398 8
  21502582.942    -4182614.803 5  -3177801.895 6
  19304322.989   -20578654.727 6 -15939974.139 8
  18718358.755   -30222645.163 7 -21980434.421 7
  18914265.575   -25435655.098 6 -19626110.835 9
 94  2 17  3 27 59.9930000  0  8  2 24  7 12  5  9 13  4
  21093454.146      359159.977 5    308200.638 5
  20051729.028   -15144143.833 6 -11595498.851 7
  20562248.224    -5764448.551 6  -4412820.548 7
  19898994.692   -15601427.570 7 -11170907.043 7
  21482685.849    -4287172.104 5  -3259275.086 6
  19293807.575   -20633907.034 6 -15983027.878 8
  18718267.739   -30223129.707 7
  18904066.606   -25489265.028 7 -19667884.793 9
 94  2 17  3 28 29.9930000  0  8  2 24  7 12  5  9 13  4
  21101721.200      402626.540 5    342070.667 5
  20030847.653   -15253866.356 6 -11680996.901 7
  20571135.591    -5717742.320 6  -4376426.092 7
  19882189.950   -15689755.554 7 -11239734.045 7
  21462794.880    -4391697.151 5  -3340723.120 6
  19283396.950   -20688620.425 6 -16025661.675 8
  18718254.958   -30223190.845 7
  18893971.935   -25542311.459 7 -19709219.655 9
 94  2 17  3 28 59.9930000  0  8  2 24  7 12  5  9 13  4
  21110039.317      446331.305 5    376126.328 5
  20010039.091   -15363233.743 6 -11766218.214 7
  20580039.013    -5670958.403 6  -4339971.085 7
  19865449.177   -15777717.391 7 -11308275.725 7
  21442915.833    -4496169.200 5  -3422129.847 6
  19273088.638   -20742791.206 6 -16067872.664 8
  18718324.239   -30222822.038 7
  18883986.271   -25594794.598 7 -19750115.590 9
 94  2 17  3 29 29.9930000  0  8  2 24  7 12  5  9 13  4
  21118401.888      490276.096 5    410369.010 5
  19989288.856   -15472256.079 6 -11851170.639 7
  20588958.028    -5624093.956 6  -4303453.324 7
  19848781.653   -15865312.076 7 -11376531.319 8
  21423041.099    -4600599.250 5  -3503503.865 5
  19262878.856   -20796422.705 6 -16109663.435 8
  18718476.935   -30222026.925 7 -21979952.632 7
  18874104.841   -25646716.697 6 -19790574.348 9
 94  2 17  3 29 59.9930000  0  8  2 24  7 12  5  9 13  4
  21126809.685      534471.761 5    444807.208 5
  19968608.841   -15580939.228 6 -11935858.785 7
  20597895.763    -5577125.562 6  -4266854.570 7
  19832181.661   -15952532.720 7 -11444495.440 8
  21403177.388    -4704991.602 5  -3584848.528 5
  19252782.185   -20849499.578 7 -16151022.023 8
  18718711.450   -30220803.452 7 -21978999.267 7
  18864331.755   -25698079.401 7 -19830597.219 9
 94  2 17  3 30 29.9930000  0  8  2 24  7 12  5  9 13  4
  21135268.927      578923.832 5    479445.156 5
  19947991.364   -15689272.978 6 -12020274.656 7
  20606852.255    -5530040.467 6  -4230164.891 7
  19815656.810   -16039374.064 7 -11512163.997 8
  21383317.591    -4809356.678 5  -3666171.954 5
  19242788.169   -20902015.826 6 -16191943.778 8
  18719022.427   -30219150.704 7 -21977711.410 7
  18854661.013   -25748888.257 7 -19870188.520 9
 94  2 17  3 30 59.9930000  0  8  2 24  7 12  5  9 13  4
  21143778.458      623629.485 5    514280.697 5
  19927440.521   -15797268.392 6 -12104426.893 7
  20615830.130    -5482860.241 6  -4193401.075 7
  19799201.403   -16125840.503 7 -11579540.426 7
  21363458.091    -4913714.948 5  -3747490.059 5
  19232899.997   -20953983.238 6 -16232437.858 8
  18719417.661   -30217078.036 7 -21976096.329 7
  18845096.192   -25799155.077 7 -19909357.456 9
 94  2 17  3 31 29.9930000  0  8  2 24  7 12  5  9 13  4
  21152333.692      668588.431 5    549313.621 6
  19906957.802   -15904911.815 6 -12188304.862 7
  20624828.552    -5435584.459 6  -4156562.807 7
  19782821.880   -16211924.905 7 -11646619.185 7
  21343597.169    -5018072.116 5  -3828807.266 5
  19223122.700   -21005380.928 6 -16272488.007 8
  18719893.114   -30214582.837 7 -21974152.018 7
  18835636.005   -25848860.657 7 -19948089.056 9
 94  2 17  3 31 59.9930000  0  8  2 24  7 12  5  9 13  4
  21160935.349      713789.863 5    584535.490 6
  19886543.536   -16012184.259 6 -12271893.741 7
  20633843.833    -5388210.868 6  -4119648.331 7
  19766516.810   -16297626.816 7 -11713399.892 7
  21323738.013    -5122432.048 5  -3910126.664 5
  19213445.560   -21056217.073 6 -16312100.587 8
  18720446.974   -30211669.576 7 -21971881.934 7
  18826283.927   -25898003.641 7 -19986382.279 9
 94  2 17  3 32 29.9930000  0  8  2 24  7 12  5  9 13  4
  21169580.310      759236.549 5    619948.481 6
  19866202.567   -16119083.559 6 -12355191.875 7
  20642871.966    -5340745.304 6  -4082662.173 7
  19750275.106   -16382941.162 7 -11779878.578 8
  21303882.552    -5226787.974 5  -3991442.943 5
  19203878.364   -21106494.557 7 -16351277.845 8
  18721081.716   -30208337.500 7 -21969285.501 7
  18817042.153   -25946579.392 7 -20024233.501 9
 94  2 17  3 32 59.9930000  0  8  2 24  7 12  5  9 13  4
  21178279.575      804924.979 5    655549.866 5
  19845929.411   -16225612.038 6 -12438201.037 7
  20651924.450    -5293199.389 6  -4045613.408 7
  19734117.755   -16467866.946 7 -11846054.486 8
  21284027.646    -5331126.327 5  -4072745.558 5
  19194416.052   -21156213.915 6 -16390020.187 8
  18721796.028   -30204590.478 7 -21966365.740 7
  18807910.169   -25994575.030 6 -20061632.680 9
 94  2 17  3 33 29.9930000  0  8  2 24  7 12  5  9 13  4
  21187016.442      850853.453 5    691338.264 5
  19825728.630   -16331766.011 6 -12520918.393 7
  20660986.997    -5245570.359 6  -4008499.885 7
  19718030.794   -16552403.212 7 -11911926.894 8
  21264178.364    -5435434.605 5  -4154024.717 5
  19185059.372   -21205388.151 6 -16428337.772 8
  18722585.591   -30200432.230 7 -21963125.535 7
  18798888.185   -26041979.621 6 -20098571.304 9
 94  2 17  3 33 59.9930000  0  8  2 24  7 12  5  9 13  4
  21195805.942      897026.248 5    727317.040 5
  19805598.364   -16437549.478 6 -12603347.036 7
  20670065.317    -5197865.043 6  -3971326.924 7
  19702015.099   -16636549.763 7 -11977495.629 7
  21244335.122    -5539704.532 5  -4235273.973 5
  19175804.708   -21254033.043 7 -16466242.876 8
  18723455.302   -30195867.054 7 -21959568.248 7
  18789979.505   -26088798.359 7 -20135053.424 9
 94  2 17  3 34 29.9930000  0  8  2 24  7 12  5  9 13  4
  21204633.810      943443.439 5    763486.259 5
  19785539.333   -16542976.913 6 -12685498.264 7
  20679154.567    -5150106.027 6  -3934112.100 7
  19686078.427   -16720306.417 7 -12042760.547 7
  21224504.981    -5643925.740 5  -4316485.267 5
  19166651.060   -21302143.493 7 -16503731.543 8
  18724400.106   -30190899.495 7 -21955697.416 7
  18781183.606   -26135017.064 7 -20171067.981 9
 94  2 17  3 34 59.9930000  0  8  2 24  7 12  5  9 13  4
  21213512.505      990100.725 5    799842.632 5
  19765545.880   -16648030.009 6 -12767357.787 7
  20688249.521    -5102290.131 6  -3896852.952 7
  19670217.950   -16803668.497 7 -12107717.997 8
  21204684.669    -5748099.582 5  -4397659.667 5
  19157592.794   -21349725.277 7 -16540808.257 8
  18725422.677   -30185529.732 7 -21951513.177 7
  18772502.356   -26180628.013 7 -20206608.967 9
 94  2 17  3 35 29.9930000  0  8  2 24  7 12  5  9 13  4
  21222442.747     1036999.340 5    836387.005 5
  19745626.739   -16752710.359 6 -12848926.868 7
  20697364.130    -5054411.661 6  -3859545.061 7
  19654427.169   -16886632.526 7 -12172365.287 8
  21184865.458    -5852230.992 5  -4478800.978 6
  19148638.544   -21396771.060 6 -16577467.300 8
  18726519.724   -30179758.933 7 -21947016.445 7
  18763940.396   -26225640.379 7 -20241683.520 9
 94  2 17  3 35 59.9930000  0  8  2 24  7 12  5  9 13  4
  21231410.419     1084138.782 5    873118.996 5
  19725775.606   -16857021.499 6
  20706485.560    -5006473.017 6  -3822190.282 7
  19638716.786   -16969197.414 7 -12236701.546 8
  21165056.513    -5956329.541 5
  19139795.880   -21443255.490 6 -16613688.928 8
  18727693.075   -30173590.634 7 -21942209.971 7
  18755485.521   -26270057.539 6 -20276294.276 9
 94  2 17  3 36 29.9930000  0  8  2 24  7 12  5  9 13  4
  21240424.442     1131522.485 5    910041.339 5
  19705995.380   -16960961.499 6 -13011200.431 8
  20715618.208    -4958464.477 6  -3784781.029 7
  19623082.388   -17051352.358 7 -12300718.375 7
  21145254.958    -6060394.646 5  -4641006.338 6
  19131061.161   -21489167.448 7 -16649464.490 8
  18728945.474   -30167018.916 7 -21937089.150 7
  18747146.091   -26313880.449 7 -20310441.989 9
 94  2 17  3 36 59.9930000  0  8  2 24  7 12  5  9 13  4
  21249486.255     1179150.379 5    947153.986 6
  19686289.872   -17064525.222 6 -13091899.415 8
  20724766.521    -4910388.985 6  -3747319.601 7
  19607528.497   -17133099.063 7 -12364417.099 7
  21125451.958    -6164439.847 5  -4722080.488 6
  19122429.231   -21534501.232 6 -16684789.512 8
  18730270.692   -30160050.005 7 -21931658.812 7
  18738916.591   -26357141.111 7 -20344151.577 9
 94  2 17  3 37 29.9930000  0  8  2 24  7 12  5  9 13  4
  21258604.083     1227035.695 5
  19666652.177   -17167702.814 6 -13172297.509 8
  20733928.786    -4862251.850 6
  19592050.271   -17214431.135 7 -12427792.733 8
  21105664.825    -6268452.156 5  -4803128.998 6
  19113918.294   -21579243.907 6 -16719653.930 8
  18731673.622   -30152682.053 7 -21925917.541 7
  18730790.849   -26399833.801 7 -20377418.603 9
 94  2 17  3 37 59.9930000  0  8  2 24  7 12  5  9 13  4
  21267763.739     1275156.279 5
  19647097.544   -17270492.142 6 -13252393.074 8
  20743100.794    -4814071.180 6
  19576648.310   -17295364.605 7 -12490857.751 8
  21085867.106    -6372459.777 5  -4884173.848 6
  19105512.099   -21623424.692 6 -16754080.509 8
  18733147.778   -30144935.915 7 -21919881.590 7
  18722770.021   -26441973.918 6 -20410255.040 8
 94  2 17  3 38 29.9930000  0  8  2 24  7 12  5  9 13  4
  21276968.278     1323525.562 5   1059654.046 5
  19627614.419   -17372866.809 6 -13332165.518 8
  20752278.583    -4765822.945 6  -3634670.747 6
  19561330.310   -17375879.006 7 -12553596.241 8
  21066078.036    -6476440.366 5  -4965197.650 6
  19097210.810   -21667036.015 7 -16788063.361 8
  18734695.833   -30136795.971 7 -21913538.757 7
  18714861.989   -26483554.218 7 -20442655.251 8
 94  2 17  3 38 59.9930000  0  8  2 24  7 12  5  9 13  4
  21286202.739     1372140.815 4   1097536.043 5
  19608216.810   -17474811.400 6 -13411602.835 8
  20761475.216    -4717502.372 6  -3597018.340 6
  19546083.130   -17455975.925 7 -12616009.413 7
  21046302.083    -6580389.478 6  -5046196.925 6
  19089019.606   -21710091.536 6 -16821613.123 8
  18736319.075   -30128268.383 7 -21906893.875 7
  18707054.700   -26524563.010 7 -20474610.142 9
 94  2 17  3 39 29.9930000  0  8  2 24  7 12  5  9 13  4
  21295514.708     1420991.017 5   1135601.168 5
  19588891.575   -17576342.400 6 -13490717.880 8
  20770685.724    -4669102.964 6  -3559304.502 6
  19530922.747   -17535660.642 7 -12678101.399 7
  21026524.122    -6684306.138 5  -5127170.913 6
  19080927.731   -21752608.570 7 -16854743.272 8
  18738010.888   -30119363.172 7 -21899954.749 7
  18699361.591   -26564991.601 7 -20506112.920 9
 94  2 17  3 39 59.9930000  0  8  2 24  7 12  5  9 13  4
  21304858.646     1470079.669 5   1173852.038 4
  19569649.778   -17677471.280 6 -13569519.585 7
  20779908.974    -4620615.451 6  -3521522.015 6
  19515839.333   -17614920.294 7 -12739862.168 7
  21006755.974    -6788180.146 5  -5208111.667 5
  19072938.435   -21794574.702 6 -16887444.153 8
  18739781.271   -30110071.999 7 -21892714.871 7
  18691781.208   -26604836.277 7 -20537160.713 9
 94  2 17  3 40 29.9930000  0  8  2 24  7 12  5  9 13  4
  21314238.435     1519420.474 5   1212299.391 5
  19550478.942   -17778206.983 6 -13648014.916 8
  20789152.958    -4572045.392 6  -3483675.216 6
  19500841.981   -17693743.618 7 -12801282.936 8
  20987005.544    -6891988.826 5  -5289001.538 6
  19065061.794   -21835985.662 6 -16919712.435 8
  18741622.974   -30100388.419 7 -21885169.215 7
  18684310.474   -26644086.397 7 -20567745.210 8
 94  2 17  3 40 59.9930000  0  8  2 24  7 12  5  9 13  4
  21323675.567     1569008.161 5   1250939.178 5
  19531382.481   -17878564.915 6 -13726215.885 8
  20798407.896    -4523412.152 6  -3445779.186 6
  19485923.997   -17772133.349 7 -12862365.824 7
  20967261.372    -6995733.937 5  -5369841.868 5
  19057283.739   -21876847.805 6 -16951553.061 8
  18743541.005   -30090319.818 7 -21877323.544 7
  18676958.021   -26682727.740 7 -20597855.329 8
 94  2 17  3 41 29.9930000  0  8  2 24  7 12  5  9 13  4
  21333157.888     1618825.490 5   1289757.893 5
  19512352.606   -17978566.135 6 -13804138.895 8
  20807668.099    -4474747.632 6  -3407858.781 6
  19471089.114   -17850095.362 7 -12923115.447 7
  20947532.161    -7099427.521 5  -5450642.044 5
  19049617.333   -21917149.320 6 -16982956.833 8
  18745527.817   -30079876.838 7 -21869186.161 7
  18669716.794   -26720774.650 7 -20627502.265 8
 94  2 17  3 41 59.9930000  0  8  2 24  7 12  5  9 13  4
  21342682.622     1668876.493 5   1328758.633 5
  19493395.200   -18078198.353 6 -13881774.361 8
  20816931.771    -4426064.237 6  -3369923.654 6
  19456333.942   -17927623.136 7 -12983526.686 8
  20927810.950    -7203074.107 5  -5531405.579 5
  19042053.185   -21956888.398 7 -17013922.359 8
  18747586.474   -30069057.365 7 -21860755.402 7
  18662590.528   -26758226.323 7 -20656685.367 9
 94  2 17  3 42 29.9930000  0  8  2 24  7 12  5  9 13  4
  21352247.630     1719144.485 5   1367928.453 5
  19474507.364   -18177455.967 6 -13959117.940 8
  20826202.263    -4377362.617 6  -3331974.321 6
  19441662.349   -18004721.700 7 -13043603.486 8
  20908091.114    -7306676.298 5  -5612134.529 5
  19034598.497   -21996070.328 6 -17044453.722 8
  18749716.981   -30057871.194 7 -21852038.901 7
  18655576.841   -26795078.046 7 -20685400.984 9
 94  2 17  3 42 59.9930000  0  8  2 24  7 12  5  9 13  4
  21361849.607     1769639.872 3   1407275.435 5
  19455691.653   -18276320.567 6 -14036155.274 8
  20835474.349    -4328629.584 6  -3294000.544 6
  19427075.606   -18081383.604 7 -13103340.021 8
  20888383.036    -7410230.029 5  -5692825.712 5
  19027252.677   -22034663.945 6 -17074526.676 8
  18751914.185   -30046315.651 7 -21843034.582 7
  18648679.310   -26831324.644 7 -20713645.074 9
 94  2 17  3 43 29.9930000  0  8  2 24  7 12  5  9 13  4
  21371503.622     1820370.942 3   1446806.192 5
  19436957.989   -18374777.755 6 -14112875.134 8
  20844758.606    -4279850.944 6  -3255991.206 6
  19412570.130   -18157604.530 7 -13162732.954 8
  20868691.646    -7513742.223 6  -5773484.543 5
  19020025.810   -22072660.359 6 -17104134.273 8
  18754182.747   -30034391.304 7 -21833742.882 7
  18641892.614   -26866987.186 7 -20741434.069 8
 94  2 17  3 43 59.9930000  0  8  2 24  7 12  5  9 13  4
  21381215.653     1871355.143 5   1486534.082 5
  19418299.810   -18472812.113 6 -14189265.523 8
  20854054.247    -4230997.264 6  -3217923.392 6
  19398152.146   -18233379.132 7 -13221778.094 8
  20848998.427    -7617211.658 6  -5854110.062 6
  19012907.114   -22110054.685 6 -17133272.703 8
  18756521.856   -30022096.913 7 -21824162.838 7
  18635221.442   -26902064.849 7 -20768767.285 8
 94  2 17  3 44 29.9930000  0  8  2 24  7 12  5  9 13  4
  21390965.349     1922603.521 5   1526467.856 5
  19399731.607   -18570402.156 6 -14265309.693 8
  20863365.755    -4182062.394 6  -3179792.323 6
  19383815.333   -18308702.679 7 -13280471.763 8
  20829320.622    -7720624.007 6  -5934691.092 6
  19005910.028   -22146828.507 6 -17161927.640 9
  18758933.521   -30009432.757 7 -21814294.657 7
  18628654.622   -26936556.428 7 -20795643.831 8
 94  2 17  3 44 59.9930000  0  8  2 24  7 12  5  9 13  4
  21400767.130     1974120.766 5   1566611.145 3
  19381243.458   -18667538.987 6 -14341000.715 8
  20872692.841    -4133047.455 6  -3141598.859 6
  19369569.161   -18383577.798 7 -13338816.012 8
  20809651.044    -7823994.296 6  -6015239.338 6
  18999027.974   -22182989.375 6 -17190104.930 8
  18761412.278   -29996406.169 7 -21804144.067 7
  18622199.669   -26970479.893 7 -20822077.689 8
 94  2 17  3 45 29.9930000  0  8  2 24  7 12  5  9 13  4
  21410619.146     2025894.125 5   1606954.017 3
  19362848.810   -18764221.719 6 -14416337.892 8
  20882037.802    -4083942.046 6  -3103334.906 6
  19355407.138   -18457996.425 7 -13396804.541 8
  20789989.544    -7927314.694 6  -6095748.714 6
  18992261.560   -22218545.558 6 -17217811.051 8
  18763960.911   -29983013.370 7 -21793708.117 7
  18615856.005   -27003826.443 7 -20848062.000 9
 94  2 17  3 45 59.9930000  0  8  2 24  7 12  5  9 13  4
  21420518.177     2077913.671 5   1647488.719 4
  19344535.130   -18860456.120 6 -14491325.715 8
  20891394.724    -4034757.865 6  -3065009.578 6
  19341331.849   -18531958.578 7 -13454437.376 8
  20770341.981    -8030575.324 6  -6176211.517 6
  18985609.364   -22253513.308 6 -17245058.654 9
  18766575.560   -29969259.213 7 -21782990.577 7
  18609622.903   -27036581.237 7 -20873585.211 8
 94  2 17  3 46 29.9930000  0  8  2 24  7 12  5  9 13  4
  21430459.692     2130140.614 5   1688185.032 3
  19326304.247   -18956259.386 6 -14565977.588 8
  20900766.278    -3985528.724 6  -3026649.192 6
  19327342.192   -18605476.790 7 -13511724.291 8
  20750697.427    -8133783.368 5  -6256633.338 6
  18979059.427   -22287925.238 6 -17271873.146 8
  18769260.310   -29955160.945 7 -21772004.907 7
  18603501.677   -27068748.937 7 -20898650.940 8
 94  2 17  3 46 59.9930000  0  8  2 24  7 12  5  9 13  4
  21440434.505     2182564.805 5   1729035.051 4
  19308152.731   -19051651.351 6 -14640308.985 8
  20910143.942    -3936254.281 6  -2988253.516 6
  19313439.083   -18678545.110 7 -13568660.661 8
  20731068.114    -8236949.038 6  -6337022.150 6
  18972614.052   -22321795.819 6 -17298265.806 8
  18772009.482   -29940717.017 7 -21760749.901 7
  18597490.646   -27100326.960 7 -20923257.184 8
 94  2 17  3 47 29.9930000  0  8  2 24  7 12  5  9 13  4
  21450445.802     2235203.939 4   1770052.532 3
  19290077.755   -19146629.650 6 -14714318.025 8
  20919527.661    -3886950.447 6  -2949834.963 6
  19299620.942   -18751148.516 7 -13625234.733 8
  20711448.411    -8340048.772 6  -6417359.589 6
  18966272.513   -22355121.117 6 -17324233.567 9
  18774824.091   -29925917.233 7 -21749217.601 7
  18591596.560   -27131295.655 7 -20947388.624 8
 94  2 17  3 47 59.9930000  0  8  2 24  7 12  5  9 13  4
  21460509.794     2288071.590 4   1811248.095 3
  19272087.177   -19241181.119 6 -14787994.478 8
  20928907.685    -3837636.505 6  -2911408.507 6
  19285894.294   -18823286.593 7 -13681446.208 8
  20691839.731    -8443081.848 6  -6497645.082 6
  18960034.942   -22387909.221 6 -17349782.745 8
  18777706.317   -29910765.643 7 -21737411.170 7
  18585820.372   -27161663.635 7 -20971051.976 8
 94  2 17  3 48 29.9930000  0  8  2 24  7 12  5  9 13  4
  21470617.935     2341174.081 4   1852626.633 2
  19254176.700   -19335298.834 6 -14861332.950 8
  20938294.403    -3788314.922 6  -2872976.085 6
  19272254.786   -18894959.947 7 -13737295.578 8
  20672247.528    -8546050.204 6  -6577880.140 6
  18953900.005   -22420150.803 6 -17374906.050 8
  18780657.302   -29895267.672 7 -21725334.820 7
  18580150.388   -27191444.193 7 -20994257.596 8
 94  2 17  3 48 59.9930000  0  8  2 24  7 12  5  9 13  4
  21480768.263     2394531.753 4   1894204.040 4
  19236345.130   -19428990.271 6 -14934339.241 8
  20947682.856    -3738988.929 6  -2834540.244 6
  19258705.099   -18966177.874 7 -13792790.066 8
  20652659.372    -8648962.594 6  -6658071.589 6
  18947866.380   -22451844.781 6 -17399602.665 8
  18783667.872   -29879436.767 7 -21712999.052 7
  18574592.286   -27220661.110 7 -21017024.023 8
 94  2 17  3 49 29.9930000  0  8  2 24  7 12  5  9 13  4
  21490974.997     2448152.792 5   1935986.678 5
  19218604.958   -19522231.182 6 -15006994.486 8
  20957069.896    -3689645.372 5  -2796090.741 6
  19245240.450   -19036933.871 7 -13847924.594 8
  20633091.099    -8751803.728 6  -6738207.502 6
  18941944.896   -22482968.986 6 -17423855.296 9
  18786744.325   -29863271.350 7 -21700402.618 7
  18569142.044   -27249298.678 7 -21039338.997 8
 94  2 17  3 49 59.9930000  0  8  2 24  7 12  5  9 13  4
  21501231.974     2502038.356 5   1977975.379 4
  19200948.200   -19615015.320 6 -15079293.796 8
  20966473.599    -3640241.028 5  -2757593.845 6
  19231863.200   -19107216.915 7 -13902690.601 8
  20613536.310    -8854575.017 6  -6818289.008 6
  18936134.060   -22513498.143 7 -17447644.253 9
  18789886.466   -29846764.950 6 -21687540.482 7
  18563804.278   -27277356.829 7 -21061202.482 8
 94  2 17  3 50 29.9930000  0  8  2 24  7 12  5  9 13  4
  21511529.833     2556185.424 5   2020167.861 4
  19183372.294   -19707360.252 6 -15151250.875 8
  20975887.872    -3590759.741 5  -2719036.989 6
  19218582.810   -19177023.666 7 -13957085.473 8
  20593994.286    -8957284.506 6  -6898322.362 6
  18930439.560   -22543423.350 6 -17470962.597 8
  18793091.427   -29829918.625 6 -21674413.476 7
  18558574.747   -27304830.269 7 -21082610.354 8
 94  2 17  3 50 59.9930000  0  8  2 24  7 12  5  9 13  4
  21521876.286     2610577.041 4   2062550.934 5
  19165883.192   -19799291.244 6 -15222885.398 8
  20985317.661    -3541208.207 6  -2680425.404 6
  19205387.841   -19246356.229 7 -14011110.841 8
  20574460.122    -9059937.806 6  -6978311.918 6
  18924857.841   -22572749.703 6 -17493814.297 9
  18796360.091   -29812739.119 7 -21661026.851 7
  18553457.255   -27331718.978 7 -21103562.581 8
 94  2 17  3 51 29.9930000  0  8  2 24  7 12  5  9 13  4
  21532275.919     2665189.437 5   2105106.038 5
  19148464.888   -19890814.668 6 -15294202.338 8
  20994758.544    -3491585.787 5  -2641758.585 6
  19192285.599   -19315211.611 7 -14064764.388 8
  20554933.825    -9162539.448 6  -7058261.223 6
  18919390.981   -22601474.735 6 -17516197.438 9
  18799692.091   -29795228.011 7 -21647381.832 7
  18548456.099   -27358017.104 7 -21124054.625 9
 94  2 17  3 51 59.9930000  0  8  2 24  7 12  5  9 13  4
  21542710.083     2720028.903 5   2147838.063 4
  19131124.411   -19981928.987 6 -15365200.491 8
  21004216.786    -3441882.330 5  -2603028.613 6
  19179279.810   -19383576.990 7 -14118036.094 9
  20535419.856    -9265073.999 6  -7138158.256 6
  18914041.239   -22629602.501 6 -17538115.185 9
  18803090.700   -29777376.811 7 -21633471.803 7
  18543559.310   -27383731.028 7 -21144091.436 9
 94  2 17  3 52 29.9930000  0  8  2 24  7 12  5  9 13  4
  21553188.177     2775080.584 5   2190735.433 4
  19113865.966   -20072624.032 6 -15435871.929 8
  21013683.630    -3392139.333 5  -2564267.839 6
  19166357.677   -19451462.687 7 -14170934.035 8
  20515924.653    -9367536.589 6  -7217999.194 6
  18908797.622   -22657145.838 6 -17559577.525 9
  18806548.677   -29759200.446 7 -21619308.381 7
  18538779.231   -27408861.752 7 -21163673.809 8
 94  2 17  3 52 59.9930000  0  8  2 24  7 12  5  9 13  4
  21563703.310     2830332.121 5   2233788.565 5
  19096692.325   -20162874.983 6 -15506197.350 8
  21023155.364    -3342366.176 5  -2525483.561 6
  19153527.036   -19518872.244 7 -14223460.957 8
  20496441.419    -9469924.125 6  -7297781.664 6
  18903668.794   -22684110.819 6 -17580589.195 9
  18810069.755   -29740707.274 7 -21604898.111 7
  18534109.372   -27433403.629 7 -21182797.346 9
 94  2 17  3 53 29.9930000  0  8  2 24  7 12  5  9 13  4
  21574253.247     2885796.902 5   2277007.861 5
  19079609.646   -20252650.122 6 -15576151.976 8
  21032630.552    -3292558.462 5  -2486672.332 6
  19140791.591   -19585798.895 7 -14275611.603 8
  20476974.849    -9572225.910 6  -7377497.316 6
  18898647.458   -22710500.971 6 -17601152.959 9
  18813648.114   -29721894.431 7 -21590238.756 7
  18529552.966   -27457347.940 7 -21201455.234 9
 94  2 17  3 53 59.9930000  0  8  2 24  7 12  5  9 13  4
  21584851.927     2941486.122 5   2320402.066 3
  19062619.349   -20341933.591 6 -15645723.495 8
  21042111.935    -3242731.168 5  -2447845.890 6
  19128149.825   -19652240.289 7 -14327384.116 8
  20457524.403    -9674432.260 6  -7457138.609 6
  18893730.981   -22736327.177 6 -17621277.263 8
  18817288.466   -29702764.550 7 -21575332.359 7
  18525111.146   -27480691.107 7 -21219644.716 9
 94  2 17  3 54 29.9930000  0  8  2 24  7 12  5  9 13  4
  21595494.396     2997407.069 5   2363976.809 5
  19045722.958   -20430726.243 6 -15714912.557 8
  21051596.536    -3192896.523 5  -2409013.705 6
  19115598.521   -19718196.778 7 -14378778.774 8
  20438091.583    -9776548.687 6  -7536709.825 6
  18888928.177   -22761589.360 6 -17640962.100 8
  18820990.700   -29683321.922 7 -21560182.251 7
  18520785.169   -27503424.028 7 -21237358.674 9
 94  2 17  3 54 59.9930000  0  8  2 24  7 12  5  9 13  4
  21606183.130     3053569.376 5   2407739.618 3
  19028912.731   -20519056.576 6 -15783741.377 8
  21061089.653    -3143032.444 5  -2370158.570 6
  19103141.216   -19783665.843 7 -14429793.623 8
  20418673.856    -9878586.673 6  -7616219.928 6
  18884221.247   -22786294.945 6 -17660213.198 8
  18824747.622   -29663569.075 7 -21544790.412 7
  18516572.442   -27525558.014 7 -21254605.917 9
 94  2 17  3 55 29.9930000  0  8  2 24  7 12  5  9 13  4
  21616918.849     3109979.151 5   2451695.248 3
  19012187.935   -20606936.145 6 -15852218.956 8
  21070581.208    -3093133.643 5  -2331276.389 6
  19090776.817   -19848640.603 7 -14480423.315 8
  20399273.646    -9980534.175 6  -7695659.530 6
  18879630.083   -22810434.117 6 -17679022.939 8
  18828563.536   -29643503.224 7 -21529154.684 7
  18512471.349   -27547110.406 7 -21271399.986 9
 94  2 17  3 55 59.9930000  0  8  2 24  7 12  5  9 13  4
  21627688.325     3166619.143 4   2495830.277 5
  18995552.138   -20694377.361 6 -15920354.943 8
  21080083.810    -3043205.429 6  -2292371.287 6
  19078506.864   -19913126.260 7 -14530671.867 8
  20379888.052   -10082408.389 6  -7775042.028 6
  18875142.575   -22834011.521 6 -17697394.958 8
  18832442.224   -29623133.869 7 -21513282.458 7
  18508477.474   -27568093.257 7 -21287750.260 9
 94  2 17  3 56 59.9920000  0  8  2 24  7 12  5  9 13  4
  21649384.273     3280601.860 4   2584647.954 5
  18962521.563   -20867954.138 6 -16055609.550 8
  21099106.945    -2943230.039 6  -2214468.373 6
  19054246.117   -20040614.229 7 -14630013.134 8
  20341153.664   -10285957.148 6  -7933651.414 6
  18866496.375   -22879440.685 6 -17732794.312 8
  18840367.133   -29581489.579 7 -21480832.365 7
  18500814.047   -27608371.216 7 -21319135.662 9
 94  2 17  3 57 29.9920000  0  8  2 24  7 12  5  9 13  4
  21660288.492     3337925.397 3   2629315.625 3
  18946136.625   -20954053.601 6 -16122700.031 8
  21108631.656    -2893185.889 5  -2175472.949 6
  19042258.117   -20103611.614 7 -14679102.001 8
  20321809.336   -10387618.705 6  -8012868.184 6
  18862341.477   -22901286.959 6 -17749817.388 9
  18844414.024   -29560215.777 7 -21464255.366 7
  18497142.883   -27627665.857 7 -21334170.432 9
 94  2 17  3 57 59.9920000  0  8  2 24  7 12  5  9 13  4
  21671244.484     3395475.121 3   2674159.578 4
  18929841.672   -21039686.383 6 -16189426.856 8
  21118158.336    -2843109.400 5  -2136452.298 6
  19030365.172   -20166103.454 7 -14727796.940 8
  20302476.766   -10489207.876 6  -8092028.546 6
  18858293.852   -22922549.748 6 -17766385.794 9
  18848520.570   -29538639.594 7 -21447442.754 7
  18493580.906   -27646384.638 7 -21348756.491 9
 94  2 17  3 58 29.9920000  0  8  2 24  7 12  5  9 13  4
  21682238.938     3453249.661 4   2719178.680 2
  18913632.781   -21124859.133 6 -16255795.220 8
  21127695.883    -2792992.076 5  -2097399.821 6
  19018570.469   -20228085.162 7 -14776094.374 8
  20283165.297   -10590708.394 6  -8171119.849 6
  18854360.797   -22943220.443 6 -17782492.836 9
  18852684.711   -29516761.180 7 -21430394.634 7
  18490126.813   -27664527.537 7 -21362893.807 9
 94  2 17  3 58 59.9920000  0  8  2 24  7 12  5  9 13  4
  21693274.984     3511221.303 4   2764351.346 2
  18897514.188   -21209563.786 6 -16321798.830 8
  21137242.359    -2742841.379 6  -2058321.367 6
  19006873.172   -20289561.578 7 -14823998.077 8
  20263867.523   -10692115.027 6  -8250137.976 6
  18850540.664   -22963309.089 6 -17798146.334 9
  18856903.828   -29494589.248 7 -21413117.801 7
  18486785.016   -27682091.763 7 -21376580.195 9
 94  2 17  3 59 29.9920000  0  8  2 24  7 12  5  9 13  4
  21704337.234     3569389.602 3   2809677.223 2
  18881482.773   -21293810.520 6 -16387445.623 8
  21146790.516    -2692659.159 5  -2019218.345 6
  18995272.938   -20350531.711 7 -14871507.278 8
  20244585.211   -10793430.087 6  -8329084.770 6
  18846825.305   -22982820.687 6 -17813350.173 9
  18861176.953   -29472127.218 7 -21395614.927 7
  18483555.281   -27699071.384 7 -21389811.061 9
 94  2 17  3 59 59.9920000  0  8  2 24  7 12  5  9 13  4
  21715442.227     3627771.061 2   2855169.235 5
  18865538.055   -21377587.540 6 -16452726.401 8
  21156345.453    -2642438.222 5  -1980085.149 6
  18983767.141   -20410986.926 7 -14918615.235 8
  20225324.141   -10894655.277 6  -8407961.531 6
  18843223.766   -23001746.458 6 -17828097.530 9
  18865507.148   -29449370.876 7 -21377882.720 7
  18480434.555   -27715460.231 6 -21402581.587 9
 94  2 17  4  0 29.9920000  0  7 24  7 12  5  9 13  4
  18849692.234   -21460880.057 6 -16517629.651 8
  21165907.422    -2592187.657 5  -1940928.867 6
  18972358.852   -20470931.194 7 -14965325.048 8
  20206080.195   -10995784.372 6  -8486763.420 6
  18839733.313   -23020101.590 6 -17842400.243 8
  18869893.992   -29426328.622 7 -21359927.712 7
  18477428.750   -27731256.349 7 -21414890.234 9
 94  2 17  4  0 59.9920000  0  7 24  7 12  5  9 13  4
  18833935.016   -21543677.442 6 -16582147.076 8
  21175475.766    -2541918.719 5  -1901758.257 6
  18961049.797   -20530363.764 7 -15011636.132 8
  20186850.156   -11096825.851 6  -8565497.028 6
  18836346.883   -23037885.957 6 -17856258.199 9
  18874332.602   -29403003.841 7 -21341752.550 7
  18474535.813   -27746461.925 7 -21426738.734 9
 94  2 17  4  1 29.9920000  0  8  2 24  7 12  5  9 13  4
  21749030.320          -0.19013
  18818274.344   -21625981.050 6 -16646279.744 9
  21185048.086    -2491624.011 6  -1862567.590 6
  18949836.344   -20589275.857 7 -15057541.664 8
  20167641.859   -11197768.856 6  -8644153.881 6
  18833072.602   -23055086.800 6 -17869661.455 9
  18878824.781   -29379391.690 7 -21323353.473 7
  18471751.172   -27761081.360 6 -21438130.499 9
 94  2 17  4  1 59.9920000  0  8  2 24  7 12  5  9 13  4
  21760318.414       59322.139 3        -0.25012
  18802706.914   -21707776.839 6 -16710016.713 8
  21194618.281    -2441306.723 5  -1823359.321 6
  18938729.227   -20647662.264 7 -15103037.568 8
  20148455.789   -11298606.472 6  -8722728.639 6
  18829915.180   -23071694.125 6 -17882602.236 8
  18883374.703   -29355491.444 7 -21304729.901 7
  18469082.602   -27775114.948 6 -21449065.746 9
 94  2 17  4  2 29.9920000  0  8  2 24  7 12  5  9 13  4
  21771660.070      118891.157 3     46417.117 2
  18787234.547   -21789089.992 6 -16773377.592 8
  21204197.734    -2390978.857 5  -1784142.803 6
  18927716.906   -20705526.690 7 -15148126.746 8
  20129286.141   -11399329.715 6  -8801214.282 6
  18826864.734   -23087711.832 6 -17895083.570 9
  18887975.008   -29331310.813 7 -21285887.858 7
  18466522.938   -27788570.329 7 -21459550.458 9
 94  2 17  4  2 59.9920000  0  8  2 24  7 12  5  9 13  4
  21783039.148      178691.260 3     93014.534 2
  18771852.883   -21869924.491 6 -16836365.503 8
  21213780.805    -2340626.466 5  -1744907.175 6
  18916802.406   -20762867.369 7 -15192807.789 8
  20110141.047   -11499934.916 6  -8879607.919 6
  18823930.891   -23103127.788 6 -17907096.002 9
  18892630.188   -29306852.605 7 -21266829.495 7
  18464070.406   -27801454.178 7 -21469589.800 9
 94  2 17  4  3 29.9920000  0  8  2 24  7 12  5  9 13  4
  21794447.891      238706.830 1    139779.860 3
  18756561.680   -21950281.155 6 -16898981.065 9
  21223370.961    -2290247.402 5  -1705650.747 6
  18905993.992   -20819683.349 7 -15237079.963 8
  20091022.570   -11600411.429 6  -8957901.293 7
  18821111.195   -23117956.375 6 -17918650.757 9
  18897332.758   -29282119.676 7 -21247557.079 7
  18461725.797   -27813768.506 6 -21479185.408 9
 94  2 17  4  3 59.9920000  0  7 24  7 12  5  9 13  4
  18741358.055   -22030158.053 6 -16961222.797 8
  21232957.820    -2239837.927 5  -1666370.655 6
  18895285.172   -20875967.504 7 -15280937.757 8
  20071926.406   -11700754.286 6  -9036090.512 7
  18818399.844   -23132195.165 6 -17929745.919 9
  18902095.516   -29257109.462 7 -21228068.598 7
  18459491.867   -27825515.278 6 -21488338.702 9
 94  2 17  4  4 29.9920000  0  7 24  7 12  5  9 13  4
  18726250.586   -22109566.598 6 -17023099.573 8
  21242560.922    -2189399.317 5  -1627067.826 6
  18884672.656   -20931721.218 6 -15324382.209 8
  20052855.992   -11800965.403 6  -9114177.082 6
  18815804.648   -23145853.057 6 -17940388.433 9
  18906905.609   -29231827.140 7 -21208368.086 7
  18457362.891   -27836705.209 7 -21497058.123 9
 94  2 17  4  4 59.9920000  0  8  2 24  7 12  5  9 13  4
  21828961.898          -0.31613
  18711230.258   -22188495.142 6 -17084602.307 9
  21252160.656    -2138935.585 5  -1587745.436 5
  18874162.109   -20986948.404 7 -15367416.371 8
  20033810.320   -11901064.452 6  -9192176.318 7
  18813312.047   -23158937.003 6 -17950583.722 8
  18911766.758   -29206280.774 7 -21188461.817 7
  18455341.148   -27847339.656 7 -21505344.706 9
 94  2 17  4  5 29.9920000  0  8  2 24  7 12  5  9 13  4
  21840545.453       60869.227 3        -0.17412
  18696300.961   -22266947.012 6 -17145733.629 9
  21261761.766    -2088465.081 5  -1548417.802 5
  18863756.609   -21041641.474 7 -15410034.354 8
  20014779.977   -12001059.422 6  -9270094.462 6
  18810932.820   -23171445.671 6 -17960330.748 8
  18916677.258   -29180466.851 7 -21168347.061 7
  18453421.602   -27857418.429 7 -21513198.285 9
 94  2 17  4  5 59.9920000  0  8  2 24  7 12  5  9 13  4
  21852168.625      121956.242 4     47600.043 2
  18681464.406   -22344920.498 6 -17206492.176 8
  21271366.859    -2038001.600 5  -1509095.621 5
  18853449.688   -21095800.128 7 -15452235.893 8
  19995769.266   -12100964.439 6  -9347942.509 6
  18808664.773   -23183373.525 6 -17969625.188 9
  18921641.375   -29154389.185 7 -21148026.797 7
  18451611.750   -27866930.305 6 -21520610.132 9
 94  2 17  4  6 29.9920000  0  8  2 24  7 12  5  9 13  4
  21863835.711      183258.487 3     95367.968 2
  18666719.594   -22422391.993 6 -17266859.563 8
  21280968.539    -1987545.140 5  -1469778.863 5
  18843246.766   -21149419.720 7 -15494017.392 8
  19976772.984   -12200783.868 6  -9425723.873 6
  18806498.977   -23194727.903 6 -17978472.755 8
  18926652.758   -29128047.333 7 -21127500.669 7
  18449914.594   -27875857.529 7 -21527566.394 9
 94  2 17  4  6 59.9920000  0  8  2 24  7 12  5  9 13  4
  21875522.453      244763.056 2    143293.601 2
  18652076.672   -22499352.865 6 -17326829.052 9
  21290573.695    -1937096.303 5  -1430468.082 5
  18833144.883   -21202500.668 7 -15535379.174 8
  19957799.500   -12300513.413 6  -9503435.193 7
  18804449.555   -23205511.419 6 -17986875.504 9
  18931716.344   -29101445.218 7 -21106771.743 7
  18448326.289   -27884200.477 7 -21534067.404 9
 94  2 17  4  7 29.9920000  0  8  2 24  7 12  5  9 13  4
  21887267.875      306463.965 2    191372.219 1
  18637526.844   -22575806.203 6 -17386403.073 9
  21300169.383    -1886656.777 5  -1391164.567 5
  18823147.180   -21255042.021 7 -15576320.484 8
  19938837.617   -12400134.544 6  -9581062.036 7
  18802499.664   -23215736.700 6 -17994843.270 8
  18936826.805   -29074586.254 7 -21085842.685 7
  18446848.969   -27891965.327 7 -21540117.914 9
 94  2 17  4  7 59.9920000  0  8  2 24  7 12  5  9 13  4
  21899052.055      368362.866 3
  18623074.539   -22651749.027 6 -17445579.284 8
  21309768.117    -1836206.293 5  -1351852.496 5
  18813251.117   -21307048.070 7 -15616844.684 8
  19919904.516   -12499638.020 6  -9658597.195 7
  18800658.156   -23225419.055 6 -18002387.969 8
  18941987.344   -29047478.968 7 -21064720.119 7
  18445479.609   -27899150.022 7 -21545716.375 9
 94  2 17  4  8 29.9920000  0  8  2 24  7 12  5  9 13  4
  21910872.820      430473.796 3        -0.28411
  18608719.938   -22727183.339 6 -17504359.250 8
  21319372.836    -1785719.876 5  -1312512.432 5
  18803457.063   -21358512.394 7 -15656946.757 8
  19900992.469   -12599011.978 6  -9736031.424 7
  18798923.961   -23234550.875 6 -18009503.670 9
  18947191.578   -29020120.393 7 -21043401.742 7
  18444218.742   -27905768.600 7 -21550873.690 9
 94  2 17  4  8 59.9920000  0  8  2 24  7 12  5  9 13  4
  21922731.563      492810.056 3     48573.428 1
  18594461.648   -22802118.221 6 -17562750.052 9
  21328986.773    -1735184.742 5  -1273134.394 5
  18793766.953   -21409425.801 7 -15696619.538 8
  19882108.008   -12698244.558 6  -9813355.491 7
  18797290.445   -23243120.176 6 -18016181.057 8
  18952446.320   -28992505.351 7 -21021883.533 7
  18443070.336   -27911814.247 7 -21555584.604 9
 94  2 17  4  9 29.9920000  0  8  2 24  7 12  5  9 13  4
  21934646.008      555366.636 4     97318.776 2
  18580294.406   -22876573.007 6 -17620766.757 9
  21338619.484    -1684609.053 5  -1233724.749 5
  18784182.469   -21459797.517 7 -15735870.227 8
  19863251.578   -12797359.911 6  -9890588.229 7
  18795765.273   -23251136.917 6 -18022427.876 9
  18957746.711   -28964646.967 7 -21000175.686 7
  18442026.625   -27917296.355 7 -21559856.357 9
 94  2 17  4  9 59.9920000  0  8  2 24  7 12  5  9 13  4
  21946580.508      618141.894 3    146234.569 1
  18566217.648   -22950544.010 6 -17678406.484 9
  21348248.063    -1633993.420 5  -1194284.044 5
  18774700.578   -21509625.581 7 -15774697.295 8
  19844409.258   -12896373.643 6  -9967741.781 7
  18794350.906   -23258585.281 6 -18028231.798 8
  18963095.727   -28936547.548 7 -20978280.034 7
  18441088.109   -27922216.797 6 -21563690.454 9
 94  2 17  4 10 29.9920000  0  8  2 24  7 12  5  9 13  4
  21958568.930      681134.540 3    195319.802 1
  18552235.484   -23024014.563 6 -17735656.251 9
  21357885.273    -1583347.368 5  -1154819.571 5
  18765328.133   -21558896.617 7 -15813090.312 8
  19825585.500   -12995274.219 6 -10044807.161 7
  18793043.461   -23265444.701 6 -18033576.812 8
  18968488.680   -28908197.342 7 -20956188.968 7
  18440263.734   -27926564.855 7 -21567078.552 9
 94  2 17  4 10 59.9920000  0  8  2 24  7 12  5  9 13  4
  21970588.055      744341.260 2    244571.680 1
  18538350.492   -23096984.155 6 -17792515.656 9
  21367522.555    -1532691.045 5  -1115347.093 5
  18756054.805   -21607613.486 7 -15851051.513 8
  19806789.602   -13094054.513 6 -10121778.800 7
  18791852.891   -23271713.895 6 -18038461.900 8
  18973931.477   -28879603.026 7 -20933907.689 7
  18439545.758   -27930339.857 7 -21570020.112 9
 94  2 17  4 11 29.9920000  0  8  2 24  7 12  5  9 13  4
  21982666.773      807760.918 3    293989.628 1
  18524561.094   -23169451.978 6 -17848984.076 9
  21377166.703    -1482024.223 5  -1075866.452 5
  18746889.227   -21655777.587 7 -15888581.993 8
  19788014.875   -13192707.880 6 -10198651.556 7
  18790772.070   -23277381.786 6 -18042878.448 8
  18979416.641   -28850769.956 7 -20911440.358 7
  18438930.750   -27933556.189 7 -21572526.336 9
 94  2 17  4 11 59.9920000  0  8  2 24  7 12  5  9 13  4
  21994775.258      871397.977 3    343576.877 1
  18510865.016   -23241407.384 6 -17905053.210 8
  21386808.149    -1431343.292 5  -1036374.833 5
  18737828.672   -21703384.699 7 -15925678.433 8
  19769272.094   -13291215.942 6 -10275411.058 7
  18789810.359   -23282446.147 6 -18046824.713 8
  18984949.117   -28821697.314 7 -20888786.337 7
  18438426.844   -27936214.323 7 -21574597.599 9
 94  2 17  4 12 29.9920000  0  8  2 24  7 12  5  9 13  4
  22006928.609      935242.689 3    393325.962 1
  18497269.820   -23312865.231 6 -17960734.628 8
  21396451.992    -1380658.840 5   -996880.438 5
  18728875.883   -21750445.375 7 -15962349.087 8
  19750556.195   -13389564.252 6 -10352046.088 7
  18788955.008   -23286931.063 6 -18050319.452 8
  18990525.953   -28792399.793 7 -20865957.106 7
  18438021.055   -27938335.183 7 -21576250.212 9
 94  2 17  4 12 59.9920000  0  8  2 24  7 12  5  9 13  4
  22019117.563      999295.950 3    443237.588 2
  18483763.984   -23383834.435 6 -18016035.292 9
  21406104.828    -1329956.037 5   -957371.748 5
  18720025.656   -21796958.562 7 -15998593.141 8
  19731871.742   -13487745.525 6 -10428550.965 7
  18788210.227   -23290843.535 6 -18053368.136 8
  18996143.336   -28762879.970 7 -20842954.625 7
  18437720.961   -27939929.733 7 -21577492.711 9
 94  2 17  4 13 29.9920000  0  8  2 24  7 12  5  9 13  4
  22031349.820     1063564.439 2    493316.885 1
  18470354.055   -23454295.775 6 -18070940.217 8
  21415761.023    -1279218.311 5   -917835.893 5
  18711281.820   -21842913.185 7 -16034401.941 8
  19713219.578   -13585765.256 6 -10504929.967 7
  18787572.031   -23294204.135 6 -18055986.809 8
  19001804.180   -28733130.258 7 -20819773.034 7
  18437518.727   -27940994.320 7 -21578322.249 9
 94  2 17  4 13 59.9920000  0  8  2 24  7 12  5  9 13  4
  22043608.727     1128035.227 2    543553.899 1
  18457046.977   -23524240.763 6 -18125442.794 8
  21425415.477    -1228463.931 5   -878286.999 5
  18702640.219   -21888312.770 7 -16069778.244 8
  19694596.844   -13683629.806 6 -10581188.042 7
  18787031.953   -23297041.322 6 -18058197.608 8
  19007509.984   -28703158.015 7 -20796418.045 7
  18437412.672   -27941530.637 7
 94  2 17  4 14 29.9920000  0  8  2 24  7 12  5  9 13  4
  22055927.602     1192713.386 2    593952.367 1
  18443834.977   -23593654.366 6 -18179531.297 8
  21435080.883    -1177683.071 5   -838717.496 5
  18694108.672   -21933144.105 6 -16104711.751 8
  19676005.227   -13781335.089 6 -10657322.018 7
  18786594.430   -23299344.331 6 -18059992.171 8
  19013254.086   -28672953.812 7 -20772882.298 7
  18437418.609   -27941522.465 7
 94  2 17  4 14 59.9920000  0  8  2 24  7 12  5  9 13  4
  22068269.828     1257601.250 1    644514.318 2
  18430730.609   -23662530.974 6 -18233201.372 8
  21444747.875    -1126879.718 5   -799130.479 5
  18685684.711   -21977406.946 7 -16139202.276 8
  19657437.297   -13878906.922 6 -10733352.018 7
  18786260.758   -23301100.482 6 -18061360.608 8
  19019047.422   -28642521.058 7 -20749168.459 7
  18437524.727   -27940959.644 7
 94  2 17  4 15 29.9920000  0  7 24  7 12  5  9 13  4
  18417727.281   -23730862.695 6 -18286446.859 9
  21454414.102    -1076075.358 5   -759542.698 5
  18677370.234   -22021103.996 7 -16173251.924 8
  19638896.672   -13976358.222 6 -10809288.084 7
  18786026.383   -23302309.769 6 -18062302.918 8
  19024881.180   -28611866.050 7 -20725281.435 7
  18437739.164   -27939835.717 7 -21577419.418 9
 94  2 17  4 15 59.9920000  0  7 24  7 12  5  9 13  4
  18404825.188   -23798661.048 6 -18339276.727 9
  21464082.438    -1025282.651 5   -719963.951 5
  18669162.914   -22064237.884 6 -16206862.744 8
  19620373.859   -14073675.411 6 -10885119.659 7
  18785909.617   -23302942.288 6 -18062795.800 8
  19030755.141   -28580994.806 7 -20701225.922 7
  18438057.500   -27938146.605 7 -21576103.221 9
 94  2 17  4 16 29.9920000  0  7 24  7 12  5  9 13  4
  18392019.063   -23865947.629 6 -18391707.807 8
  21473744.305     -974514.524 5   -680404.347 5
  18661060.063   -22106813.437 6 -16240038.501 8
  19601882.578   -14170866.343 6 -10960852.837 7
  18785900.906   -23302986.049 6
  19036669.141   -28549915.879 7 -20677008.568 7
  18438487.750   -27935898.654 7 -21574351.570 9
 94  2 17  4 16 59.9920000  0  7 24  7 12  5  9 13  4
  18379314.281   -23932725.228 6 -18443742.289 8
  21483395.078     -923767.408 5   -640861.133 5
  18653066.102   -22148822.670 6 -16272772.966 8
  19583409.758   -14267920.050 6 -11036479.079 8
  18786007.547   -23302434.878 6
  19042622.195   -28518624.853 7 -20652625.946 7
  18439023.180   -27933079.907 7 -21572155.132 9
 94  2 17  4 17 29.9920000  0  7 24  7 12  5  9 13  4
  18366702.148   -23998992.475 6 -18495379.089 9
  21493049.992     -873036.702 5   -601330.699 5
  18645182.305   -22190259.710 7 -16305061.565 8
  19564970.406   -14364826.522 7 -11111990.607 7
  18786222.328   -23301298.922 6 -18061515.285 8
  19048619.445   -28487119.367 7 -20628076.215 7
  18439667.219   -27929690.764 7 -21569514.236 9
 94  2 17  4 17 59.9920000  0  7 24  7 12  5  9 13  4
  18354186.359   -24064769.795 6 -18546634.139 8
  21502704.906     -822318.369 5   -561809.931 5
  18637402.258   -22231132.954 6 -16336910.848 8
  19546555.289   -14461591.172 6 -11187391.628 7
  18786548.047   -23299592.138 6 -18060185.336 8
  19054652.578   -28455410.881 7 -20603368.293 7
  18440417.070   -27925750.242 7 -21566443.691 9
 94  2 17  4 18 29.9920000  0  7 24  7 12  5  9 13  4
  18341764.406   -24130058.485 6 -18597508.412 8
  21512357.172     -771597.187 5   -522286.937 5
  18629732.445   -22271441.249 6 -16368319.908 8
  19528170.641   -14558214.839 6 -11262682.783 7
  18786971.961   -23297330.704 6 -18058423.186 8
  19060723.070   -28423501.939 7 -20578504.186 7
  18441273.055   -27921267.595 7 -21562950.724 9
 94  2 17  4 18 59.9920000  0  7 24  7 12  5  9 13  4
  18329435.156   -24194837.781 6 -18647985.778 8
  21522011.164     -720844.705 5   -482739.546 5
  18622172.258   -22311169.810 6 -16399277.228 8
  19509812.188   -14654679.421 6 -11337849.983 7
  18787512.484   -23294513.358 6 -18056227.856 8
  19066840.047   -28391381.201 7 -20553475.041 7
  18442227.258   -27916236.780 7 -21559030.592 9
 94  2 17  4 19 29.9920000  0  7 24  7 12  5  9 13  4
  18317201.969   -24259116.117 6 -18698072.787 8
  21531674.656     -670069.481 5   -443174.430 5
  18614723.750   -22350324.962 7 -16429787.732 8
  19491488.586   -14750984.371 6 -11412892.794 7
  18788152.781   -23291148.517 6 -18053605.909 8
  19072986.164   -28359058.367 7 -20528288.421 7
  18443284.242   -27910695.776 7 -21554712.928 9
 94  2 17  4 19 59.9920000  0  7 24  7 12  5  9 13  4
  18305062.805   -24322902.424 6 -18747776.377 8
  21541342.188     -619275.997 5   -403595.110 5
  18607378.273   -22388908.253 6 -16459852.630 8
  19473193.648   -14847117.392 6 -11487801.621 8
  18788899.672   -23287235.755 6 -18050557.016 8
  19079176.836   -28326538.435 7 -20502948.203 7
  18444430.398   -27904655.319 7 -21550006.071 9
 94  2 17  4 20 29.9920000  0  7 24  7 12  5  9 13  4
  18293025.688   -24386174.243 6 -18797079.087 8
  21551007.531     -568464.545 5   -364001.802 5
  18600146.508   -22426911.973 6 -16489465.923 8
  19454934.375   -14943067.743 7 -11562568.112 8
  18789747.297   -23282776.811 6 -18047082.519 8
  19085401.086   -28293816.897 7 -20477450.893 7
  18445678.953   -27898104.765 7 -21544901.746 9
 94  2 17  4 20 59.9920000  0  7 24  7 12  5  9 13  4
  18281084.555   -24448921.144 6 -18845972.753 8
  21560684.695     -517647.105 5   -324403.811 5
  18593027.570   -22464336.822 6 -16518628.153 8
  19436710.422   -15038836.075 7 -11637192.783 8
  18790695.758   -23277775.609 6 -18043185.498 8
  19091664.844   -28260897.792 7 -20451799.631 7
  18447025.313   -27891046.955 7 -21539402.150 9
 94  2 17  4 21 29.9920000  0  7 24  7 12  5  9 13  4
  18269247.336   -24511134.543 6 -18894450.715 8
  21570348.070     -466826.141 5   -284803.051 5
  18586014.203   -22501178.092 6 -16547335.633 8
  19418520.266   -15134418.983 7 -11711672.966 8
  18791755.094   -23272226.651 6 -18038861.627 8
  19097970.484   -28227779.680 7 -20425993.309 7
  18448461.344   -27883470.443 7 -21533498.361 9
 94  2 17  4 21 59.9920000  0  7 24  7 12  5  9 13  4
  18257511.508   -24572795.524 6 -18942498.214 8
  21580023.125     -416001.201 5   -245199.202 5
  18579114.844   -22537441.993 6 -16575593.211 8
  19400366.422   -15229829.432 6 -11786018.757 8
  18792913.945   -23266142.495 6 -18034120.739 8
  19104305.727   -28194471.810 7 -20400039.116 7
  18450008.781   -27875354.051 7 -21527173.893 9
 94  2 17  4 22 29.9920000  0  7 24  7 12  5  9 13  4
  18245888.656   -24633885.363 6 -18990100.675 8
  21589702.391     -365161.619 5   -205583.964 5
  18572322.289   -22573127.874 6 -16603400.391 8
  19382239.289   -15325078.653 6 -11860238.918 7
  18794167.234   -23259525.310 6 -18028964.504 8
  19110680.383   -28160977.103 7 -20373939.345 7
  18451657.703   -27866696.203 7 -21520427.518 9
 94  2 17  4 22 59.9920000  0  7 24  7 12  5  9 13  4
  18234367.266   -24694411.641 6 -19037263.995 8
  21599373.359     -314302.458 4   -165953.450 5
  18565645.164   -22608227.826 6 -16630751.016 8
  19364146.086   -15420167.540 6 -11934334.143 7
  18795536.547   -23252361.258 6 -18023382.131 8
  19117090.320   -28127290.478 7 -20347690.018 7
  18453408.445   -27857493.645 7 -21513256.692 9
 94  2 17  4 23 29.9920000  0  7 24  7 12  5  9 13  4
  18222957.281   -24754382.458 6 -19083994.486 8
  21609062.320     -263424.904 5   -126308.600 5
  18559076.633   -22642741.577 7 -16657644.848 8
  19346079.024   -15515102.617 6 -12008309.524 7
  18796998.305   -23244664.340 6 -18017384.547 8
  19123539.391   -28093415.110 7 -20321293.633 7
  18455261.578   -27847740.277 7 -21505656.656 9
 94  2 17  4 23 59.9920000  0  7 24  7 12  5  9 13  4
  18211650.219   -24813804.363 6 -19130297.253 8
  21618741.750     -212537.281 4    -86655.937 5
  18552619.047   -22676674.069 6 -16684085.745 8
  19328045.680   -15609880.738 7 -12082162.610 7
  18798561.039   -23236447.033 6 -18010981.459 8
  19130020.031   -28059358.803 7 -20294756.246 7
  18457222.391   -27837449.279 7 -21497637.696 9
 94  2 17  4 24 29.9920000  0  7 24  7 12  5  9 13  4
  18200442.758   -24872705.902 7 -19176194.550 8
  21628424.281     -161653.621 4    -47006.316 5
  18546275.766   -22710019.926 6 -16710069.540 8
  19310039.828   -15704490.442 6 -12155884.448 8
  18800230.188   -23227696.031 6 -18004162.507 8
  19136532.227   -28025119.399 7 -20268076.190 7
  18459277.750   -27826631.323 7 -21489208.114 9
 94  2 17  4 24 59.9920000  0  7 24  7 12  5  9 13  4
  18189328.063   -24931112.466 6 -19221706.146 8
  21638101.539     -110792.762 4     -7374.473 5
  18540038.133   -22742783.902 6 -16735599.922 8
  19292070.289   -15798922.316 6 -12229467.711 8
  18801995.336   -23218412.079 6 -17996928.268 8
  19143082.156   -27990704.651 7 -20241259.505 7
  18461437.063   -27815290.470 7 -21480371.080 9
 94  2 17  4 25 29.9920000  0  7 24  7 12  5  9 13  4
  18178307.422   -24989019.640 6 -19266828.609 8
  21647774.031      -59954.921 4     32239.364 5
  18533914.367   -22774966.194 6 -16760677.022 8
  19274137.469   -15893163.487 6 -12302902.374 8
  18803858.758   -23208596.610 6 -17989279.853 8
  19149662.078   -27956117.859 7 -20214308.739 7
  18463696.531   -27803432.743 7 -21471131.289 9
 94  2 17  4 25 59.9920000  0  7 24  7 12  5  9 13  4
  18167380.805   -25046438.171 7 -19311570.313 8
  21657442.484       -9140.123 3     71835.287 5
  18527903.680   -22806566.294 7 -16785300.477 8
  19256241.422   -15987201.072 6 -12376178.412 7
  18805835.828   -23198230.776 6 -17981202.581 8
  19156277.586   -27921361.434 7 -20187225.820 7
  18466046.094   -27791064.041 7 -21461493.329 9
 94  2 17  4 26 29.9920000  0  7 24  7 12  5  9 13  4
  18156549.031   -25103361.924 7 -19355926.470 8
  21667108.445       41670.493 3    111428.006 5
  18522000.180   -22837575.522 6 -16809463.515 8
  19238386.188   -16081038.125 6 -12449298.184 7
  18807914.313   -23187301.251 6 -17972686.096 8
  19162925.906   -27886429.625 7 -20160006.219 7
  18468503.211   -27778171.485 7 -21451447.183 9
 94  2 17  4 26 59.9920000  0  7 24  7 12  5  9 13  4
  18145813.055   -25159770.613 6 -19399881.276 8
  21676788.078       92492.179 4    151029.286 5
  18516212.211   -22867996.591 6 -16833168.253 8
  19220567.336   -16174677.209 6 -12522263.690 8
  18810096.789   -23175837.658 6 -17963753.426 8
  19169603.953   -27851328.133 7 -20132654.411 7
  18471055.070   -27764757.028 7 -21440994.350 9
 94  2 17  4 27 29.9920000  0  7 24  7 12  5  9 13  4
  18135181.914   -25215646.765 7 -19443421.123 8
  21686463.383      143333.050 4    190645.556 5
  18510535.500   -22897826.689 6 -16856412.483 8
  19202786.031   -16268124.082 6 -12595079.425 8
  18812376.055   -23163843.266 6 -17954407.168 8
  19176316.047   -27816057.006 7 -20105170.405 7
  18473706.203   -27750826.643 7 -21430139.497 9
 94  2 17  4 27 59.9920000  0  7 24  7 12  5  9 13  4
  18124649.141   -25270988.770 6 -19486544.747 8
  21696142.648      194202.240 3    230283.900 4
  18504969.789   -22927067.121 6 -16879197.233 8
  19185036.547   -16361389.479 6 -12667753.752 8
  18814763.344   -23151317.625 6 -17944646.925 8
  19183062.023   -27780620.387 7 -20077557.460 7
  18476449.859   -27736387.757 7 -21418888.412 9
 94  2 17  4 28 29.9920000  0  7 24  7 12  5  9 13  4
  18114223.977   -25325783.456 7 -19529241.904 8
  21705825.938      245100.772 4    269945.059 5
  18499516.258   -22955720.349 6 -16901524.427 8
  19167322.609   -16454480.224 6 -12740291.991 8
  18817247.195   -23138272.765 6 -17934482.113 8
  19189835.719   -27745023.611 7 -20049819.699 7
  18479293.469   -27721454.608 7 -21407252.199 9
 94  2 17  4 29 29.9910000  0  7 24  7 12  5  9 13  4
  18093674.073   -25433770.293 7 -19613387.455 8
  21725206.331      346944.517 3    349303.788 3
  18488945.300   -23011274.790 6 -16944813.605 8
  19131998.440   -16640112.840 6 -12884940.768 8
  18822505.480   -23110623.133 6 -17912936.955 8
  19203468.511   -27673371.937 7 -19993987.211 6
  18485252.808   -27690153.401 7 -21382861.620 9
 94  2 17  4 29 59.9910000  0  7 24  7 12  5  9 13  4
  18083550.605   -25486969.935 6 -19654841.713 8
  21734906.730      397891.687 3    389002.934 4
  18483829.683   -23038160.642 6 -16965763.620 8
  19114392.175   -16732634.285 6 -12957035.394 8
  18825287.870   -23095993.313 6 -17901537.108 8
  19210333.191   -27637305.331 7 -19965883.377 6
  18488371.628   -27673768.229 7 -21370093.957 9
 94  2 17  4 30 29.9910000  0  7 24  7 12  5  9 13  4
  18073525.558   -25539645.617 6 -19695887.684 8
  21744595.300      448833.637 3    428697.954 2
  18478828.440   -23064450.535 6 -16986249.247 8
  19096824.940   -16824947.700 6 -13028967.909 8
  18828176.034   -23080840.571 6 -17889729.785 8
  19217228.417   -27601080.693 7 -19937656.382 6
  18491578.940   -27656885.964 7 -21356938.935 9
 94  2 17  4 30 59.9910000  0  7 24  7 12  5  9 13  4
  18063603.198   -25591796.037 7 -19736524.369 8
  21754285.886      499745.401 3    468369.365 1
  18473940.573   -23090147.072 6 -17006272.530 8
  19079296.261   -16917049.365 6 -13100735.423 8
  18831157.042   -23065168.519 6 -17877517.806 8
  19224148.940   -27564703.460 7 -19909310.487 7
  18494891.042   -27639505.270 7 -21343395.549 9
 94  2 17  4 31 29.9910000  0  7 24  7 12  5  9 13  4
  18053780.933   -25643407.027 6 -19776740.701 8
  21763961.401      550619.921 3    508011.866 1
  18469163.144   -23115243.911 6 -17025828.507 8
  19061811.964   -17008937.935 7 -13172336.901 8
  18834237.722   -23048967.875 6 -17864893.933 8
  19231099.644   -27528169.674 7 -19880842.594 6
  18498292.081   -27621621.579 7 -21329460.189 9
 94  2 17  4 31 59.9910000  0  7 24  7 12  5  9 13  4
  18044066.886   -25694477.561 7 -19816535.916 8
  21773642.612      601459.701 4    547627.307 1
  18464498.956   -23139741.626 6 -17044917.641 8
  19044367.612   -17100617.477 7 -13243775.500 8
  18837422.144   -23032243.969 6 -17851862.331 8
  19238082.675   -27491482.592 7 -19852255.255 6
  18501789.472   -27603240.788 7 -21315137.496 9
 94  2 17  4 32 29.9910000  0  7 24  7 12  5  9 13  4
  18034450.683   -25745001.780 7 -19855905.429 8
  21783308.222      652255.880 3    587208.746 4
  18459951.519   -23163643.155 6 -17063542.217 8
  19026958.136   -17192094.134 7 -13315056.005 8
  18840703.011   -23014994.188 6 -17838420.942 8
  19245090.698   -27454647.790 7 -19823552.812 7
  18505377.917   -27584367.732 7 -21300431.207 9
 94  2 17  4 32 59.9910000  0  7 24  7 12  5  9 13  4
  18024938.565   -25794973.106 7 -19894844.102 8
  21792970.409      703028.928 3    626772.180 2
  18455520.831   -23186944.217 6 -17081698.889 8
  19009593.058   -17283359.884 6 -13386172.163 8
  18844089.136   -22997206.207 6 -17824560.192 8
  19252129.964   -27417663.472 7 -19794733.876 7
  18509065.050   -27565008.986 7 -21285346.486 9
 94  2 17  4 33 29.9910000  0  7 24  7 12  5  9 13  4
  18015533.284   -25844406.177 7 -19933363.367 8
  21802624.823      753804.345 2    666337.447 1
  18451197.456   -23209647.643 6 -17099389.868 8
  18992261.644   -17374426.988 7 -13457133.531 8
  18847576.675   -22978891.241 6 -17810288.802 8
  19259190.808   -27380535.051 7 -19765802.628 7
  18512841.042   -27545168.803 7 -21269886.588 9
 94  2 17  4 33 59.9910000  0  7 24  7 12  5  9 13  4
  18006228.659   -25893295.234 7 -19971458.729 8
  21812291.237      804589.403 3    705910.198 1
  18446989.815   -23231754.036 6 -17116615.635 8
  18974973.495   -17465284.387 7 -13527931.511 8
  18851157.753   -22960059.706 6 -17795614.885 8
  19266286.456   -27343265.538 7 -19736761.447 7
  18516708.472   -27524845.168 7 -21254049.990 9
 94  2 17  4 34 29.9910000  0  7 24  7 12  5  9 13  4
  17997031.503   -25941629.949 7 -20009122.126 8
  21821962.730      855379.277 4    745486.703 2
  18442898.394   -23253261.605 6 -17133374.781 8
  18957725.448   -17555918.508 7 -13598555.488 9
  18854839.628   -22940716.344 6 -17780542.146 8
  19273405.206   -27305855.397 7 -19707610.688 6
  18520665.472   -27504035.591 7 -21237834.730 9
 94  2 17  4 34 59.9910000  0  7 24  7 12  5  9 13  4
  17987939.784   -25989408.964 7 -20046352.507 8
  21831629.894      906184.697 4    785075.300 1
  18438920.159   -23274165.272 6 -17149663.361 7
  18940520.464   -17646325.723 7 -13669002.649 9
  18858617.698   -22920868.227 6 -17765076.089 8
  19280551.980   -27268301.838 7 -19678348.176 7
  18524716.730   -27482741.657 7 -21221242.055 9
 94  2 17  4 35 29.9910000  0  7 24  7 12  5  9 13  4
  17978951.284   -26036647.840 7 -20083162.012 8
  21841290.526      956993.786 3    824666.789 3
  18435058.433   -23294468.938 6 -17165484.401 7
  18923360.550   -17736506.008 7 -13739272.989 9
  18862483.284   -22900532.522 6 -17749230.103 8
  19287724.487   -27230611.284 7 -19648978.917 7
  18528866.464   -27460948.822 7 -21204260.618 9
 94  2 17  4 35 59.9910000  0  7 24  7 12  5  9 13  4
  17970063.136   -26083349.884 7 -20119553.203 8
  21850967.487     1007792.421 3    864250.128 3
  18431306.558   -23314173.072 6 -17180838.279 8
  18906244.925   -17826447.994 7 -13809357.647 9
  18866447.487   -22879705.797 6 -17733001.482 8
  19294921.706   -27192786.624 7 -19619505.148 7
  18533112.628   -27438648.254 7 -21186883.552 9
 94  2 17  4 36 29.9910000  0  7 24  7 12  5  9 13  4
  17961277.089   -26129524.429 7 -20155533.348 8
  21860622.058     1058589.730 3    903832.477 2
  18427673.214   -23333276.094 6 -17195723.749 8
  18889174.136   -17916164.495 7 -13879266.613 9
  18870506.167   -22858393.653 6 -17716394.640 8
  19302144.901   -27154828.402 6 -19589927.318 6
  18537450.737   -27415838.242 7 -21169109.524 9
 94  2 17  4 36 59.9910000  0  7 24  7 12  5  9 13  4
  17952585.980   -26175192.604 7 -20191118.927 8
  21870292.769     1109397.696 3    943423.131 1
  18424150.565   -23351783.501 6 -17210145.112 7
  18872142.316   -18005655.817 7 -13949000.109 9
  18874652.526   -22836596.338 6 -17699409.726 8
  19309391.105   -27116744.473 6 -19560251.522 6
  18541888.659   -27392523.953 7 -21150942.533 9
 94  2 17  4 37 29.9910000  0  7 24  7 12  5  9 13  4
  17943992.925   -26220342.416 7 -20226300.594 8
  21879971.464     1160230.856 4    983033.308 1
  18420742.894   -23369688.835 6 -17224097.326 8
  18855158.644   -18094907.511 7 -14018546.875 8
  18878895.784   -22814298.528 6 -17682034.826 8
  19316664.487   -27078530.430 7 -19530474.345 6
  18546419.276   -27368703.165 7 -21132380.873 9
 94  2 17  4 37 59.9910000  0  7 24  7 12  5  9 13  4
  17935505.440   -26264949.447 7 -20261059.297 8
  21889646.503     1211093.867 4   1022666.832 1
  18417448.315   -23386990.285 6 -17237578.986 8
  18838221.901   -18183921.211 7 -14087908.202 9
  18883233.276   -22791499.811 6 -17664269.605 8
  19323960.105   -27040186.820 7 -19500596.201 6
  18551043.925   -27344408.992 7 -21113450.349 9
 94  2 17  4 38 29.9910000  0  7 24  7 12  5  9 13  4
  17927120.558   -26309009.451 7 -20295391.764 8
  21899329.698     1261979.657 3   1062318.063 1
  18414271.315   -23403689.000 6 -17250590.968 8
  18821327.761   -18272699.070 7 -14157085.743 9
  18887667.089   -22768209.871 6 -17646121.606 8
  19331282.995   -27001716.720 7 -19470619.509 6
  18555750.565   -27319676.066 7 -21094177.938 9
 94  2 17  4 38 59.9910000  0  7 24  7 12  5  9 13  4
  17918837.933   -26352520.777 7 -20329296.683 8
  21909022.183     1312878.674 5   1101979.660 2
  18411211.823   -23419779.816 6 -17263129.271 7
  18804481.683   -18361222.495 7 -14226065.026 9
  18892192.706   -22744402.521 6 -17627570.437 8
  19338627.636   -26963117.346 7 -19440542.063 6
  18560538.315   -27294517.085 7 -21074573.530 9
 94  2 17  4 39 29.9910000  0  7 24  7 12  5  9 13  4
  17910667.878   -26395477.074 7 -20362769.109 8
  21918702.503     1363762.692 5   1141629.537 3
  18408264.308   -23435264.904 6 -17275195.585 8
  18787680.987   -18449512.658 7 -14294862.561 9
  18896824.026   -22720081.543 6 -17608619.043 8
  19345993.378   -26924392.683 7 -19410366.997 6
  18565406.737   -27268938.807 7 -21054642.412 9
 94  2 17  4 39 59.9910000  0  7 24  7 12  5  9 13  4
  17902595.026   -26437899.616 7 -20395825.625 8
  21928370.378     1414604.699 4   1181246.656 2
  18405430.933   -23450154.556 6 -17286797.923 7
  18770919.542   -18537583.597 7 -14363489.249 9
  18901550.753   -22695260.004 6 -17589277.594 8
  19353385.300   -26885555.149 7 -19380103.981 6
  18570351.917   -27242937.029 7 -21034381.270 9
 94  2 17  4 40 29.9910000  0  7 24  7 12  5  9 13  4
  17894621.167   -26479798.938 7 -20428474.438 8
  21938045.323     1465408.816 5   1220834.278 2
  18402709.566   -23464443.494 6 -17297932.168 8
  18754208.120   -18625420.037 7 -14431933.220 9
  18906368.956   -22669925.509 6 -17569536.447 8
  19360798.495   -26846601.645 7 -19349750.599 6
  18575387.323   -27216477.147 7 -21013763.185 9
 94  2 17  4 40 59.9910000  0  7 24  7 12  5  9 13  4
  17886751.386   -26521156.654 7 -20460701.225 8
  21947713.456     1516195.735 5   1260408.492 4
  18400108.284   -23478127.061 6 -17308594.684 8
  18737538.245   -18713015.037 7 -14500189.060 9
  18911286.042   -22644074.294 6 -17549392.649 8
  19368233.909   -26807529.105 7 -19319304.456 6
  18580516.378   -27189531.196 7 -20992766.332 9
 94  2 17  4 41 29.9910000  0  8 20 24  7 12  5  9 13  4
  21514251.394          -0.18712
  17878985.745   -26561965.107 7 -20492500.003 8
  21957367.909     1566970.461 3   1299973.179 3
  18397618.230   -23491209.063 6 -17318788.457 8
  18720912.230   -18800376.091 7 -14568262.598 9
  18916299.269   -22617741.190 6 -17528873.368 8
  19375689.081   -26768343.454 7 -19288770.182 6
  18585737.050   -27162092.694 7 -20971385.679 9
 94  2 17  4 41 59.9910000  0  8 20 24  7 12  5  9 13  4
  21491060.581     -121844.005 2        -0.28711
  17871325.214   -26602225.685 7 -20523871.881 8
  21967029.800     1617757.799 3   1339547.737 2
  18395241.183   -23503684.924 6 -17328509.919 8
  18704339.362   -18887480.321 7 -14636136.029 9
  18921401.612   -22590938.524 6 -17507988.179 8
  19383167.417   -26729042.122 6 -19258145.765 6
  18591050.003   -27134169.401 7 -20949627.263 9
 94  2 17  4 42 29.9910000  0  8 20 24  7 12  5  9 13  4
  21467885.386     -243650.249 2    -94914.225 1
  17863772.362   -26641916.777 7 -20554799.993 8
  21976705.315     1668578.588 3   1379148.301 5
  18392988.495   -23515539.998 6 -17337747.654 8
  18687812.401   -18974312.407 7 -14703797.390 9
  18926593.659   -22563646.491 6 -17486721.663 8
  19390673.308   -26689612.083 7 -19227421.056 6
  18596453.058   -27105774.809 7 -20927501.603 9
 94  2 17  4 42 59.9910000  0  8 20 24  7 12  5  9 13  4
  21444702.409     -365440.619 2   -189815.769 1
  17856320.901   -26681070.834 7 -20585309.637 8
  21986380.644     1719401.575 4   1418750.634 5
  18390844.362   -23526797.458 6 -17346519.694 8
  18671336.480   -19060908.655 7 -14771274.969 9
  18931871.456   -22535893.235 6 -17465095.778 8
  19398197.011   -26650078.159 7 -19196615.404 6
  18601939.433   -27076944.067 7 -20905036.090 9
 94  2 17  4 43 29.9910000  0  8 20 24  7 12  5  9 13  4
  21421533.776     -487213.864 2   -284703.998 1
  17848967.581   -26719710.889 7 -20615418.754 8
  21996046.144     1770213.362 3   1458344.217 5
  18388819.214   -23537457.831 6 -17354826.487 7
  18654902.448   -19147268.031 7 -14838567.989 9
  18937247.253   -22507675.489 6 -17443107.915 8
  19405737.722   -26610442.910 7 -19165730.789 6
  18607509.323   -27047684.475 7 -20882236.415 9
 94  2 17  4 43 59.9910000  0  8 20 24  7 12  5  9 13  4
  21398369.120     -608960.403 3   -379571.416 1
  17841710.776   -26757838.141 7 -20645128.298 8
  22005715.784     1821018.891 3   1497932.900 5
  18386905.042   -23547513.128 6 -17362661.784 7
  18638517.495   -19233372.300 7 -14905662.228 8
  18942705.120   -22478977.091 6 -17420745.542 8
  19413300.347   -26570700.231 6 -19134762.463 6
  18613157.683   -27017991.515 7 -20859099.030 9
 94  2 17  4 44 29.9910000  0  8 20 24  7 12  5  9 13  4
  21375208.581     -730681.755 4   -474419.150 1
  17834556.917   -26795448.140 7 -20674434.775 8
  22015375.362     1871813.359 2   1537512.952 5
  18385105.386   -23556966.684 6 -17370028.217 8
  18622179.870   -19319218.691 7 -14972555.528 8
  18948258.237   -22449794.315 6 -17398005.746 8
  19420882.722   -26530854.806 6 -19103714.088 7
  18618895.933   -26987853.626 7 -20835614.962 9
 94  2 17  4 44 59.9910000  0  7 20 24 12  5  9 13  4
  21352042.823     -852374.121 4   -569244.322 2
  17827495.667   -26832540.288 7 -20703337.738 8
  18383421.792   -23565816.502 6 -17376924.175 8
  18605895.425   -19404794.121 7 -15039237.672 9
  18953903.034   -22420143.037 6 -17374900.848 8
  19428483.761   -26490906.398 7 -19072585.444 6
  18624716.862   -26957257.329 7 -20811773.683 9
 94  2 17  4 45 29.9910000  0  7 20 24 12  5  9 13  4
  21328898.222     -974031.615 4   -664042.325 2
  17820541.456   -26869094.916 7 -20731821.856 7
  18381856.151   -23574058.628 6 -17383346.620 7
  18589665.550   -19490085.388 7 -15105698.401 9
  18959627.589   -22390029.933 6 -17351436.117 8
  19436106.565   -26450852.868 6 -19041374.920 6
  18630623.706   -26926217.133 7 -20787586.519 9
 94  2 17  4 45 59.9910000  0  7 20 24 12  5  9 13  4
  21305749.620    -1095659.151 4   -758817.025 3
  17813688.628   -26905109.885 7 -20759885.453 8
  18380395.636   -23581699.917 6 -17389300.868 8
  18573487.792   -19575094.497 7 -15171939.263 9
  18965448.362   -22359470.205 6 -17327623.342 8
  19443748.464   -26410702.406 7 -19010088.837 6
  18636609.433   -26894742.337 7 -20763060.706 9
 94  2 17  4 46 29.9910000  0  7 20 24 12  5  9 13  4
  21282609.331    -1217254.686 4   -853566.777 1
  17806934.972   -26940582.575 7 -20787526.505 7
  18379059.019   -23588740.236 6 -17394786.852 8
  18557366.136   -19659822.916 7 -15237961.393 9
  18971345.112   -22328456.385 6 -17303456.740 8
  19451404.925   -26370456.530 7 -18978728.421 6
  18642684.136   -26862844.074 7 -20738204.915 9
 94  2 17  4 46 59.9910000  0  7 20 24 12  5  9 13  4
  21259483.480    -1338819.359 5   -948292.460 3
  17800290.362   -26975517.048 7 -20814748.160 7
  18377833.120   -23595182.392 6 -17399806.712 8
  18541295.065   -19744284.405 7 -15303775.547 9
  18977334.776   -22297000.477 6 -17278945.661 8
  19459080.253   -26330119.712 6 -18947297.129 6
  18648829.737   -26830538.503 7 -20713031.737 9
 94  2 17  4 47 29.9910000  0  7 20 24 12  5  9 13  4
  21236350.886    -1460350.102 4  -1042991.732 2
  17793743.761   -27009910.490 7 -20841548.235 8
  18376723.425   -23601025.684 6 -17404359.927 7
  18525273.722   -19828474.472 7 -15369378.191 9
  18983403.597   -22265096.729 6 -17254085.604 8
  19466775.909   -26289692.500 6 -18915795.399 6
  18655053.987   -26797825.601 7 -20687541.153 9
 94  2 17  4 47 59.9910000  0  7 20 24 12  5  9 13  4
  21213237.198    -1581839.350 5  -1137658.658 4
  17787301.269   -27043767.489 7 -20867930.300 8
  18375724.097   -23606264.129 6 -17408441.849 7
  18509306.159   -19912388.862 7 -15434766.032 8
  18989564.026   -22232738.932 6 -17228871.748 7
  19474483.386   -26249170.317 6 -18884219.693 6
  18661361.464   -26764683.178 7 -20661715.896 9
 94  2 17  4 48 29.9910000  0  7 20 24 12  5  9 13  4
  21190128.472    -1703285.462 5  -1232291.954 4
  17780962.636   -27077082.785 7 -20893890.259 7
  18374843.800   -23610898.285 6 -17412052.882 7
  18493386.167   -19996036.560 7 -15499946.060 8
  18995808.394   -22199928.526 6 -17203305.207 8
  19482214.503   -26208555.287 6 -18852571.601 6
  18667746.956   -26731115.763 7 -20635559.475 9
 94  2 17  4 48 59.9910000  0  7 20 24 12  5  9 13  4
  21167025.026    -1824679.815 5  -1326884.930 4
  17774724.636   -27109851.900 7 -20919424.629 8
  18374075.581   -23614921.542 6 -17415187.899 8
  18477520.909   -20079411.288 7 -15564913.377 8
  19002134.573   -22166669.327 6 -17177388.964 7
  19489961.230   -26167842.090 6 -18820847.044 6
  18674220.855   -26697111.416 7 -20609062.580 9
 94  2 17  4 49 29.9910000  0  7 20 24 12  5  9 13  4
  21143937.472    -1946022.807 5  -1421437.884 5
  17768589.534   -27142087.897 7 -20944543.580 8
  18373425.245   -23618336.206 6 -17417848.681 8
  18461708.448   -20162507.350 7 -15629663.556 9
  19008549.542   -22132957.861 6 -17151120.310 7
  19497727.448   -26127034.420 6 -18789048.864 6
  18680772.425   -26662676.709 7 -20582230.323 9
 94  2 17  4 49 59.9910000  0  7 20 24 12  5  9 13  4
  21120852.276    -2067325.317 5  -1515959.290 5
  17762557.925   -27173809.876 7 -20969261.998 7
  18372889.558   -23621155.306 6 -17420045.380 7
  18445947.534   -20245338.338 7 -15694207.186 8
  19015050.855   -22098807.196 6 -17124509.405 7
  19505505.534   -26086146.664 6 -18757188.278 6
  18687406.542   -26627825.986 7 -20555073.933 9
 94  2 17  4 50 29.9910000  0  7 20 24 12  5  9 13  4
  21097778.722    -2188576.783 5  -1610440.907 5
  17756618.964   -27205004.442 7 -20993569.442 7
  18372467.901   -23623370.653 6 -17421771.646 8
  18430239.690   -20327875.722 7 -15758522.033 9
  19021633.909   -22064199.494 6 -17097542.385 7
  19513307.495   -26045171.831 6 -18725259.837 6
  18694114.636   -26592562.241 7 -20527595.683 9
 94  2 17  4 50 59.9910000  0  7 20 24 12  5  9 13  4
  21074715.409    -2309772.582 5  -1704879.159 5
  17750782.065   -27235675.345 7 -21017468.834 7
  18372165.722   -23624979.818 6 -17423025.539 8
  18414591.730   -20410101.419 7 -15822593.996 9
  19028309.003   -22029129.893 6 -17070215.429 7
  19521117.964   -26004108.534 6 -18693262.470 6
  18700902.987   -26556881.701 7 -20499792.671 9
 94  2 17  4 51 29.9910000  0  7 20 24 12  5  9 13  4
  21051662.409    -2430920.773 5  -1799280.309 5
  17745045.245   -27265825.651 7 -21040962.566 8
  18371971.081   -23625993.287 6 -17423815.257 8
  18399002.190   -20492016.172 7 -15886423.666 9
  19035065.980   -21993608.252 6 -17042536.237 7
  19528948.276   -25962968.550 6 -18661205.338 6
  18707773.198   -26520789.168 7 -20471668.619 9
 94  2 17  4 51 59.9910000  0  7 20 24 12  5  9 13  4
  21028615.808    -2552017.232 5  -1893641.155 5
  17739409.284   -27295435.896 7 -21064035.478 8
  18371890.683   -23626409.071 6
  18383477.230   -20573614.487 7 -15950006.773 9
  19041914.058   -21957636.873 6 -17014506.604 7
  19536792.058   -25921751.068 6 -18629087.820 6
  18714719.487   -26484276.708 7 -20443217.340 9
 94  2 17  4 52 29.9910000  0  7 20 24 12  5  9 13  4
  21005580.894    -2673059.265 5  -1987959.596 6
  17733880.300   -27324498.570 7 -21086681.705 8
  18371927.339   -23626226.949 6
  18368006.394   -20654905.702 7 -16013350.576 9
  19048842.558   -21921220.567 6 -16986130.269 7
  19544649.605   -25880456.834 6 -18596910.509 6
  18721745.823   -26447347.270 7 -20414441.155 9
 94  2 17  4 52 59.9910000  0  7 20 24 12  5  9 13  4
  20982560.815    -2794048.957 5  -2082237.235 5
  17728452.011   -27353019.169 7 -21108905.548 8
  18372071.370   -23625451.197 6 -17423392.876 7
  18352591.417   -20735913.313 7 -16076473.389 9
  19055855.151   -21884374.721 6 -16957419.239 7
  19552520.190   -25839091.354 6 -18564677.662 6
  18728857.589   -26409998.169 7 -20385337.975 9
 94  2 17  4 53 29.9910000  0  7 20 24 12  5  9 13  4
  20959549.175    -2914981.131 5  -2176470.067 5
  17723127.495   -27381004.701 7 -21130712.441 8
  18372335.534   -23624079.199 6 -17422323.787 7
  18337229.769   -20816644.574 7 -16139380.872 9
  19062945.292   -21847107.041 6 -16928379.493 7
  19560406.230   -25797652.779 6 -18532387.872 6
  18736039.698   -26372237.470 7 -20355914.044 9
 94  2 17  4 53 59.9910000  0  8 20 24 16 12  5  9 13  4
  20936550.073    -3035853.185 5  -2270656.047 5
  17717902.026   -27408463.260 7 -21152108.725 8
  22016550.995          -0.45813
  18372711.706   -23622110.570 6 -17420789.792 8
  18321916.183   -20897112.399 7 -16202083.069 9
  19070119.597   -21809412.079 6 -16899006.820 7
  19568308.386   -25756142.037 6 -18500041.841 6
  18743299.183   -26334077.262 7 -20326178.803 9
 94  2 17  4 54 29.9910000  0  8 20 24 16 12  5  9 13  4
  20913555.151    -3156661.776 5  -2364792.575 5
  17712776.081   -27435404.958 7 -21173102.250 8
  21994305.745     -116894.179 4
  18373195.917   -23619544.482 6 -17418790.255 7
  18306655.464   -20977314.123 7 -16264577.919 9
  19077371.370   -21771287.777 6 -16869299.577 7
  19576219.331   -25714559.240 6 -18467639.665 6
  18750641.597   -26295516.354 7 -20296131.364 9
 94  2 17  4 54 59.9910000  0  8 20 24 16 12  5  9 13  4
  20890581.730    -3277407.171 5  -2458879.848 5
  17707745.409   -27461833.735 7 -21193696.094 8
  21972041.175     -233880.294 3        -0.01111
  18373794.706   -23616383.936 6 -17416327.507 7
  18291447.112   -21057231.065 7 -16326850.853 9
  19084708.667   -21732735.637 6 -16839258.962 7
  19584146.300   -25672908.215 6 -18435184.311 6
  18758056.894   -26256555.359 7 -20265772.141 9
 94  2 17  4 55 29.9910000  0  8 20 24 16 12  5  9 13  4
  20867614.769    -3398090.392 5  -2552918.691 5
  17702813.644   -27487753.297 7 -21213893.147 8
  21949752.909     -350948.579 2    -91222.027 1
  18374512.331   -23612632.255 6 -17413404.127 8
  18276295.651   -21136856.846 7 -16388896.912 9
  19092127.737   -21693757.811 6 -16808886.653 7
  19592080.925   -25631193.000 6 -18402678.949 6
  18765543.730   -26217204.830 7 -20235109.391 9
 94  2 17  4 55 59.9910000  0  8 20 24 16 12  5  9 13  4
  20844660.714    -3518705.200 4  -2646904.230 5
  17697981.683   -27513149.328 7 -21233682.263 8
  21927465.019     -468074.301 2   -182488.759 1
  18375341.206   -23608285.659 6 -17410017.170 8
  18261204.136   -21216165.323 7 -16450695.728 9
  19099625.667   -21654358.744 6 -16778186.094 7
  19600030.808   -25589410.894 6 -18370121.474 6
  18773109.480   -26177446.212 7 -20204128.657 9
 94  2 17  4 56 29.9910000  0  8 20 24 16 12  5  9 13  4
  20821729.472    -3639242.124 5  -2740829.084 5
  17693249.417   -27538017.122 7 -21253059.747 8
  21905167.308     -585245.326 1   -273790.774 1
  18376278.167   -23603337.832 6 -17406161.730 8
  18246176.401   -21295130.238 7 -16512226.824 9
  19107201.862   -21614551.494 6 -16747167.460 7
  19607994.362   -25547556.181 6 -18337507.421 6
  18780754.675   -26137270.429 7 -20172822.837 9
 94  2 17  4 56 59.9910000  0  7 20 24 12  5  9 13  4
  20798803.542    -3759706.846 4  -2834697.665 5
  17688612.894   -27562366.686 7 -21272033.437 8
  18377338.784   -23597796.593 6 -17401843.888 8
  18231213.878   -21373759.207 7 -16573496.152 9
  19114846.409   -21574353.065 6 -16715844.024 7
  19615974.956   -25505637.746 6 -18304843.686 5
  18788476.120   -26096703.463 7 -20141212.213 9
 94  2 17  4 57 29.9910000  0  8 20 24 16 12  5  9 13  4
  20775891.581    -3880099.340 4  -2928509.975 5
  17684084.151   -27586199.267 7 -21290604.280 8
  21860544.175          -0.47013
  18378496.605   -23591664.917 6 -17397065.958 8
  18216313.144   -21452064.347 7 -16634513.153 9
  19122571.909   -21533767.227 6 -16684218.707 7
  19623964.714   -25463658.739 6 -18272132.777 6
  18796265.042   -26055761.726 7 -20109309.571 9
 94  2 17  4 57 59.9910000  0  8 20 24 16 12  5  9 13  4
  20752992.495    -4000412.993 4  -3022260.838 4
  17679644.300   -27609507.589 7 -21308766.600 8
  21838210.597     -117360.325 4        -0.29111
  18379783.620   -23584938.785 6 -17391824.833 8
  18201477.706   -21530034.657 7 -16695269.245 9
  19130377.409   -21492787.986 6 -16652286.829 7
  19631964.050   -25421616.230 6 -18239372.385 6
  18804126.980   -26014446.880 7 -20077116.176 8
 94  2 17  4 58 29.9910000  0  8 20 24 16 12  5  9 13  4
  20730116.886    -4120652.874 5  -3115954.253 2
  17675307.370   -27632298.328 7 -21326525.615 8
  21815867.339     -234808.294 5    -91518.202 2
  18381174.409   -23577626.243 6 -17386126.755 7
  18186697.042   -21607694.223 7 -16755783.171 9
  19138247.464   -21451394.339 6 -16620032.052 7
  19639975.511   -25379518.730 6 -18206569.143 5
  18812054.081   -25972781.479 7 -20044649.632 9
 94  2 17  4 58 59.9910000  0  8 20 24 16 12  5  9 13  4
  20707251.050    -4240810.600 5  -3209583.635 3
  17671069.331   -27654566.510 7 -21343877.440 8
  21793500.261     -352328.963 3   -183092.757 2
  18382679.425   -23569721.424 6 -17379967.161 7
  18171979.464   -21685038.302 7 -16816051.281 9
  19146208.448   -21409558.699 6
  19648000.831   -25337361.244 6
  18820051.839   -25930756.754 7
 94  2 17  4 59 29.9910000  0  8 20 24 16 12  5  9 13  4
  20684401.339    -4360888.633 5  -3303150.934 3
  17666928.362   -27676327.611 7 -21360834.127 8
  21771112.620     -469912.079 2   -274715.913 1
  18384294.347   -23561229.822 6 -17373350.345 8
  18157319.894   -21762074.544 7 -16876079.528 9
  19154251.620   -21367282.067 6
  19656029.917   -25295149.723 6 -18140827.055 5
  18828116.323   -25888369.947 7
 94  2 17  4 59 59.9910000  0  8 20 24 16 12  5  9 13  4
  20661565.698    -4480879.359 5  -3396650.187 4
  17662885.323   -27697580.921 7 -21377395.142 8
  21748719.339     -587557.614 2   -366387.761 1
  18386021.120   -23552146.556 6 -17366272.486 8
  18142722.800   -21838791.019 7 -16935858.602 9
  19162380.175   -21324566.856 6
  19664070.026   -25252879.855 6 -18107889.501 5
  18836260.495   -25845605.685 7
 94  2 17  5  0 29.9910000  0  8 20 24 16 12  5  9 13  4
  20638747.190    -4600784.448 5  -3490082.721 4
  17658934.628   -27718334.316 7 -21393566.615 8
  21726333.183     -705258.634 3   -458102.816 2
  18387863.901   -23542476.124 6 -17358737.089 8
  18128182.503   -21915198.167 7 -16995396.640 9
  19170589.331   -21281434.739 6
  19672129.370   -25210556.582 6 -18074910.330 6
  18844465.511   -25802464.605 7 -19911935.193 6
 94  2 17  5  0 59.9910000  0  8 20 24 16 12  5  9 13  4
  20615946.292    -4720605.489 5  -3583449.770 5
  17655080.925   -27738587.549 7 -21409348.347 8
  21703921.698     -823005.801 3   -549853.832 1
  18389813.737   -23532223.047 6 -17350747.689 8
  18113700.815   -21991294.550 7 -17054692.507 9
  19178869.050   -21237923.417 6
  19680191.292   -25168184.957 6 -18041893.471 6
  18852745.214   -25758955.021 6
 94  2 17  5  1 59.9900000  0  8 20 24 16 12  5  9 13  4
  20570398.162    -4959962.887 5  -3769961.992 5
  17647678.826   -27777485.898 7 -21439658.736 8
  21659090.053    -1058653.061 3   -733475.051 2
  18394050.459   -23509953.280 6 -17333394.644 8
  18084929.670   -22142483.628 7 -17172502.188 9
  19195632.975   -21149835.461 6
  19696345.787   -25083283.314 6 -17975736.345 5
  18869509.420   -25670857.042 7
 94  2 17  5  2 29.9900000  0  8 20 24 16 12  5  9 13  4
  20547653.576    -5079501.596 5  -3863109.019 5
  17644136.287   -27796106.900 7 -21454168.597 8
  21636660.139    -1176556.949 4   -825348.180 1
  18396335.467   -23497940.598 6 -17324034.136 8
  18070643.936   -22217563.421 7 -17231005.912 9
  19204110.076   -21105269.684 6
  19704441.303   -25040756.994 6 -17942598.955 5
  18877992.037   -25626269.314 7
 94  2 17  5  2 59.9900000  0  8 20 24 16 12  5  9 13  4
  20524918.717    -5198948.345 5  -3956184.403 5
  17640696.365   -27814177.725 7 -21468249.755 8
  21614204.217    -1294517.378 4   -917265.381 1
  18398733.475   -23485349.467 6 -17314222.873 8
  18056421.826   -22292295.889 7 -17289239.005 9
  19212658.725   -21060353.030 6
  19712539.537   -24998188.032 6 -17909428.339 5
  18886547.592   -25581327.163 7
 94  2 17  5  3 29.9900000  0  8 20 24 16 12  5  9 13  4
  20502212.365    -5318292.175 5  -4049179.551 5
  17637364.975   -27831695.606 7 -21481900.047 8
  21591740.850    -1412535.512 3  -1009227.580 2
  18401240.014   -23472172.343 6 -17303954.991 8
  18042270.943   -22366666.417 7 -17347190.076 9
  19221278.123   -21015067.747 6
  19720649.936   -24955569.209 6 -17876218.869 5
  18895173.584   -25536012.157 6
 94  2 17  5  3 59.9900000  0  8 20 24 16 12  5  9 13  4
  20479521.272    -5437538.751 5  -4142098.926 6
  17634129.272   -27848690.817 7 -21495143.065 8
  21569273.795    -1530607.088 3  -1101231.407 1
  18403858.248   -23458417.741 6 -17293237.133 8
  18028184.514   -22440690.209 7 -17404870.937 9
  19229963.123   -20969404.683 6
  19728769.693   -24912909.234 6 -17842977.334 5
  18903866.248   -25490320.536 7
 94  2 17  5  4 29.9900000  0  8 20 24 16 12  5  9 13  4
  20456846.389    -5556680.754 5  -4234936.819 6
  17630993.178   -27865178.335 7 -21507990.482 8
  21546791.623    -1648711.926 2  -1193261.119 2
  18406587.061   -23444081.829 6 -17282066.299 7
  18014165.248   -22514354.246 7 -17462271.487 9
  19238729.147   -20923352.920 6
  19736891.912   -24870204.480 6 -17809700.892 6
  18912628.740   -25444270.315 7 -19632822.777 7
 94  2 17  5  4 59.9900000  0  8 20 24 16 12  5  9 13  4
  20434195.553    -5675718.518 5  -4327693.477 6
  17627949.303   -27881170.342 7 -21520451.784 8
  21524321.553    -1766862.669 3  -1285326.580 2
  18409422.686   -23429168.237 6 -17270445.330 8
  18000219.178   -22587653.167 7 -17519387.522 9
  19247563.779   -20876927.664 6
  19745030.740   -24827458.454 6 -17776392.315 5
  18921460.131   -25397868.698 7
 94  2 17  5  5 29.9900000  0  8 20 24 16 12  5  9 13  4
  20411563.592    -5794651.150 5  -4420368.232 6
  17624998.014   -27896677.427 7 -21532535.224 8
  21501828.865    -1885050.253 3  -1377420.787 2
  18412370.443   -23413679.113 6 -17258375.894 8
  17986340.998   -22660582.839 7 -17576215.841 9
  19256469.553   -20830122.211 6
  19753168.373   -24784673.680 6 -17743053.530 6
  18930350.748   -25351139.100 7
 94  2 17  5  5 59.9900000  0  8 20 24 16 12  5  9 13  4
  20388951.272    -5913476.364 5  -4512959.304 5
  17622136.631   -27911713.454 7 -21544251.599 8
  21479344.412    -2003250.137 4  -1469524.586 2
  18415430.115   -23397615.421 6 -17245858.741 8
  17972531.295   -22733146.490 7 -17632758.938 9
  19265449.068   -20782937.798 6
  19761320.209   -24741851.241 6 -17709685.396 5
  18939303.529   -25304094.051 7
 94  2 17  5  6 29.9900000  0  8 20 24 16 12  5  9 13  4
  20366360.139    -6032193.583 5  -4605466.206 5
  17619363.998   -27926280.027 7 -21555602.169 8
  21456844.568    -2121460.940 3  -1561636.884 2
  18418596.522   -23380980.120 6 -17232896.175 8
  17958788.756   -22805361.220 7 -17689030.165 9
  19274501.459   -20735376.650 6        -0.37617
  19769474.006   -24698994.009 6 -17676290.152 6
  18948312.522   -25256736.241 7 -19486692.319 8
 94  2 17  5  6 59.9900000  0  8 20 24 16 12  5  9 13  4
  20343789.826    -6150797.953 5  -4697885.179 5
  17616682.756   -27940368.214 7 -21566579.965 8
  21434349.139    -2239672.027 3  -1653749.474 2
  18421869.295   -23363771.104 6 -17219486.567 8
  17945112.272   -22877242.132 7 -17745041.253 9
  19283626.334   -20687429.287 6     37361.208 7
  19777634.803   -24656100.114 6 -17642866.349 6
  18957390.615   -25209046.367 7 -19449531.387 8
 94  2 17  5  7 29.9900000  0  8 20 24 16 12  5  9 13  4
  20321241.779    -6269290.475 5  -4790217.004 5
  17614094.967   -27953971.083 7 -21577179.605 8
  21411855.357    -2357870.083 3  -1745851.800 3
  18425251.100   -23345992.836 6 -17205633.380 7
  17931492.701   -22948799.500 7 -17800800.231 9
  19292818.967   -20639105.832 6     75015.835 7
  19785802.600   -24613173.879 6 -17609417.336 6
  18966527.037   -25161035.382 7 -19412120.219 8
 94  2 17  5  7 59.9900000  0  8 20 24 16 12  5  9 13  4
  20298717.834    -6387662.947 5
  17611601.936   -27967069.145 7 -21587385.883 8
  21389356.615    -2476048.161 2
  18428747.779   -23327640.979 6 -17191333.241 8
  17917937.553   -23020030.185 7 -17856304.661 9
  19302083.436   -20590422.917 6    112950.567 7
  19793980.818   -24570210.924 6 -17575939.711 6
  18975726.756   -25112679.653 7 -19374440.432 8
 94  2 17  5  8 29.9900000  0  8 20 24 16 12  5  9 13  4
  20276211.904    -6505919.953 5
  17609209.084   -27979649.086 7 -21597188.428 8
  21366870.881    -2594228.405 3
  18432347.389   -23308723.272 6 -17176592.180 7
  17904449.193   -23090928.495 7 -17911550.099 9
  19311412.803   -20541395.339 6    151153.848 7
  19802162.061   -24527218.942 6 -17542439.473 5
  18984992.373   -25063988.121 7 -19336498.985 8
 94  2 17  5  8 59.9900000  0  8 20 24 16 12  5  9 13  4
  20253733.967    -6624050.509 5
  17606916.068   -27991698.631 7 -21606577.678 8
  21344389.006    -2712410.387 3
  18436054.350   -23289232.243 6 -17161404.375 7
  17891025.834   -23161458.582 7 -17966508.600 9
  19320807.936   -20492034.002 6    189617.215 7
  19810349.061   -24484190.306 6 -17508910.662 5
  18994320.506   -25014969.180 7 -19298302.412 8
 94  2 17  5  9 29.9900000  0  8 20 24 16 12  5  9 13  4
  20231281.232    -6742059.477 5  -5158608.422 5
  17604721.693   -28003227.747 7 -21615561.403 8
  21321895.772    -2830612.786 3  -2114222.672 2
  18439868.568   -23269176.319 6 -17145776.396 8
  17877674.514   -23231618.992 7 -18021179.041 9
  19330262.818   -20442347.885 6    228333.662 7
  19818545.233   -24441133.439 6 -17475359.875 6
  19003709.006   -24965633.180 7 -19259858.777 8
 94  2 17  5  9 59.9900000  0  8 20 24 16 12  5  9 13  4
  20208845.318    -6859939.738 5  -5250463.161 5
  17602625.389   -28014248.433 7 -21624148.952 8
  21299396.225    -2948836.472 4  -2206344.995 4
  18443796.647   -23248551.999 6 -17129705.515 8
  17864394.826   -23301405.339 7 -18075558.019 9
  19339782.107   -20392317.653 6    267318.245 7
  19826743.623   -24398044.434 6 -17441784.019 6
  19013159.631   -24915965.455 7 -19221156.643 8
 94  2 17  5 10 29.9900000  0  8 20 24 16 12  5  9 13  4
  20186435.451    -6977700.339 5  -5342224.633 6
  17600617.443   -28024795.441 7 -21632367.390 8
  21276897.436    -3067086.498 4  -2298487.857 3
  18447825.334   -23227371.655 6 -17113201.354 8
  17851187.451   -23370815.104 7 -18129643.546 9
  19349369.428   -20341938.337 6    306574.834 7
  19834947.639   -24354935.456 6 -17408192.619 5
  19022676.045   -24865984.149 7 -19182210.180 8
 94  2 17  5 10 59.9900000  0  8 20 24 16 12  5  9 13  4
  20164052.686    -7095339.046 5  -5433891.137 6
  17598697.326   -28034889.480 7 -21640232.864 8
  21254388.537    -3185354.659 4  -2390644.864 4
  18451958.701   -23205636.879 6 -17096265.177 8
  17838051.709   -23439850.858 7 -18183437.642 9
  19359024.201   -20291211.187 6    346102.472 7
  19843154.928   -24311807.979 6 -17374586.801 5
  19032243.561   -24815687.337 7 -19143017.854 8
 94  2 17  5 11 29.9900000  0  8 20 24 16 12  5  9 13  4
  20141690.725    -7212841.523 5  -5525451.492 6
  17596864.943   -28044519.799 7 -21647737.012 8
  21231880.459    -3303607.857 3  -2482790.167 5
  18456208.061   -23183337.007 6 -17078888.671 8
  17824986.732   -23508499.873 7 -18236930.385 9
  19368745.701   -20240127.147 6    385908.210 7
  19851366.350   -24268650.878 6 -17340957.898 6
  19041874.990   -24765058.906 7 -19103567.139 8
 94  2 17  5 11 59.9900000  0  8 20 24 16 12  5  9 13  4
  20119356.779    -7330208.704 5  -5616906.416 6
  17595116.982   -28053693.145 7 -21654885.066 8
  21209391.795    -3421835.097 4  -2574915.269 4
  18460555.522   -23160476.687 6 -17061075.445 8
  17811997.998   -23576754.699 7 -18290115.950 9
  19378530.076   -20188704.165 6    425978.047 7
  19859583.217   -24225468.656 6 -17307309.428 5
  19051572.865   -24714111.071 7 -19063867.527 8
 94  2 17  5 12 29.9900000  0  8 20 24 16 12  5  9 13  4
  20097045.147    -7447438.291 5  -5708254.128 6
  17593464.443   -28062389.685 7 -21661661.594 8
  21186896.873    -3540024.714 4  -2667011.031 4
  18465012.037   -23137057.308 6 -17042826.585 8
  17799086.943   -23644604.485 7 -18342985.914 9
  19388374.686   -20136956.569 6    466300.836 7
  19867805.068   -24182262.205 6 -17273642.063 5
  19061326.834   -24662851.804 7 -19023925.238 8
 94  2 17  5 12 59.9900000  0  8 20 24 16 12  5  9 13  4
  20074768.811    -7564524.058 5  -5799489.785 6
  17591904.467   -28070576.432 7 -21668040.875 8
  21164417.357    -3658169.201 4  -2759071.642 3
  18469576.014   -23113076.238 6 -17024140.046 8
  17786250.725   -23712057.939 7 -18395547.057 9
  19398288.186   -20084895.384 6    506867.977 7
  19876036.568   -24139028.508 6 -17239953.464 6
  19071139.639   -24611280.885 7 -18983740.113 8
 94  2 17  5 13 29.9900000  0  8 20 24 16 12  5  9 13  4
  20052515.233    -7681466.863 5  -5890614.029 5
  17590449.193   -28078233.964 7 -21674007.771 8
  21141940.537    -3776272.293 4  -2851100.000 4
  18474241.772   -23088537.965 6 -17005019.336 7
  17773489.873   -23779117.835 7 -18447801.520 9
  19408244.865   -20032524.874 6    547676.147 6
  19884265.295   -24095771.754 6 -17206246.917 5
  19081014.428   -24559394.313 7 -18943309.013 8
 94  2 17  5 13 59.9900000  0  8 20 24 16 12  5  9 13  4
  20030291.725    -7798269.105 5  -5981628.743 5
  17589090.076   -28085367.091 7 -21679566.057 8
  21119475.639    -3894350.494 5  -2943108.960 4
  18479018.225   -23063449.209 6 -16985469.661 8
  17760800.576   -23845796.653 7 -18499759.035 9
  19418273.678   -19979837.769 6    588731.024 6
  19892500.365   -24052497.937 6 -17172527.052 6
  19090948.350   -24507193.201 7 -18902632.829 8
 94  2 17  5 14 29.9900000  0  8 20 24 16 12  5  9 13  4
  20008087.334    -7914922.531 5  -6072527.499 6
  17587837.232   -28091957.156 7 -21684701.170 8
  21097004.943    -4012414.862 5  -3035107.167 3
  18483899.178   -23037805.164 6 -16965487.307 8
  17748185.889   -23912095.350 7 -18551420.361 9
  19428364.873   -19926827.030 6    630038.077 6
  19900736.850   -24009202.087 6 -17138790.030 5
  19100938.733   -24454676.004 7 -18861710.344 8
 94  2 17  5 14 59.9900000  0  8 20 24 16 12  5  9 13  4
  19985920.404    -8031425.481 5  -6163309.015 5
  17586683.678   -28098021.245 7 -21689426.425 8
  21074545.529    -4130480.473 5  -3127106.343 2
  18488886.022   -23011607.843 6 -16945073.817 8
  17735638.061   -23978026.023 7 -18602794.911 9
  19438511.842   -19873496.303 6    671594.476 6
  19908979.943   -23965885.342 6 -17105036.730 6
  19110995.904   -24401845.915 7 -18820544.047 8
 94  2 17  5 15 29.9900000  0  8 20 24 16 12  5  9 13  4
  19963777.225    -8147775.849 5  -6253971.618 5
  17585623.193   -28103591.101 7 -21693766.578 8
  21052068.443    -4248555.429 5  -3219112.750 3
  18493974.553   -22984859.237 6 -16924230.758 8
  17723163.107   -24043580.755 7 -18653876.525 9
  19448725.740   -19819827.657 6    713414.189 6
  19917225.303   -23922549.035 6 -17071268.187 5
  19121105.092   -24348711.206 6 -18779140.384 8
 94  2 17  5 15 59.9900000  0  8 20 24 16 12  5  9 13  4
  19941663.115    -8263982.614 5  -6344522.330 5
  17584652.568   -28108698.346 7 -21697746.245 8
  21029600.357    -4366644.469 4  -3311130.185 2
  18499167.717   -22957572.118 6 -16902968.088 8
  17710758.834   -24108772.007 7 -18704674.893 9
  19458999.631   -19765842.210 6    755480.760 6
  19925474.108   -23879205.710 6 -17037494.167 5
  19131270.467   -24295294.977 6 -18737517.346 8
 94  2 17  5 16 29.9900000  0  8 20 24 16 12  5  9 13  4
  19919581.975    -8380033.663 5  -6434951.697 5
  17583769.818   -28113337.205 7 -21701360.939 8
  21007125.553    -4484727.026 3  -3403142.528 2
  18504462.428   -22929738.589 6 -16881279.633 8
  17698424.982   -24173583.835 7 -18755177.626 9
  19469331.561   -19711540.040 6    797794.120 6
  19933727.490   -23835846.561 6 -17003707.818 5
  19141489.139   -24241596.032 6 -18695674.019 8
 94  2 17  5 16 59.9900000  0  8 20 24 16 12  5  9 13  4
  19897525.209    -8495925.516 5  -6525257.021 5
  17582972.725   -28117527.245 7 -21704625.898 8
  20984660.943    -4602773.194 4  -3495126.549 2
  18509862.553   -22901359.079 6 -16859165.742 8
  17686168.334   -24237996.925 7 -18805369.653 9
  19479727.858   -19656918.779 6    840356.134 6
  19941979.506   -23792471.462 6 -16969909.048 5
  19151760.795   -24187616.042 6 -18653611.691 8
 94  2 17  5 17 29.9900000  0  8 20 24 16 12  5  9 13  4
  19875506.811    -8611654.320 6  -6615435.300 5
  17582258.084   -28121263.820 7 -21707537.512 8
  20962203.787    -4720758.749 3  -3587063.349 4
  18515369.029   -22872433.600 6 -16836626.418 8
  17673990.022   -24301994.680 7 -18855238.025 9
  19490178.490   -19601984.788 6    883161.819 6
  19950238.881   -23749079.685 6 -16936097.273 5
  19162085.295   -24133354.561 6 -18611330.020 8
 94  2 17  5 17 59.9900000  0  8 20 24 16 12  5  9 13  4
  19853514.326    -8727225.374 6  -6705490.656 5
  17581635.600   -28124538.844 7 -21710089.471 8
  20939775.928    -4838668.064 4  -3678940.666 4
  18520971.772   -22842971.558 6 -16813668.999 8
  17661890.365   -24365579.190 7 -18904784.403 9
  19500686.725   -19546772.265 6    926184.556 6
  19958499.873   -23705679.837 6 -16902279.225 5
  19172464.740   -24078820.234 6 -18568835.749 8
 94  2 17  5 18 29.9900000  0  8 20 24 16 12  5  9 13  4
  19831547.654    -8842638.563 6  -6795422.988 5
  17581102.561   -28127351.520 7 -21712281.171 8
  20917349.693    -4956502.447 4  -3770759.639 3
  18526679.561   -22812976.827 6 -16790296.501 8
  17649869.623   -24428745.076 7 -18954004.575 9
  19511246.147   -19491276.907 6    969427.681 6
  19966757.193   -23662275.088 6 -16868457.336 5
  19182890.490   -24024028.660 6 -18526141.017 8
 94  2 17  5 18 59.9900000  0  8 20 24 16 12  5  9 13  4
  19809619.193    -8957885.447 6  -6885225.754 5
  17580653.693   -28129698.892 7 -21714110.290 8
  20894945.154    -5074261.325 5  -3862519.810 3
  18532493.443   -22782445.149 6 -16766505.581 8
  17637931.154   -24491488.336 7 -19002895.426 9
  19521859.467   -19435500.279 6   1012889.970 6
  19975020.428   -23618860.589 6 -16834627.855 5
  19193368.725   -23968973.626 6 -18483240.994 8
 94  2 17  5 19 29.9900000  0  8 20 24 16 12  5  9 13  4
  19787721.943    -9072959.241 6  -6974893.652 5
  17580299.084   -28131574.074 7 -21715571.468 8
  20872544.209    -5191955.985 5  -3954229.893 3
  18538404.561   -22751374.091 6 -16742294.390 8
  17626067.639   -24553826.035 7 -19051470.254 9
  19532526.865   -19379451.994 6   1056563.958 6
  19983281.608   -23575432.725 6 -16800787.961 5
  19203895.428   -23913651.659 6 -18440132.977 8
 94  2 17  5 19 59.9900000  0  8 20 24 16 12  5  9 13  4
  19765858.326    -9187865.042 6  -7064430.658 5
  17580030.678   -28132983.294 7 -21716669.563 8
  20850158.311    -5309602.494 4  -4045902.447 5
  18544419.482   -22719772.623 6 -16717669.877 8
  17614283.248   -24615764.727 7 -19099734.187 8
  19543239.748   -19323137.414 6   1100445.435 6
  19991547.248   -23531999.694 6 -16766944.049 5
  19214471.108   -23858078.864 6 -18396829.499 8
 94  2 17  5 20 29.9900000  0  8 20 24 16 12  5  9 13  4
  19744022.240    -9302601.411 6  -7153835.625 6
  17579849.756   -28133932.505 7 -21717409.202 8
  20827777.115    -5427215.882 4  -4137549.251 5
  18550534.170   -22687643.436 6 -16692634.171 8
  17602569.732   -24677307.632 7 -19147689.699 9
  19554010.115   -19266553.158 6   1144537.053 6
  19999812.022   -23488563.227 6 -16733097.443 5
  19225092.850   -23802253.366 6 -18353329.108 8
 94  2 17  5 20 59.9900000  0  8 20 24 16 12  5  9 13  4
  19722226.264    -9417152.371 6  -7243096.109 6
  17579758.975   -28134407.659 7
  20805411.295    -5544774.718 5  -4229153.519 4
  18556748.811   -22654974.724 6 -16667178.025 8
  17590936.779   -24738435.906 7 -19195322.113 8
  19564832.178   -19209684.837 6   1188850.010 6
  20008083.443   -23445110.620 6 -16699238.271 5
  19235769.826   -23746147.597 6 -18309610.340 8
 94  2 17  5 21 29.9900000  0  8 20 24 16 12  5  9 13  4
  19700461.186    -9531529.685 5  -7332221.275 6
  17579757.467   -28134411.749 7
  20783050.912    -5662279.866 5  -4320715.929 3
  18563065.498   -22621782.593 6 -16641314.050 8
  17579383.170   -24799156.873 7 -19242637.154 8
  19575709.943   -19152541.658 6   1233377.151 6
  20016350.154   -23401656.952 6 -16665378.285 5
  19246496.451   -23689770.745 6 -18265680.329 7
 94  2 17  5 21 59.9900000  0  8 20 24 16 12  5  9 13  4
  19678725.600    -9645723.281 5  -7421203.283 6
  17579849.795   -28133930.515 7
  20760701.732    -5779703.992 5  -4412215.253 3
  18569483.147   -22588061.367 6 -16615037.781 8
  17567909.459   -24859449.406 7 -19289618.363 8
  19586635.459   -19095094.230 6   1278141.371 6
  20024619.889   -23358195.522 6 -16631512.256 5
  19257280.217   -23633106.855 6 -18221526.652 7
 94  2 17  5 22 29.9900000  0  8 20 24 16 12  5  9 13  4
  19657033.959    -9759733.168 5  -7510042.154 6
  17580033.912   -28132968.508 7 -21716658.031 8
  20738368.725    -5897047.413 5  -4503651.663 4
  18575999.522   -22553815.095 6 -16588352.376 8
  17556516.397   -24919326.632 7 -19336275.936 8
  19597627.529   -19037343.080 6   1323142.247 6
  20032891.131   -23314729.473 6 -16597642.599 5
  19268120.209   -23576148.594 6 -18177143.595 7
 94  2 17  5 22 59.9900000  0  8 20 24 16 12  5  9 13  4
  19635371.959    -9873558.538 6  -7598737.253 6
  17580305.233   -28131531.359 7 -21715538.174 8
  20716054.350    -6014301.850 3  -4595018.755 5
  18582616.717   -22519047.552 6 -16561260.806 8
  17545202.061   -24978789.703 7 -19382610.800 8
  19608674.529   -18979293.681 6   1368375.523 6
  20041162.647   -23271261.527 6 -16563771.480 5
  19279014.662   -23518905.361 6 -18132538.483 7
 94  2 17  5 23 29.9900000  0  8 20 24 16 12  5  9 13  4
  19613748.397    -9987204.996 6  -7687292.934 6
  17580668.576   -28129633.003 7 -21714058.934 8
  20693759.936    -6131470.825 4  -4686319.224 4
  18589327.389   -22483768.677 6 -16533770.789 8
  17533960.029   -25037848.272 7 -19428630.471 8
  19619769.795   -18920977.325 6   1413816.831 6
  20049434.920   -23227800.306 6 -16529905.593 5
  19289954.514   -23461403.814 7 -18087732.073 7
 94  2 17  5 23 59.9900000  0  8 20 24 16 12  5  9 13  4
  19592156.107   -10100660.235 6  -7775699.627 6
  17581114.709   -28127276.539 7 -21712222.718 8
  20671485.631    -6248548.988 5  -4777548.921 4
  18596140.295   -22447970.508 6 -16505876.124 8
  17522802.764   -25096486.256 7 -19474322.410 9
  19630917.475   -18862397.600 6   1459463.345 6
  20057708.787   -23184336.812 6 -16496037.950 5
  19300943.092   -23403649.939 6 -18042729.056 7
 94  2 17  5 24 29.9900000  0  8 20 24 16 12  5  9 13  4
  19570602.264   -10213919.447 6  -7863953.571 6
  17581648.795   -28124474.899 7 -21710039.628 8
  20649219.506    -6365544.365 4  -4868714.154 4
  18603052.561   -22411652.452 6 -16477576.351 8
  17511726.139   -25154692.125 7 -19519677.623 9
  19642107.295   -18803574.795 6   1505299.293 6
  20065976.397   -23140869.195 6 -16462167.069 5
  19311980.029   -23345667.457 7 -17997547.910 7
 94  2 17  5 24 59.9900000  0  8 20 24 16 12  5  9 13  4
  19549090.607   -10326983.235 6  -7952055.221 6
  17582263.615   -28121242.344 7 -21707520.743 8
  20626971.873    -6482453.293 5  -4959811.997 4
  18610062.506   -22374819.498 6 -16448875.360 8
  17500736.850   -25212456.917 7 -19564689.156 8
  19653349.459   -18744520.037 6   1551315.971 6
  20074252.365   -23097401.540 6 -16428296.182 5
  19323052.818   -23287470.091 6 -17952199.307 7
 94  2 17  5 25 29.9900000  0  8 20 24 16 12  5  9 13  4
  19527612.912   -10439847.578 6  -8040001.461 6
  17582961.233   -28117572.174 7 -21704660.883 9
  20604739.131    -6599273.532 5  -5050840.696 4
  18617169.154   -22337472.262 6 -16419773.632 7
  17489826.123   -25269774.189 7 -19609351.966 8
  19664634.514   -18685226.456 6   1597518.734 6
  20082519.858   -23053932.973 6 -16394424.580 5
  19334170.498   -23229050.969 6 -17906677.916 7
 94  2 17  5 25 59.9900000  0  8 20 24 16 12  5  9 13  4
  19506174.725   -10552515.577 6  -8127794.695 6
  17583744.147   -28113467.793 7 -21701462.663 9
  20582522.279    -6716019.303 4  -5141811.417 5
  18624369.850   -22299618.144 6 -16390276.929 8
  17479001.420   -25326652.727 7 -19653672.904 9
  19675965.600   -18625685.055 6   1643914.593 6
  20090786.209   -23010469.681 6 -16360557.068 5
  19345329.240   -23170403.153 6 -17860978.330 7
 94  2 17  5 26 29.9900000  0  8 20 24 16 12  5  9 13  4
  19484768.936   -10664982.121 6  -8215430.949 6
  17584607.748   -28108923.170 7 -21697921.404 8
  20560327.404    -6832689.527 5  -5232723.262 5
  18631671.608   -22261256.795 6 -16360384.982 8
  17468262.514   -25383096.771 7 -19697655.275 8
  19687338.779   -18565891.851 6   1690506.705 6
  20099058.592   -22967010.045 6 -16326692.432 5
  19356537.740   -23111514.932 6 -17815091.402 7
 94  2 17  5 26 59.9900000  0  8 20 24 16 12  5  9 13  4
  19463405.686   -10777248.442 6  -8302911.195 6
  17585559.522   -28103919.780 7 -21694022.654 8
  20538138.811    -6949279.266 5  -5323572.400 5
  18639068.084   -22222394.018 6 -16330102.311 7
  17457601.193   -25439112.522 7 -19741303.910 8
  19698771.850   -18505841.068 6   1737299.507 6
  20107329.928   -22923558.475 6 -16292834.064 5
  19367791.404   -23052362.799 6 -17768998.836 7
 94  2 17  5 27 29.9900000  0  8 20 24 16 12  5  9 13  4
  19442081.803   -10889307.001 6  -8390229.555 6
  17586605.006   -28098433.656 7 -21689747.751 8
  20515970.873    -7065772.473 5  -5414346.303 5
  18646561.350   -22183026.660 6 -16299426.460 8
  17447025.295   -25494695.130 7 -19784615.039 8
  19710242.561   -18445529.380 6   1784295.609 6
  20115596.209   -22880110.649 6 -16258978.634 5
  19379101.365   -22992938.938 6 -17722694.531 7
 94  2 17  5 27 59.9900000  0  8 20 24 16 12  5  9 13  4
  19420797.365   -11001158.235 6  -8477386.365 6
  17587736.803   -28092475.213 7 -21685104.809 8
  20493816.811    -7182164.410 5  -5505041.315 5
  18654143.451   -22143159.660 6 -16268361.284 7
  17436530.193   -25549849.677 7 -19827592.611 9
  19721770.295   -18384968.974 6   1831485.521 6
  20123866.256   -22836670.016 6 -16225128.783 5
  19390458.467   -22933255.818 6 -17676188.206 7
 94  2 17  5 28 29.9900000  0  8 20 24 16 12  5  9 13  4
  19399556.084   -11112787.887 6  -8564370.505 6
  17588962.475   -28086033.570 7 -21680085.348 8
  20471698.561    -7298426.599 5  -5595635.213 5
  18661827.326   -22102783.711 6 -16236899.517 7
  17426120.006   -25604563.815 7 -19870227.004 9
  19733341.584   -18324155.876 5   1878872.330 6
  20132131.326   -22793225.699 6 -16191276.093 5
  19401865.881   -22873314.303 6 -17629480.524 7
 94  2 17  5 28 59.9900000  0  8 20 24 16 12  5  9 13  4
  19378350.647   -11224206.995 6  -8651190.593 6
  17590278.209   -28079125.967 7 -21674702.796 9
  20449599.217    -7414554.648 5  -5686124.562 5
  18669604.865   -22061914.042 6 -16205053.030 7
  17415790.881   -25658846.221 7 -19912524.988 8
  19744956.006   -18263108.032 6   1926442.075 6
  20140395.498   -22749791.893 6 -16157431.569 5
  19413313.201   -22813138.660 6 -17582590.417 7
 94  2 17  5 29 29.9900000  0  8 20 24 16 12  5  9 13  4
  19357193.717   -11335415.459 6  -8737846.544 6
  17591676.061   -28071782.914 7 -21668980.933 9
  20427527.162    -7530551.126 5  -5776511.439 5
  18677475.951   -22020555.503 6 -16172825.615 7
  17405541.748   -25712692.394 7 -19954483.047 8
  19756619.631   -18201847.308 6   1974177.680 6
  20148658.670   -22706371.718 6 -16123597.661 5
  19424803.912   -22752757.862 6 -17535540.443 7
 94  2 17  5 29 59.9900000  0  8 20 24 16 12  5  9 13  4
  19336071.607   -11446405.518 6  -8824332.301 6
  17593152.225   -28064025.674 7 -21662936.331 9
  20405478.240    -7646421.185 5  -5866799.755 5
  18685439.865   -21978704.845 6 -16140214.723 7
  17395382.982   -25766087.266 7 -19996089.438 8
  19768314.357   -18140372.933 6   2022079.777 6
  20156917.842   -22662960.377 6 -16089770.620 5
  19436333.475   -22692181.468 6 -17488338.057 7
 94  2 17  5 30 29.9900000  0  8 20 24 16 12  5  9 13  4
  19314992.256   -11557176.263 6  -8910647.166 6
  17594704.123   -28055861.958 7 -21656574.992 9
  20383454.701    -7762164.575 5  -5956989.406 5
  18693495.545   -21936365.975 6 -16107223.411 7
  17385308.967   -25819019.284 7 -20037335.172 8
  19780052.139   -18078687.841 6   2070146.071 6
  20165180.850   -22619560.186 6 -16055952.315 5
  19447897.639   -22631409.980 6 -17440983.650 7
 94  2 17  5 30 59.9900000  0  8 20 24 16 12  5  9 13  4
  19293956.428   -11667720.935 6  -8996785.865 6
  17596335.568   -28047302.310 7 -21649905.140 9
  20361448.975    -7877780.698 5  -6047079.869 5
  18701644.865   -21893536.636 6 -16073849.897 7
  17375329.967   -25871471.195 7 -20078206.781 9
  19791835.545   -18016788.557 6   2118379.266 6
  20173436.498   -22576167.440 5 -16022139.788 5
  19459501.334   -22570429.966 6 -17393466.759 7
 94  2 17  5 31 29.9900000  0  8 20 24 16 12  5  9 13  4
  19272962.006   -11778042.657 6  -9082750.844 6
  17598036.326   -28038354.631 7 -21642932.933 9
  20339469.795    -7993281.150 5  -6137080.222 5
  18709889.490   -21850224.630 6
  17365436.123   -25923453.485 7 -20118712.469 8
  19803648.420   -17954682.774 6   2166773.357 6
  20181692.233   -22532788.353 6
  19471143.623   -22509243.307 6 -17345788.849 7
 94  2 17  5 31 59.9900000  0  8 20 24 16 12  5  9 13  4
  19252008.897   -11888138.177 6  -9168539.551 6
  17599816.881   -28028997.553 7 -21635641.692 9
  20317513.865    -8108660.903 5  -6226986.514 5
  18718224.451   -21806431.812 6 -16005976.038 7
  17355631.068   -25974980.966 7 -20158863.747 8
  19815511.186   -17892356.448 6   2215339.314 6
  20189940.998   -22489423.016 6 -15954546.751 5
  19482828.701   -22447837.740 6 -17297940.361 7
 94  2 17  5 32 29.9900000  0  8 20 24 16 12  5  9 13  4
  19231102.670   -11998006.956 6  -9254151.591 6
  17601680.264   -28019212.382 7 -21628016.883 9
  20295584.217    -8223914.763 5  -6316794.730 5
  18726642.381   -21762162.545 6 -15971480.530 7
  17345907.943   -26026071.622 7 -20198674.654 9
  19827412.647   -17829810.307 6   2264076.546 6
  20198190.748   -22446074.263 5 -15920768.504 5
  19494560.428   -22386203.699 6 -17249913.836 7
 94  2 17  5 32 59.9900000  0  8 20 24 16 12  5  9 13  4
  19210241.928   -12107641.282 6  -9339580.941 6
  17603626.123   -28008985.576 7 -21620047.946 9
  20273673.545    -8339040.552 5  -6406503.093 5
  18735163.951   -21717413.894 6 -15936611.467 7
  17336268.482   -26076729.462 7 -20238148.307 9
  19839355.561   -17767043.977 6   2312985.359 6
  20206435.350   -22402737.593 5 -15886999.660 5
  19506330.772   -22324343.261 6 -17201710.904 7
 94  2 17  5 33 29.9900000  0  8 20 24 16 12  5  9 13  4
  19189423.850   -12217036.144 6  -9424823.689 6
  17605661.248   -27998296.028 7 -21611718.416 9
  20251795.482    -8454034.748 5  -6496108.939 5
  18743767.389   -21672185.230 6 -15901368.362 7
  17326709.217   -26126955.917 7 -20277285.788 8
  19851346.014   -17704049.903 6   2362071.646 6
  20214680.959   -22359410.626 6 -15853238.399 5
  19518145.592   -22262270.596 6 -17153342.601 7
 94  2 17  5 34 29.9890000  0  8 20 24 16 12  5  9 13  4
  19147925.970   -12435115.083 6  -9594755.329 6
  17609978.704   -27975601.884 7 -21594034.675 9
  20208100.196    -8683639.590 5  -6675021.818 5
  18761250.329   -21580319.987 6 -15829785.080 7
  17307849.079   -26226076.466 7 -20354522.600 8
  19875446.735   -17577386.909 6   2460770.041 6
  20231158.821   -22272810.519 5 -15785757.813 5
  19541875.126   -22137536.121 6 -17056146.911 7
 94  2 17  5 34 59.9890000  0  8 20 24 16 12  5  9 13  4
  19127242.751   -12543793.845 6  -9679440.080 6
  17612254.868   -27963635.704 7 -21584710.379 9
  20186290.618    -8798241.455 5  -6764321.940 5
  18770125.571   -21533682.864 6 -15793444.477 7
  17298552.751   -26274929.799 7 -20392590.137 9
  19887559.892   -17513731.771 6   2510371.432 6
  20239396.517   -22229533.603 6 -15752035.537 5
  19553802.173   -22074878.829 6 -17007323.049 7
 94  2 17  5 35 29.9890000  0  8 20 24 16 12  5  9 13  4
  19106610.650   -12652230.422 6  -9763936.105 6
  17614608.790   -27951268.760 7 -21575073.809 9
  20164509.321    -8912694.733 5  -6853506.294 5
  18779085.173   -21486582.777 6 -15756743.133 7
  17289347.704   -26323300.720 7 -20430281.761 9
  19899711.478   -17449875.634 6   2560129.434 6
  20247629.985   -22186276.282 6 -15718328.545 5
  19565763.478   -22012025.809 6 -16958346.686 7
 94  2 17  5 35 59.9890000  0  8 20 24 16 12  5  9 13  4
  19086023.079   -12760410.649 6  -9848232.388 6
  17617036.689   -27938504.541 7 -21565127.661 9
  20142766.306    -9026978.489 5  -6942558.558 5
  18788142.884   -21439010.377 6 -15719673.749 7
  17280238.532   -26371176.519 7 -20467587.587 8
  19911901.118   -17385832.417 6   2610033.239 6
  20255859.907   -22143027.229 6 -15684627.998 5
  19577764.009   -21948959.982 6 -16909204.488 7
 94  2 17  5 36 29.9890000  0  8 20 24 16 12  5  9 13  4
  19065482.618   -12868344.865 6  -9932336.977 6
  17619540.985   -27925351.591 7 -21554878.615 9
  20121047.798    -9141095.806 5  -7031481.116 5
  18797277.525   -21390981.119 6 -15682248.366 7
  17271218.407   -26418566.419 7 -20504514.791 8
  19924114.376   -17321640.572 6   2660052.829 5
  20264084.868   -22099800.289 6 -15650944.654 5
  19589803.696   -21885695.404 6 -16859907.431 7
 94  2 17  5 36 59.9890000  0  8 20 24 16 12  5  9 13  4
  19044992.993   -12976024.447 6 -10016243.146 6
  17622121.399   -27911791.736 7 -21544312.490 9
  20099364.649    -9255047.251 5  -7120274.431 5
  18806506.353   -21342491.246 6 -15644464.074 7
  17262294.681   -26465466.419 7 -20541060.253 9
  19936358.665   -17257295.068 5   2710192.170 5
  20272307.064   -22056589.653 5 -15617274.035 5
  19601878.478   -21822234.744 6 -16810457.560 6
 94  2 17  5 37 29.9890000  0  8 20 24 16 12  5  9 13  4
  19024551.931   -13083456.000 6 -10099956.021 6
  17624777.751   -27897832.284 7 -21533434.997 9
  20077707.845    -9368841.216 5  -7208945.047 5
  18815820.306   -21293552.446 6 -15606329.951 7
  17253458.196   -26511902.739 7 -20577244.393 9
  19948629.782   -17192802.299 5   2760446.246 5
  20280525.462   -22013404.817 5 -15583623.520 5
  19613990.689   -21758591.136 6 -16760865.140 7
 94  2 17  5 37 59.9890000  0  8 20 24 16 12  5  9 13  4
  19004156.876   -13190626.538 6 -10183465.525 6
  17627510.142   -27883473.256 7 -21522246.145 9
  20056088.556    -9482470.753 5  -7297487.526 5
  18825220.189   -21244156.624 6 -15567839.728 7
  17244712.329   -26557867.276 7 -20613060.920 8
  19960935.626   -17128135.047 5   2810836.302 6
  20288738.642   -21970236.283 5 -15549985.689 5
  19626134.392   -21694765.036 6 -16711130.557 7
 94  2 17  5 38 29.9890000  0  8 20 24 16 12  5  9 13  4
  18983809.939   -13297542.471 6 -10266776.642 6
  17630319.806   -27868711.909 7 -21510743.791 9
  20034494.306    -9595941.280 5  -7385906.098 5
  18834701.587   -21194315.085 6 -15529002.174 7
  17236053.595   -26603374.885 7 -20648521.406 8
  19973274.806   -17063284.998 5   2861368.803 6
  20296950.821   -21927093.205 6 -15516367.716 5
  19638315.071   -21630770.500 6 -16661264.669 6
 94  2 17  5 38 59.9890000  0  8 20 24 16 12  5  9 13  4
  18963515.220   -13404200.008 6 -10349886.428 6
  17633206.814   -27853541.765 7 -21498922.910 9
  20012932.618    -9709244.609 5  -7474194.408 5
  18844273.728   -21144029.396 6 -15489818.535 7
  17227477.970   -26648435.278 7 -20683633.399 8
  19985655.329   -16998233.283 5   2912058.431 5
  20305151.704   -21883975.075 5 -15482769.153 5
  19650521.149   -21566607.108 6 -16611267.228 6
 94  2 17  5 39 29.9890000  0  8 20 24 16 12  5  9 13  4
  18943267.704   -13510594.645 6 -10432791.354 6
  17636171.423   -27837955.216 7 -21486777.562 9
  19991410.126    -9822353.337 5  -7562331.051 5
  18853927.649   -21093299.777 6 -15450288.974 7
  17218989.985   -26693036.466 7 -20718387.574 9
  19998072.970   -16932979.327 5   2962905.648 5
  20313355.353   -21840880.102 6 -15449188.664 5
  19662764.939   -21502272.484 6 -16561136.357 7
 94  2 17  5 39 59.9890000  0  8 20 24 16 12  5  9 13  4
  18923071.329   -13616718.107 6 -10515484.949 7
  17639219.337   -27821933.528 7 -21474293.123 9
  19969926.087    -9935254.649 5  -7650306.102 5
  18863666.915   -21042123.340 6 -15410411.262 7
  17210592.939   -26737158.933 7 -20752768.711 9
  20010529.892   -16867532.542 5   3013903.136 5
  20321552.071   -21797803.409 5 -15415622.426 5
  19675038.353   -21437767.876 6 -16510873.032 6
 94  2 17  5 40 29.9890000  0  8 20 24 16 12  5  9 13  4
  18902932.196   -13722567.763 6 -10597965.180 7
  17642353.821   -27805471.257 7 -21461465.380 9
  19948481.728   -10047954.404 5  -7738124.050 5
  18873489.728   -20990502.322 6 -15370187.101 7
  17202289.165   -26780792.824 7 -20786769.154 8
  20023011.962   -16801921.792 5   3065028.379 6
  20329748.064   -21754744.932 6 -15382070.372 5
  19687346.329   -21373098.484 6 -16460481.295 6
 94  2 17  5 40 59.9890000  0  8 20 24 16 12  5  9 13  4
  18882841.751   -13828136.648 6 -10680226.641 7
  17645568.790   -27788572.122 7 -21448297.223 9
  19927076.196   -10160444.103 5  -7825778.361 5
  18883394.907   -20938434.845 6 -15329615.054 7
  17194082.704   -26823926.568 7 -20820379.868 8
  20035530.806   -16736157.763 5   3116273.058 5
  20337937.103   -21711701.011 5 -15348529.663 5
  19699686.814   -21308254.749 6 -16409953.716 7
 94  2 17  5 41 29.9890000  0  8 20 24 16 12  5  9 13  4
  18862806.728   -13933427.591 6 -10762271.531 7
  17648866.360   -27771248.219 7 -21434798.081 9
  19905704.751   -10272733.924 5  -7913276.914 5
  18893387.790   -20885928.986 6 -15288701.408 7
  17185969.860   -26866560.638 7 -20853601.234 8
  20048064.689   -16670267.095 5   3167616.412 5
  20346124.696   -21668677.346 6 -15315004.727 4
  19712055.860   -21243246.251 6 -16359297.731 6
 94  2 17  5 41 59.9890000  0  8 20 24 16 12  5  9 13  4
  18842823.173   -14038434.608 6 -10844095.173 6
  17652238.103   -27753519.933 7 -21420983.836 9
  19884369.829   -10384841.167 5  -8000633.189 5
  18903462.110   -20832983.836 6 -15247445.470 7
  17177947.642   -26908706.817 7 -20886442.410 8
  20060626.431   -16604244.536 5   3219062.560 5
  20354308.087   -21625670.969 5 -15281493.270 5
  19724461.056   -21178065.875 6 -16308507.837 7
 94  2 17  5 42 29.9890000  0  8 20 24 16 12  5  9 13  4
  18822892.985   -14143164.544 6 -10925702.914 7
  17655684.275   -27735419.408 7 -21406879.527 9
  19863074.118   -10496767.814 5  -8087848.751 5
  18913619.759   -20779611.597 6 -15205856.721 7
  17170016.493   -26950389.316 7 -20918922.283 8
  20073213.845   -16538091.421 5   3270610.416 5
  20362490.657   -21582691.820 6 -15248003.023 5
  19736898.126   -21112705.925 6 -16257578.013 6
 94  2 17  5 42 59.9890000  0  8 20 24 16 12  5  9 13  4
  18803018.142   -14247611.798 6 -11007090.383 7
  17659196.735   -27716954.258 7 -21392491.096 9
  19841809.079   -10608503.081 5  -8174915.188 5
  18923858.532   -20725811.883 6 -15163934.875 7
  17162173.149   -26991602.633 7 -20951036.545 8
  20085834.329   -16471789.855 5   3322273.964 6
  20370660.532   -21539737.320 5 -15214532.011 5
  19749371.579   -21047152.777 6 -16206497.646 6
 94  2 17  5 43 29.9890000  0  8 20 24 16 12  5  9 13  4
  18783198.196   -14351772.300 6 -11088254.399 7
  17662776.806   -27698141.641 7 -21377831.918 9
  19820584.024   -10720054.240 5  -8261838.154 5
  18934176.017   -20671585.530 6 -15121680.598 7
  17154422.689   -27032333.108 7 -20982774.588 8
  20098479.306   -16405328.422 5   3374062.049 5
  20378829.384   -21496806.318 5 -15181079.280 5
  19761881.251   -20981414.320 6 -16155272.852 6
 94  2 17  5 43 59.9890000  0  8 20 24 16 12  5  9 13  4
  18763430.478   -14455641.557 6 -11169191.473 7
  17666424.110   -27678986.621 7 -21362905.922 9
  19799388.087   -10831424.271 5  -8348619.980 5
  18944576.790   -20616933.521 6 -15079094.624 7
  17146765.821   -27072573.188 7 -21014130.496 8
  20111159.423   -16338693.149 5   3425985.626 5
  20386996.212   -21453897.146 5 -15147643.576 4
  19774420.493   -20915496.177 6 -16103908.087 6
 94  2 17  5 44 29.9890000  0  8 20 24 16 12  5  9 13  4
  18743722.142   -14559215.692 6 -11249898.591 7
  17670135.642   -27659475.885 7 -21347702.771 9
  19778233.204   -10942599.278 5  -8435249.848 6
  18955056.915   -20561857.141 6 -15036177.982 7
  17139207.899   -27112302.616 7 -21045088.500 8
  20123873.204   -16271898.887 5   3478033.061 5
  20395155.478   -21411009.109 5 -15114224.311 5
  19786999.181   -20849411.021 6 -16052413.156 6
 94  2 17  5 44 59.9890000  0  8 20 24 16 12  5  9 13  4
  18724070.587   -14662488.864 6 -11330371.199 7
  17673918.954   -27639596.803 7 -21332212.585 9
  19757118.501   -11053578.863 5  -8521727.427 5
  18965619.954   -20506355.731 6 -14992930.147 7
  17131746.446   -27151496.192 7 -21075628.950 8
  20136616.493   -16204947.004 5   3530203.362 5
  20403314.493   -21368139.185 5 -15080819.194 4
  19799603.517   -20783179.595 6 -16000804.235 6
 94  2 17  5 45 29.9890000  0  8 20 24 16 12  5  9 13  4
  18704475.189   -14765466.602 6 -11410613.581 7
  17677772.142   -27619347.657 7 -21316434.033 9
  19736035.564   -11164363.903 5  -8608053.424 5
  18976258.087   -20450440.123 6 -14949359.562 7
  17124387.337   -27190175.896 7 -21105768.978 8
  20149386.595   -16137858.056 5   3582480.441 5
  20411468.728   -21325295.828 5 -15047434.785 4
  19812230.587   -20716825.269 6 -15949099.569 6
 94  2 17  5 45 59.9890000  0  8 20 24 16 12  5  9 13  4
  18684935.993   -14868145.226 6 -11490622.891 7
  17681696.626   -27598710.477 7 -21300353.113 9
  19714991.939   -11274925.937 5  -8694205.650 6
  18986977.462   -20394111.664 6 -14905467.258 7
  17117121.845   -27228356.496 7 -21135520.091 8
  20162172.415   -16070648.526 5   3634851.474 6
  20419609.814   -21282478.072 5 -15014070.282 3
  19824881.985   -20650341.610 6 -15897294.117 6
 94  2 17  5 46 29.9890000  0  8 20 24 16 12  5  9 13  4
  18665452.017   -14970526.781 6 -11570400.718 7
  17685699.134   -27577687.407 7 -21283971.494 9
  19694000.939   -11385244.128 5  -8780167.857 5
  18997774.900   -20337377.912 6 -14861259.162 7
  17109948.556   -27266047.938 7 -21164890.057 8
  20174978.962   -16003332.735 5   3687305.333 6
  20427755.548   -21239691.232 5 -14980729.914 5
  19837558.032   -20583722.014 6 -15845382.749 6
 94  2 17  5 46 59.9890000  0  8 20 24 16 12  5  9 13  4
  18646025.056   -15072605.990 6 -11649942.962 7
  17689773.689   -27556278.115 7 -21267288.937 9
  19673055.540   -11495312.545 5  -8865935.424 6
  19008647.103   -20280239.002 6 -14816735.353 7
  17102868.603   -27303253.212 7 -21193881.178 8
  20187812.329   -15935894.012 5   3739854.976 5
  20435891.696   -21196932.703 5 -14947411.592 4
  19850265.040   -20516959.894 6 -15793360.326 6
 94  2 17  5 47 29.9890000  0  8 20 24 16 12  5  9 13  4
  18626660.556   -15174378.360 6 -11729246.120 7
  17693921.142   -27534484.983 7 -21250307.272 9
  19652162.095   -11605112.021 5  -8951493.474 5
  19019597.564   -20222695.531 6 -14771896.303 7
  17095881.165   -27339979.662 7 -21222499.198 8
  20200671.212   -15868328.809 5   3792503.143 6
  20444024.212   -21154201.082 5 -14914114.210 3
  19862996.212   -20450044.603 6 -15741218.527 6
 94  2 17  5 47 59.9890000  0  8 20 24 16 12  5  9 13  4
  18607350.603   -15275842.167 6 -11808308.826 7
  17698140.876   -27512312.042 7 -21233029.663 9
  19631319.509   -11714638.803 5  -9036838.994 6
  19030622.704   -20164750.858 6 -14726744.617 7
  17088985.899   -27376211.112 7 -21250731.495 8
  20213546.079   -15800640.580 5   3845247.209 5
  20452151.048   -21111497.372 5 -14880838.596 2
  19875759.837   -20382970.398 6 -15688952.906 6
 94  2 17  5 48 29.9890000  0  8 20 24 16 12  5  9 13  4
  18588103.954   -15376993.295 6 -11887127.891 7
  17702432.040   -27489756.774 7 -21215454.131 9
  19610523.767   -11823912.395 5  -9121987.228 6
  19041728.900   -20106406.532 6 -14681281.531 7
  17082189.735   -27411925.153 7 -21278560.622 8
  20226452.954   -15732825.859 5   3898089.832 5
  20460271.923   -21068820.099 5 -14847583.583 4
  19888553.368   -20315740.228 6 -15636565.759 6
 94  2 17  5 48 59.9890000  0  8 20 24 16 12  5  9 13  4
  18568916.220   -15477827.519 6 -11965700.017 7
  17706795.376   -27466821.446 7 -21197582.450 9
  19589777.126   -11932944.098 5  -9206946.985 6
  19052905.595   -20047663.587 6 -14635507.822 7
  17075496.056   -27447104.747 7 -21305973.295 8
  20239381.806   -15664887.278 5   3951028.967 6
  20468388.845   -21026168.309 5 -14814348.434 3
  19901375.439   -20248358.002 6 -15584060.127 6
 94  2 17  5 49 29.9890000  0  8 20 24 16 12  5  9 13  4
  18549788.290   -15578346.290 7 -12044026.344 7
  17711232.243   -27443517.397 7 -21179423.458 9
  19569074.040   -12041740.879 5  -9291723.683 6
  19064156.532   -19988528.939 6 -14589428.884 7
  17068901.548   -27481757.203 7 -21332975.216 8
  20252328.751   -15596849.970 5   4004045.018 5
  20476498.814   -20983546.053 5 -14781136.307 3
  19914227.985   -20180827.028 6 -15531438.595 6
 94  2 17  5 49 59.9890000  0  8 20 24 16 12  5  9 13  4
  18530721.306   -15678544.195 6 -12122102.642 7
  17715736.439   -27419846.374 7 -21160978.509 9
  19548409.259   -12150321.183 5  -9376331.688 6
  19075486.587   -19929002.291 6 -14543044.500 7
  17062408.860   -27515879.852 7 -21359564.292 8
  20265294.485   -15528720.516 5   4057132.882 5
  20484612.181   -20940950.901 5 -14747945.313 3
  19927107.907   -20113155.376 6 -15478707.429 6
 94  2 17  5 50 29.9890000  0  8 20 24 16 12  5  9 13  4
  18511716.564   -15778418.248 6 -12199926.590 7
  17720306.571   -27395819.995 7 -21142256.662 9
  19527793.634   -12258689.834 6  -9460774.776 6
  19086885.400   -19869086.249 6 -14496356.675 6
  17056013.306   -27549482.688 7 -21385748.335 8
  20278279.243   -15460487.944 5   4110301.119 6
  20492702.829   -20898382.778 5 -14714775.327 3
  19940005.275   -20045361.203 6 -15425880.797 6
 94  2 17  5 50 59.9890000  0  8 20 24 16 12  5  9 13  4
  18492770.845   -15877978.032 6 -12277505.647 7
  17724941.782   -27371471.341 7 -21123283.681 9
  19507208.337   -12366840.712 5  -9545048.178 6
  19098362.032   -19808795.596 6 -14449376.969 6
  17049711.876   -27582597.961 7 -21411552.436 8
  20291281.501   -15392159.879 5   4163543.734 5
  20500799.103   -20855853.774 5 -14681635.837 2
  19952924.525   -19977466.086 6 -15372975.510 6
 94  2 17  5 51 29.9890000  0  8 20 24 16 12  5  9 13  4
  18473884.642   -15977212.367 6 -12354831.113 7
  17729639.735   -27346788.131 7 -21104050.011 9
  19486674.485   -12474763.473 6  -9629143.810 6
  19109907.189   -19748124.678 6 -14402100.945 6
  17043502.798   -27615227.843 7 -21436978.327 8
  20304304.540   -15323726.107 5   4216868.751 5
  20508889.056   -20813355.660 5 -14648520.463 4
  19965859.321   -19909480.681 5 -15319999.863 6
 94  2 17  5 51 59.9890000  0  8 20 24 16 12  5  9 13  4
  18455064.454   -16076116.049 6 -12431898.924 7
  17734398.103   -27321770.786 7 -21084555.978 9
  19466178.728   -12582445.033 5  -9713051.508 6
  19121522.157   -19687073.816 6 -14354528.860 6
  17037386.173   -27647364.753 7 -21462020.080 8
  20317349.962   -15255180.456 5   4270280.916 5
  20516970.056   -20770886.122 5 -14615427.350 3
  19978817.032   -19841406.664 5 -15266955.192 6
 94  2 17  5 52 29.9890000  0  8 20 24 16 12  5  9 13  4
  18436307.626   -16174683.001 6 -12508704.362 7
  17739223.376   -27296419.437 7 -21064801.678 9
  19445742.446   -12689862.213 6  -9796753.194 6
  19133214.110   -19625642.185 6 -14306660.081 6
  17031367.415   -27678996.797 7 -21486668.435 8
  20330415.923   -15186520.487 5   4323782.190 5
  20525043.892   -20728441.957 5 -14582353.928 3
  19991789.884   -19773225.729 6 -15213827.192 6
 94  2 17  5 52 59.9890000  0  8 20 24 16 12  5  9 13  4
  18417616.329   -16272918.404 6 -12585251.427 7
  17744108.103   -27270732.425 7 -21044785.829 9
  19425345.603   -12797014.844 5  -9880248.751 6
  19144975.282   -19563840.451 6 -14258502.896 6
  17025446.267   -27710118.007 7 -21510918.740 8
  20343494.478   -15117773.189 5   4377351.489 5
  20533118.009   -20686030.943 5 -14549306.396 1
  20004789.024   -19704923.795 6 -15160604.895 6
 94  2 17  5 53 29.9890000  0  8 20 24 16 12  5  9 13  4
  18398986.118   -16370814.729 6 -12661534.283 8
  17749066.509   -27244692.839 7 -21024495.242 9
  19405012.040   -12903896.034 6  -9963532.766 6
  19156804.048   -19501666.402 6 -14210055.603 6
  17019623.876   -27740708.804 7 -21534755.728 8
  20356598.696   -15048942.463 5   4430985.791 5
  20541180.024   -20643648.489 5 -14516281.139 3
  20017813.798   -19636486.015 6 -15107276.766 6
 94  2 17  5 53 59.9890000  0  8 20 24 16 12  5  9 13  4
  18380420.360   -16468377.582 6 -12737557.286 7
  17754088.931   -27218303.298 7 -21003931.966 9
  19384723.407   -13010503.807 5 -10046603.737 6
  19168705.095   -19439131.389 6 -14161327.039 6
  17013904.392   -27770770.477 7 -21558180.424 8
  20369707.204   -14980046.776 5   4484670.724 5
  20549234.196   -20601303.142 5 -14483284.800 2
  20030862.337   -19567902.911 6 -15053835.379 6
 94  2 17  5 54 29.9890000  0  8 20 24 16 12  5  9 13  4
  18361919.337   -16565605.710 7 -12813319.479 7
  17759177.368   -27191555.544 7 -20983089.575 9
  19364488.235   -13116841.877 6 -10129464.564 6
  19180672.017   -19376239.667 6 -14112320.517 6
  17008281.899   -27800307.271 7 -21581196.103 8
  20382826.626   -14911082.043 5   4538409.463 5
  20557288.985   -20558996.439 5 -14450318.538 2
  20043941.806   -19499178.135 6 -15000283.603 6
 94  2 17  5 54 59.9890000  0  8 20 24 16 12  5  9 13  4
  18343482.915   -16662485.414 6 -12888810.166 7
  17764338.431   -27164436.366 7 -20961957.738 9
  19344307.392   -13222902.159 6 -10212108.918 6
  19192712.423   -19312982.546 6 -14063029.254 6
  17002762.876   -27829314.432 7 -21603799.096 8
  20395966.829   -14842037.581 5
  20565334.064   -20516716.946 5 -14417373.472 3
  20057045.517   -19430312.515 6
 94  2 17  5 55 29.9890000  0  8 20 24 16 12  5  9 13  4
  18325112.556   -16759012.999 6 -12964026.477 7
  17769570.314   -27136946.836 7 -20940537.326 9
  19324178.548   -13328679.321 6 -10294532.654 6
  19204814.321   -19249362.004 6 -14013454.830 7
  16997340.626   -27857802.388 7 -21625997.509 8
  20409122.767   -14772908.830 5
  20573377.509   -20474463.654 5 -14384448.841 3
  20070173.673   -19361327.629 6
 94  2 17  5 55 59.9890000  0  8 20 24 16 12  5  9 13  4
  18306814.399   -16855186.044 6 -13038966.523 7
  17774870.337   -27109096.705 7 -20918835.925 9
  19304102.157   -13434176.946 5 -10376738.586 6
  19216993.759   -19185380.989 6 -13963599.505 6
  16992019.540   -27885776.971 7 -21647795.902 8
  20422288.884   -14703697.456 5
  20581406.806   -20432237.089 5 -14351545.059 3
  20083324.642   -19292235.053 6
 94  2 17  5 56 29.9890000  0  8 20 24 16 12  5  9 13  4
  18288578.282   -16951006.344 6 -13113631.700 7
  17780232.048   -27080915.626 7 -20896876.648 9
  19284078.540   -13539395.738 6 -10458727.250 6
  19229234.298   -19121046.909 6 -13913469.072 6
  16986792.931   -27913238.253 7 -21669194.311 8
  20435476.189   -14634405.056 5
  20589439.353   -20390041.799 5 -14318665.641 4
  20096485.204   -19223048.861 5
 94  2 17  5 56 59.9890000  0  8 20 24 16 12  5  9 13  4
  18270411.532   -17046473.670 6 -13188021.816 7
  17785654.056   -27052420.521 7 -20874672.657 9
  19264108.821   -13644327.118 6 -10540491.931 6
  19241540.579   -19056364.951 6 -13863067.547 6
  16981664.642   -27940184.629 7 -21690191.482 8
  20448676.626   -14565048.541 5
  20597466.290   -20347880.249 5 -14285812.476 2
  20109669.681   -19153781.564 6
 94  2 17  5 57 29.9890000  0  8 20 24 16 12  5  9 13  4
  18252314.485   -17141587.636 6 -13262136.601 7
  17791138.720   -27023608.745 7 -20852221.935 9
  19244198.712   -13748967.812 6 -10622030.129 6
  19253916.689   -18991340.297 6 -13812399.004 7
  16976635.962   -27966617.076 7 -21710788.203 8
  20461888.220   -14495634.649 5
  20605482.462   -20305754.628 5 -14252987.270 1
  20122861.220   -19084441.950 6
 94  2 17  5 57 59.9890000  0  8 20 24 16 12  5  9 13  4
  18234281.696   -17236340.398 6 -13335969.927 7
  17796678.860   -26994486.212 7 -20829529.064 9
  19224345.978   -13853304.139 6 -10703331.157 6
  19266359.025   -18925970.501 6 -13761461.517 6
  16971706.431   -27992515.595 7 -21730968.874 7
  20475107.470   -14426150.982 5
  20613490.884   -20263659.784 5 -14220186.121 4
  20136072.282   -19015021.573 6
 94  2 17  5 58 29.9890000  0  8 20 24 16 12  5  9 13  4
  18216320.587   -17330729.608 6 -13409519.971 7
  17802279.884   -26965056.923 7 -20806597.145 9
  19204548.876   -13957328.972 6 -10784389.442 6
  19278858.384   -18860258.848 6 -13710257.658 6
  16966879.431   -28017886.528 7 -21750738.442 7
  20488346.368   -14356606.532 5
  20621496.282   -20221596.073 5 -14187409.222 5
  20149303.290   -18945512.217 6
 94  2 17  5 58 59.9890000  0  8 20 24 16 12  5  9 13  4
  18198427.720   -17424757.986 6 -13482788.844 7
  17807937.923   -26935315.965 7 -20783422.374 9
  19184811.134   -14061056.644 6 -10865216.190 6
  19291428.626   -18794213.673 6 -13658793.888 6
  16962149.751   -28042739.620 7 -21770104.492 8
  20501590.087   -14287006.076 5
  20629494.228   -20179568.793 5 -14154660.736 3
  20162544.267   -18875919.398 6 -14514627.491 5
 94  2 17  5 59 29.9890000  0  8 20 24 16 12  5  9 13  4
  18180604.907   -17518416.650 6 -13555769.617 7
  17813659.751   -26905250.387 7 -20759994.646 9
  19165127.610   -14164486.093 6 -10945810.549 6
  19304059.626   -18727831.342 6 -13607067.413 6
  16957523.243   -28067057.636 7 -21789053.600 8
  20514842.243   -14217342.889 5
  20637483.189   -20137571.858 5 -14121935.833 4
  20175805.040   -18806225.692 5 -14460320.727 6
 94  2 17  5 59 59.9890000  0  8 20 24 16 12  5  9 13  4
  18162849.853   -17611711.070 6 -13628466.570 7
  17819437.423   -26874889.178 7 -20736336.573 9
  19145504.790   -14267622.916 6 -11026176.899 6
  19316758.556   -18661123.004 6 -13555086.907 6
  16952994.103   -28090850.282 7 -21807593.339 7
  20528108.689   -14147640.606 5
  20645472.673   -20095613.107 5 -14089240.731 4
  20189088.782   -18736434.885 5
 94  2 17  6  0 29.9890000  0  8 20 24 16 12  5  9 13  4
  18145169.564   -17704628.890 6 -13700870.066 7
  17825272.603   -26844226.124 7 -20712443.275 9
  19125931.157   -14370465.385 6 -11106313.883 6
  19329513.587   -18594081.768 6 -13502847.000 6
  16948566.665   -28114113.729 7 -21825720.708 8
  20541378.939   -14077904.062 5
  20653445.329   -20053683.022 5 -14056567.949 4
  20202389.571   -18666534.432 6
 94  2 17  6  0 59.9890000  0  8 20 24 16 12  5  9 13  4
  18127561.032   -17797170.836 7 -13772980.680 7
  17831166.634   -26813261.429 7 -20688314.952 9
  19106419.454   -14473009.351 6 -11186218.250 6
  19342334.165   -18526713.858 6 -13450352.558 6
  16944240.978   -28136845.366 7 -21843433.684 8
  20554653.157   -14008132.458 5        -0.13214
  20661420.454   -20011784.750 5 -14023919.952 4
  20215707.767   -18596542.290 5 -14296931.075 6
